<?xml version="1.0" encoding="UTF-8" standalone="no" ?>
<gpx xmlns="http://www.topografix.com/GPX/1/1" xmlns:xsi="http://www.w3.org/2001/XMLSchema-instance" xsi:schemaLocation="http://www.topografix.com/GPX/1/1 http://www.topografix.com/GPX/1/1/gpx.xsd" version="1.1" creator="VisuGPX - https://www.visugpx.com">
  <metadata>
    <name>Trace Gpx Sortie Prépa Sport 23/05/2022</name>
  </metadata>
  <trk>
    <name><![CDATA[Sans titre]]></name>
    <trkseg>
      <trkpt lat="43.1247" lon="5.88012">
        <ele>17.80346111044</ele>
        <time>2022-05-21T19:45:59.000Z</time>
      </trkpt>
      <trkpt lat="43.12481" lon="5.88011">
        <ele>18.05640552608</ele>
        <time>2022-05-21T19:45:59.002Z</time>
      </trkpt>
      <trkpt lat="43.1248" lon="5.87995">
        <ele>18.32113091113</ele>
        <time>2022-05-21T19:45:59.006Z</time>
      </trkpt>
      <trkpt lat="43.12479" lon="5.87979">
        <ele>18.50830387282</ele>
        <time>2022-05-21T19:45:59.012Z</time>
      </trkpt>
      <trkpt lat="43.12476" lon="5.87966">
        <ele>18.62012510175</ele>
        <time>2022-05-21T19:45:59.019Z</time>
      </trkpt>
      <trkpt lat="43.12474" lon="5.87958">
        <ele>18.6757466374</ele>
        <time>2022-05-21T19:45:59.027Z</time>
      </trkpt>
      <trkpt lat="43.12466" lon="5.87949">
        <ele>18.74416437203</ele>
        <time>2022-05-21T19:45:59.037Z</time>
      </trkpt>
      <trkpt lat="43.12459" lon="5.87949">
        <ele>18.80115956822</ele>
        <time>2022-05-21T19:45:59.048Z</time>
      </trkpt>
      <trkpt lat="43.12455" lon="5.87949">
        <ele>18.86018865561</ele>
        <time>2022-05-21T19:45:59.060Z</time>
      </trkpt>
      <trkpt lat="43.1243" lon="5.8795">
        <ele>18.90493774676</ele>
        <time>2022-05-21T19:45:59.076Z</time>
      </trkpt>
      <trkpt lat="43.12417" lon="5.87937">
        <ele>18.97559355539</ele>
        <time>2022-05-21T19:45:59.094Z</time>
      </trkpt>
      <trkpt lat="43.12413" lon="5.87933">
        <ele>19.06574641862</ele>
        <time>2022-05-21T19:45:59.113Z</time>
      </trkpt>
      <trkpt lat="43.12412" lon="5.8792">
        <ele>19.19578296185</ele>
        <time>2022-05-21T19:45:59.134Z</time>
      </trkpt>
      <trkpt lat="43.12417" lon="5.87903">
        <ele>19.33046565048</ele>
        <time>2022-05-21T19:45:59.157Z</time>
      </trkpt>
      <trkpt lat="43.12425" lon="5.87889">
        <ele>19.44867108523</ele>
        <time>2022-05-21T19:45:59.182Z</time>
      </trkpt>
      <trkpt lat="43.12445" lon="5.87867">
        <ele>19.73553432099</ele>
        <time>2022-05-21T19:45:59.211Z</time>
      </trkpt>
      <trkpt lat="43.12465" lon="5.87857">
        <ele>19.98058213142</ele>
        <time>2022-05-21T19:45:59.243Z</time>
      </trkpt>
      <trkpt lat="43.12478" lon="5.87853">
        <ele>20.21784795523</ele>
        <time>2022-05-21T19:45:59.277Z</time>
      </trkpt>
      <trkpt lat="43.12478" lon="5.87853">
        <ele>20.48215325761</ele>
        <time>2022-05-21T19:45:59.311Z</time>
      </trkpt>
      <trkpt lat="43.12511" lon="5.87847">
        <ele>20.8586828665</ele>
        <time>2022-05-21T19:45:59.351Z</time>
      </trkpt>
      <trkpt lat="43.12538" lon="5.87843">
        <ele>21.28692569998</ele>
        <time>2022-05-21T19:45:59.395Z</time>
      </trkpt>
      <trkpt lat="43.12538" lon="5.87843">
        <ele>21.65280170078</ele>
        <time>2022-05-21T19:45:59.439Z</time>
      </trkpt>
      <trkpt lat="43.12546" lon="5.87842">
        <ele>22.03736286937</ele>
        <time>2022-05-21T19:45:59.484Z</time>
      </trkpt>
      <trkpt lat="43.12556" lon="5.8784">
        <ele>22.43014725241</ele>
        <time>2022-05-21T19:45:59.531Z</time>
      </trkpt>
      <trkpt lat="43.12556" lon="5.8784">
        <ele>22.7907825114</ele>
        <time>2022-05-21T19:45:59.578Z</time>
      </trkpt>
      <trkpt lat="43.12591" lon="5.87834">
        <ele>23.13615525547</ele>
        <time>2022-05-21T19:45:59.631Z</time>
      </trkpt>
      <trkpt lat="43.12648" lon="5.87822">
        <ele>23.49137493039</ele>
        <time>2022-05-21T19:45:59.693Z</time>
      </trkpt>
      <trkpt lat="43.12664" lon="5.87814">
        <ele>23.91477792343</ele>
        <time>2022-05-21T19:45:59.758Z</time>
      </trkpt>
      <trkpt lat="43.12695" lon="5.87785">
        <ele>24.39847670372</ele>
        <time>2022-05-21T19:45:59.829Z</time>
      </trkpt>
      <trkpt lat="43.12695" lon="5.87785">
        <ele>24.76388201894</ele>
        <time>2022-05-21T19:45:59.900Z</time>
      </trkpt>
      <trkpt lat="43.12703" lon="5.87788">
        <ele>25.12719346919</ele>
        <time>2022-05-21T19:45:59.972Z</time>
      </trkpt>
      <trkpt lat="43.1271" lon="5.87794">
        <ele>25.46380862774</ele>
        <time>2022-05-21T19:46:00.045Z</time>
      </trkpt>
      <trkpt lat="43.12717" lon="5.87801">
        <ele>25.78089852818</ele>
        <time>2022-05-21T19:46:00.120Z</time>
      </trkpt>
      <trkpt lat="43.12722" lon="5.87787">
        <ele>26.0717578831</ele>
        <time>2022-05-21T19:46:00.196Z</time>
      </trkpt>
      <trkpt lat="43.1272" lon="5.87775">
        <ele>26.35205362471</ele>
        <time>2022-05-21T19:46:00.274Z</time>
      </trkpt>
      <trkpt lat="43.12723" lon="5.87769">
        <ele>26.61512570249</ele>
        <time>2022-05-21T19:46:00.353Z</time>
      </trkpt>
      <trkpt lat="43.12725" lon="5.87764">
        <ele>26.85342552165</ele>
        <time>2022-05-21T19:46:00.432Z</time>
      </trkpt>
      <trkpt lat="43.12746" lon="5.87757">
        <ele>27.11881701522</ele>
        <time>2022-05-21T19:46:00.515Z</time>
      </trkpt>
      <trkpt lat="43.12753" lon="5.87751">
        <ele>27.33425778879</ele>
        <time>2022-05-21T19:46:00.599Z</time>
      </trkpt>
      <trkpt lat="43.12754" lon="5.8775">
        <ele>27.52485826342</ele>
        <time>2022-05-21T19:46:00.683Z</time>
      </trkpt>
      <trkpt lat="43.12754" lon="5.8775">
        <ele>27.69822118497</ele>
        <time>2022-05-21T19:46:00.767Z</time>
      </trkpt>
      <trkpt lat="43.12774" lon="5.87723">
        <ele>27.90705193378</ele>
        <time>2022-05-21T19:46:00.856Z</time>
      </trkpt>
      <trkpt lat="43.12774" lon="5.87723">
        <ele>28.07352438397</ele>
        <time>2022-05-21T19:46:00.945Z</time>
      </trkpt>
      <trkpt lat="43.12793" lon="5.87697">
        <ele>28.21444741921</ele>
        <time>2022-05-21T19:46:01.038Z</time>
      </trkpt>
      <trkpt lat="43.12801" lon="5.87686">
        <ele>28.36026379704</ele>
        <time>2022-05-21T19:46:01.133Z</time>
      </trkpt>
      <trkpt lat="43.12812" lon="5.87676">
        <ele>28.52661599527</ele>
        <time>2022-05-21T19:46:01.230Z</time>
      </trkpt>
      <trkpt lat="43.12814" lon="5.87674">
        <ele>28.70482085393</ele>
        <time>2022-05-21T19:46:01.328Z</time>
      </trkpt>
      <trkpt lat="43.12817" lon="5.87672">
        <ele>28.90093303573</ele>
        <time>2022-05-21T19:46:01.426Z</time>
      </trkpt>
      <trkpt lat="43.12818" lon="5.87672">
        <ele>29.11168814918</ele>
        <time>2022-05-21T19:46:01.524Z</time>
      </trkpt>
      <trkpt lat="43.12826" lon="5.87667">
        <ele>29.39093169477</ele>
        <time>2022-05-21T19:46:01.624Z</time>
      </trkpt>
      <trkpt lat="43.12838" lon="5.87663">
        <ele>29.71661081945</ele>
        <time>2022-05-21T19:46:01.726Z</time>
      </trkpt>
      <trkpt lat="43.12849" lon="5.87663">
        <ele>30.04060453507</ele>
        <time>2022-05-21T19:46:01.829Z</time>
      </trkpt>
      <trkpt lat="43.12893" lon="5.87671">
        <ele>30.48658799276</ele>
        <time>2022-05-21T19:46:01.940Z</time>
      </trkpt>
      <trkpt lat="43.12913" lon="5.87686">
        <ele>30.86900799459</ele>
        <time>2022-05-21T19:46:02.054Z</time>
      </trkpt>
      <trkpt lat="43.12917" lon="5.87697">
        <ele>31.25787053699</ele>
        <time>2022-05-21T19:46:02.170Z</time>
      </trkpt>
      <trkpt lat="43.12923" lon="5.87703">
        <ele>31.66799515042</ele>
        <time>2022-05-21T19:46:02.287Z</time>
      </trkpt>
      <trkpt lat="43.12931" lon="5.87705">
        <ele>32.10031842319</ele>
        <time>2022-05-21T19:46:02.405Z</time>
      </trkpt>
      <trkpt lat="43.12935" lon="5.87703">
        <ele>32.55650591634</ele>
        <time>2022-05-21T19:46:02.524Z</time>
      </trkpt>
      <trkpt lat="43.1294" lon="5.87701">
        <ele>33.03090021359</ele>
        <time>2022-05-21T19:46:02.644Z</time>
      </trkpt>
      <trkpt lat="43.12944" lon="5.87693">
        <ele>33.53265844819</ele>
        <time>2022-05-21T19:46:02.765Z</time>
      </trkpt>
      <trkpt lat="43.12959" lon="5.87684">
        <ele>34.08079304342</ele>
        <time>2022-05-21T19:46:02.888Z</time>
      </trkpt>
      <trkpt lat="43.12996" lon="5.87659">
        <ele>34.82478941831</ele>
        <time>2022-05-21T19:46:03.018Z</time>
      </trkpt>
      <trkpt lat="43.13029" lon="5.87646">
        <ele>35.66210311575</ele>
        <time>2022-05-21T19:46:03.153Z</time>
      </trkpt>
      <trkpt lat="43.13037" lon="5.87645">
        <ele>36.42290587125</ele>
        <time>2022-05-21T19:46:03.290Z</time>
      </trkpt>
      <trkpt lat="43.13046" lon="5.87653">
        <ele>37.20247829926</ele>
        <time>2022-05-21T19:46:03.428Z</time>
      </trkpt>
      <trkpt lat="43.13049" lon="5.87658">
        <ele>37.93418232882</ele>
        <time>2022-05-21T19:46:03.567Z</time>
      </trkpt>
      <trkpt lat="43.13056" lon="5.87661">
        <ele>38.69623963678</ele>
        <time>2022-05-21T19:46:03.707Z</time>
      </trkpt>
      <trkpt lat="43.13063" lon="5.87657">
        <ele>39.49134619185</ele>
        <time>2022-05-21T19:46:03.849Z</time>
      </trkpt>
      <trkpt lat="43.1308" lon="5.8763">
        <ele>40.41138154202</ele>
        <time>2022-05-21T19:46:03.995Z</time>
      </trkpt>
      <trkpt lat="43.13089" lon="5.87622">
        <ele>41.24047328739</ele>
        <time>2022-05-21T19:46:04.142Z</time>
      </trkpt>
      <trkpt lat="43.13107" lon="5.87613">
        <ele>42.06898011054</ele>
        <time>2022-05-21T19:46:04.293Z</time>
      </trkpt>
      <trkpt lat="43.13122" lon="5.87609">
        <ele>42.88472432795</ele>
        <time>2022-05-21T19:46:04.446Z</time>
      </trkpt>
      <trkpt lat="43.13136" lon="5.87598">
        <ele>43.80255004437</ele>
        <time>2022-05-21T19:46:04.602Z</time>
      </trkpt>
      <trkpt lat="43.13164" lon="5.87573">
        <ele>44.85320205066</ele>
        <time>2022-05-21T19:46:04.763Z</time>
      </trkpt>
      <trkpt lat="43.13164" lon="5.87573">
        <ele>45.80988579354</ele>
        <time>2022-05-21T19:46:04.924Z</time>
      </trkpt>
      <trkpt lat="43.13176" lon="5.87563">
        <ele>46.92791022381</ele>
        <time>2022-05-21T19:46:05.087Z</time>
      </trkpt>
      <trkpt lat="43.13176" lon="5.87563">
        <ele>47.95163258565</ele>
        <time>2022-05-21T19:46:05.250Z</time>
      </trkpt>
      <trkpt lat="43.13196" lon="5.87544">
        <ele>49.09100294138</ele>
        <time>2022-05-21T19:46:05.417Z</time>
      </trkpt>
      <trkpt lat="43.13205" lon="5.87537">
        <ele>50.18657937456</ele>
        <time>2022-05-21T19:46:05.586Z</time>
      </trkpt>
      <trkpt lat="43.13344" lon="5.87447">
        <ele>51.61114859614</ele>
        <time>2022-05-21T19:46:05.779Z</time>
      </trkpt>
      <trkpt lat="43.13389" lon="5.87404">
        <ele>52.90581807653</ele>
        <time>2022-05-21T19:46:05.981Z</time>
      </trkpt>
      <trkpt lat="43.13403" lon="5.87401">
        <ele>54.10650729069</ele>
        <time>2022-05-21T19:46:06.185Z</time>
      </trkpt>
      <trkpt lat="43.13416" lon="5.87401">
        <ele>55.32334342154</ele>
        <time>2022-05-21T19:46:06.391Z</time>
      </trkpt>
      <trkpt lat="43.13416" lon="5.87401">
        <ele>56.52336244858</ele>
        <time>2022-05-21T19:46:06.597Z</time>
      </trkpt>
      <trkpt lat="43.13443" lon="5.87403">
        <ele>57.77703255452</ele>
        <time>2022-05-21T19:46:06.808Z</time>
      </trkpt>
      <trkpt lat="43.13457" lon="5.87398">
        <ele>58.99136088884</ele>
        <time>2022-05-21T19:46:07.021Z</time>
      </trkpt>
      <trkpt lat="43.13463" lon="5.87395">
        <ele>60.22424983228</ele>
        <time>2022-05-21T19:46:07.235Z</time>
      </trkpt>
      <trkpt lat="43.13473" lon="5.87383">
        <ele>61.48590502489</ele>
        <time>2022-05-21T19:46:07.451Z</time>
      </trkpt>
      <trkpt lat="43.13518" lon="5.87309">
        <ele>63.13303651613</ele>
        <time>2022-05-21T19:46:07.678Z</time>
      </trkpt>
      <trkpt lat="43.13532" lon="5.8729">
        <ele>64.41330120741</ele>
        <time>2022-05-21T19:46:07.909Z</time>
      </trkpt>
      <trkpt lat="43.13539" lon="5.87283">
        <ele>65.70072295988</ele>
        <time>2022-05-21T19:46:08.141Z</time>
      </trkpt>
      <trkpt lat="43.13565" lon="5.87273">
        <ele>66.98285678031</ele>
        <time>2022-05-21T19:46:08.377Z</time>
      </trkpt>
      <trkpt lat="43.1358" lon="5.87265">
        <ele>68.28085669626</ele>
        <time>2022-05-21T19:46:08.616Z</time>
      </trkpt>
      <trkpt lat="43.13621" lon="5.87235">
        <ele>69.75305288725</ele>
        <time>2022-05-21T19:46:08.862Z</time>
      </trkpt>
      <trkpt lat="43.13621" lon="5.87235">
        <ele>71.03366509161</ele>
        <time>2022-05-21T19:46:09.108Z</time>
      </trkpt>
      <trkpt lat="43.13639" lon="5.87225">
        <ele>72.42404735665</ele>
        <time>2022-05-21T19:46:09.358Z</time>
      </trkpt>
      <trkpt lat="43.13659" lon="5.87217">
        <ele>73.76741058986</ele>
        <time>2022-05-21T19:46:09.611Z</time>
      </trkpt>
      <trkpt lat="43.13672" lon="5.8721">
        <ele>75.0382930771</ele>
        <time>2022-05-21T19:46:09.866Z</time>
      </trkpt>
      <trkpt lat="43.13685" lon="5.872">
        <ele>76.26368433381</ele>
        <time>2022-05-21T19:46:10.124Z</time>
      </trkpt>
      <trkpt lat="43.13735" lon="5.8716">
        <ele>77.45425510031</ele>
        <time>2022-05-21T19:46:10.391Z</time>
      </trkpt>
      <trkpt lat="43.13759" lon="5.87156">
        <ele>78.79905217324</ele>
        <time>2022-05-21T19:46:10.662Z</time>
      </trkpt>
      <trkpt lat="43.13771" lon="5.87168">
        <ele>80.02289557676</ele>
        <time>2022-05-21T19:46:10.935Z</time>
      </trkpt>
      <trkpt lat="43.13775" lon="5.87173">
        <ele>81.14081923842</ele>
        <time>2022-05-21T19:46:11.209Z</time>
      </trkpt>
      <trkpt lat="43.13779" lon="5.87198">
        <ele>82.22507160298</ele>
        <time>2022-05-21T19:46:11.486Z</time>
      </trkpt>
      <trkpt lat="43.13762" lon="5.87255">
        <ele>83.14587585808</ele>
        <time>2022-05-21T19:46:11.770Z</time>
      </trkpt>
      <trkpt lat="43.13762" lon="5.87255">
        <ele>84.06900502233</ele>
        <time>2022-05-21T19:46:12.054Z</time>
      </trkpt>
      <trkpt lat="43.13739" lon="5.87335">
        <ele>85.03574384261</ele>
        <time>2022-05-21T19:46:12.348Z</time>
      </trkpt>
      <trkpt lat="43.13733" lon="5.87363">
        <ele>85.94547212607</ele>
        <time>2022-05-21T19:46:12.646Z</time>
      </trkpt>
      <trkpt lat="43.13732" lon="5.87415">
        <ele>86.69936398126</ele>
        <time>2022-05-21T19:46:12.950Z</time>
      </trkpt>
      <trkpt lat="43.13736" lon="5.87461">
        <ele>87.35322969267</ele>
        <time>2022-05-21T19:46:13.259Z</time>
      </trkpt>
      <trkpt lat="43.1374" lon="5.87496">
        <ele>88.02065168518</ele>
        <time>2022-05-21T19:46:13.572Z</time>
      </trkpt>
      <trkpt lat="43.13755" lon="5.87598">
        <ele>88.58286524903</ele>
        <time>2022-05-21T19:46:13.897Z</time>
      </trkpt>
      <trkpt lat="43.13758" lon="5.87617">
        <ele>88.94944026885</ele>
        <time>2022-05-21T19:46:14.225Z</time>
      </trkpt>
      <trkpt lat="43.13766" lon="5.8767">
        <ele>89.30307811876</ele>
        <time>2022-05-21T19:46:14.559Z</time>
      </trkpt>
      <trkpt lat="43.13775" lon="5.8773">
        <ele>89.58003117081</ele>
        <time>2022-05-21T19:46:14.900Z</time>
      </trkpt>
      <trkpt lat="43.13779" lon="5.87745">
        <ele>89.53502726927</ele>
        <time>2022-05-21T19:46:15.243Z</time>
      </trkpt>
      <trkpt lat="43.13787" lon="5.8778">
        <ele>89.2311504299</ele>
        <time>2022-05-21T19:46:15.590Z</time>
      </trkpt>
      <trkpt lat="43.1381" lon="5.87858">
        <ele>88.69943693041</ele>
        <time>2022-05-21T19:46:15.947Z</time>
      </trkpt>
      <trkpt lat="43.1381" lon="5.87858">
        <ele>88.27956003132</ele>
        <time>2022-05-21T19:46:16.304Z</time>
      </trkpt>
      <trkpt lat="43.13819" lon="5.87889">
        <ele>87.65763360544</ele>
        <time>2022-05-21T19:46:16.665Z</time>
      </trkpt>
      <trkpt lat="43.13819" lon="5.87889">
        <ele>87.02192057883</ele>
        <time>2022-05-21T19:46:17.026Z</time>
      </trkpt>
      <trkpt lat="43.13839" lon="5.87956">
        <ele>86.18803480224</ele>
        <time>2022-05-21T19:46:17.396Z</time>
      </trkpt>
      <trkpt lat="43.13855" lon="5.87999">
        <ele>85.29840565811</ele>
        <time>2022-05-21T19:46:17.771Z</time>
      </trkpt>
      <trkpt lat="43.13855" lon="5.87999">
        <ele>84.40297701433</ele>
        <time>2022-05-21T19:46:18.146Z</time>
      </trkpt>
      <trkpt lat="43.13879" lon="5.8805">
        <ele>83.20403344754</ele>
        <time>2022-05-21T19:46:18.528Z</time>
      </trkpt>
      <trkpt lat="43.13888" lon="5.88067">
        <ele>82.09657935957</ele>
        <time>2022-05-21T19:46:18.913Z</time>
      </trkpt>
      <trkpt lat="43.13932" lon="5.88147">
        <ele>80.82729891447</ele>
        <time>2022-05-21T19:46:19.310Z</time>
      </trkpt>
      <trkpt lat="43.13945" lon="5.88175">
        <ele>79.71000373578</ele>
        <time>2022-05-21T19:46:19.710Z</time>
      </trkpt>
      <trkpt lat="43.13951" lon="5.88192">
        <ele>78.60418185118</ele>
        <time>2022-05-21T19:46:20.113Z</time>
      </trkpt>
      <trkpt lat="43.13964" lon="5.88243">
        <ele>77.64413105831</ele>
        <time>2022-05-21T19:46:20.522Z</time>
      </trkpt>
      <trkpt lat="43.13965" lon="5.88269">
        <ele>76.5330569958</ele>
        <time>2022-05-21T19:46:20.934Z</time>
      </trkpt>
      <trkpt lat="43.13965" lon="5.88279">
        <ele>75.36319809745</ele>
        <time>2022-05-21T19:46:21.347Z</time>
      </trkpt>
      <trkpt lat="43.13964" lon="5.88302">
        <ele>74.13540592734</ele>
        <time>2022-05-21T19:46:21.763Z</time>
      </trkpt>
      <trkpt lat="43.1396" lon="5.8834">
        <ele>72.74344270412</ele>
        <time>2022-05-21T19:46:22.183Z</time>
      </trkpt>
      <trkpt lat="43.1396" lon="5.8834">
        <ele>71.56130614069</ele>
        <time>2022-05-21T19:46:22.603Z</time>
      </trkpt>
      <trkpt lat="43.13954" lon="5.88375">
        <ele>70.27023023219</ele>
        <time>2022-05-21T19:46:23.028Z</time>
      </trkpt>
      <trkpt lat="43.13944" lon="5.88417">
        <ele>69.04780030122</ele>
        <time>2022-05-21T19:46:23.458Z</time>
      </trkpt>
      <trkpt lat="43.13935" lon="5.88459">
        <ele>67.86210377375</ele>
        <time>2022-05-21T19:46:23.893Z</time>
      </trkpt>
      <trkpt lat="43.13932" lon="5.88488">
        <ele>66.83177270744</ele>
        <time>2022-05-21T19:46:24.331Z</time>
      </trkpt>
      <trkpt lat="43.1393" lon="5.88528">
        <ele>65.70764006454</ele>
        <time>2022-05-21T19:46:24.774Z</time>
      </trkpt>
      <trkpt lat="43.1393" lon="5.88572">
        <ele>64.51363020139</ele>
        <time>2022-05-21T19:46:25.222Z</time>
      </trkpt>
      <trkpt lat="43.13932" lon="5.88588">
        <ele>63.4608437788</ele>
        <time>2022-05-21T19:46:25.672Z</time>
      </trkpt>
      <trkpt lat="43.13934" lon="5.88635">
        <ele>62.3866998918</ele>
        <time>2022-05-21T19:46:26.128Z</time>
      </trkpt>
      <trkpt lat="43.13935" lon="5.88649">
        <ele>61.50215430244</ele>
        <time>2022-05-21T19:46:26.585Z</time>
      </trkpt>
      <trkpt lat="43.13938" lon="5.88667">
        <ele>60.66119891305</ele>
        <time>2022-05-21T19:46:27.044Z</time>
      </trkpt>
      <trkpt lat="43.13941" lon="5.88684">
        <ele>59.88007952449</ele>
        <time>2022-05-21T19:46:27.505Z</time>
      </trkpt>
      <trkpt lat="43.13952" lon="5.88737">
        <ele>59.20453233846</ele>
        <time>2022-05-21T19:46:27.973Z</time>
      </trkpt>
      <trkpt lat="43.13964" lon="5.88788">
        <ele>58.56052030779</ele>
        <time>2022-05-21T19:46:28.447Z</time>
      </trkpt>
      <trkpt lat="43.13969" lon="5.88817">
        <ele>57.97301622622</ele>
        <time>2022-05-21T19:46:28.925Z</time>
      </trkpt>
      <trkpt lat="43.13974" lon="5.88859">
        <ele>57.47985697098</ele>
        <time>2022-05-21T19:46:29.408Z</time>
      </trkpt>
      <trkpt lat="43.13974" lon="5.88864">
        <ele>57.11084917671</ele>
        <time>2022-05-21T19:46:29.891Z</time>
      </trkpt>
      <trkpt lat="43.13976" lon="5.88869">
        <ele>56.8196202939</ele>
        <time>2022-05-21T19:46:30.375Z</time>
      </trkpt>
      <trkpt lat="43.13981" lon="5.88871">
        <ele>56.60622196986</ele>
        <time>2022-05-21T19:46:30.860Z</time>
      </trkpt>
      <trkpt lat="43.13993" lon="5.88875">
        <ele>56.46628799579</ele>
        <time>2022-05-21T19:46:31.347Z</time>
      </trkpt>
      <trkpt lat="43.14021" lon="5.88889">
        <ele>56.3847123079</ele>
        <time>2022-05-21T19:46:31.839Z</time>
      </trkpt>
      <trkpt lat="43.1403" lon="5.88903">
        <ele>56.32608101769</ele>
        <time>2022-05-21T19:46:32.333Z</time>
      </trkpt>
      <trkpt lat="43.14048" lon="5.88941">
        <ele>56.24297604936</ele>
        <time>2022-05-21T19:46:32.832Z</time>
      </trkpt>
      <trkpt lat="43.14051" lon="5.88946">
        <ele>56.23875196864</ele>
        <time>2022-05-21T19:46:33.332Z</time>
      </trkpt>
      <trkpt lat="43.14066" lon="5.88977">
        <ele>56.26765349782</ele>
        <time>2022-05-21T19:46:33.836Z</time>
      </trkpt>
      <trkpt lat="43.14066" lon="5.88977">
        <ele>56.30437567662</ele>
        <time>2022-05-21T19:46:34.340Z</time>
      </trkpt>
      <trkpt lat="43.14086" lon="5.89014">
        <ele>56.37138915405</ele>
        <time>2022-05-21T19:46:34.850Z</time>
      </trkpt>
      <trkpt lat="43.14089" lon="5.89032">
        <ele>56.39500445956</ele>
        <time>2022-05-21T19:46:35.362Z</time>
      </trkpt>
      <trkpt lat="43.14095" lon="5.89049">
        <ele>56.45723330803</ele>
        <time>2022-05-21T19:46:35.876Z</time>
      </trkpt>
      <trkpt lat="43.14095" lon="5.89049">
        <ele>56.49719403595</ele>
        <time>2022-05-21T19:46:36.390Z</time>
      </trkpt>
      <trkpt lat="43.14116" lon="5.89103">
        <ele>56.50948299821</ele>
        <time>2022-05-21T19:46:36.911Z</time>
      </trkpt>
      <trkpt lat="43.14168" lon="5.89199">
        <ele>56.76047996934</ele>
        <time>2022-05-21T19:46:37.446Z</time>
      </trkpt>
      <trkpt lat="43.14171" lon="5.89211">
        <ele>56.74136403483</ele>
        <time>2022-05-21T19:46:37.983Z</time>
      </trkpt>
      <trkpt lat="43.14175" lon="5.8922">
        <ele>56.66716497244</ele>
        <time>2022-05-21T19:46:38.521Z</time>
      </trkpt>
      <trkpt lat="43.14175" lon="5.8922">
        <ele>56.57711589652</ele>
        <time>2022-05-21T19:46:39.059Z</time>
      </trkpt>
      <trkpt lat="43.1423" lon="5.8937">
        <ele>56.18658359731</ele>
        <time>2022-05-21T19:46:39.617Z</time>
      </trkpt>
      <trkpt lat="43.1423" lon="5.8937">
        <ele>56.02650404764</ele>
        <time>2022-05-21T19:46:40.175Z</time>
      </trkpt>
      <trkpt lat="43.14237" lon="5.89391">
        <ele>55.8079937055</ele>
        <time>2022-05-21T19:46:40.735Z</time>
      </trkpt>
      <trkpt lat="43.14237" lon="5.89391">
        <ele>55.58847777026</ele>
        <time>2022-05-21T19:46:41.295Z</time>
      </trkpt>
      <trkpt lat="43.14242" lon="5.89404">
        <ele>55.32735996737</ele>
        <time>2022-05-21T19:46:41.857Z</time>
      </trkpt>
      <trkpt lat="43.14262" lon="5.89423">
        <ele>55.05932176824</ele>
        <time>2022-05-21T19:46:42.423Z</time>
      </trkpt>
      <trkpt lat="43.14262" lon="5.89423">
        <ele>54.76797523143</ele>
        <time>2022-05-21T19:46:42.989Z</time>
      </trkpt>
      <trkpt lat="43.14302" lon="5.89458">
        <ele>54.46035221498</ele>
        <time>2022-05-21T19:46:43.562Z</time>
      </trkpt>
      <trkpt lat="43.14302" lon="5.89458">
        <ele>54.1370022249</ele>
        <time>2022-05-21T19:46:44.135Z</time>
      </trkpt>
      <trkpt lat="43.14302" lon="5.89458">
        <ele>54.46035221498</ele>
        <time>2022-05-21T19:46:44.708Z</time>
      </trkpt>
      <trkpt lat="43.1432" lon="5.89474">
        <ele>53.12661653034</ele>
        <time>2022-05-21T19:46:45.285Z</time>
      </trkpt>
      <trkpt lat="43.14372" lon="5.89521">
        <ele>52.81577437917</ele>
        <time>2022-05-21T19:46:45.872Z</time>
      </trkpt>
      <trkpt lat="43.14398" lon="5.89543">
        <ele>52.49252685777</ele>
        <time>2022-05-21T19:46:46.464Z</time>
      </trkpt>
      <trkpt lat="43.14448" lon="5.8959">
        <ele>52.10235879784</ele>
        <time>2022-05-21T19:46:47.065Z</time>
      </trkpt>
      <trkpt lat="43.14491" lon="5.89673">
        <ele>51.74249578258</ele>
        <time>2022-05-21T19:46:47.678Z</time>
      </trkpt>
      <trkpt lat="43.14505" lon="5.89691">
        <ele>51.52250786624</ele>
        <time>2022-05-21T19:46:48.294Z</time>
      </trkpt>
      <trkpt lat="43.1452" lon="5.89707">
        <ele>51.35067879455</ele>
        <time>2022-05-21T19:46:48.913Z</time>
      </trkpt>
      <trkpt lat="43.14545" lon="5.89748">
        <ele>51.25144506047</ele>
        <time>2022-05-21T19:46:49.539Z</time>
      </trkpt>
      <trkpt lat="43.14545" lon="5.89748">
        <ele>51.16289949322</ele>
        <time>2022-05-21T19:46:50.165Z</time>
      </trkpt>
      <trkpt lat="43.14568" lon="5.89789">
        <ele>51.17786048263</ele>
        <time>2022-05-21T19:46:50.797Z</time>
      </trkpt>
      <trkpt lat="43.14598" lon="5.89844">
        <ele>51.28595136494</ele>
        <time>2022-05-21T19:46:51.437Z</time>
      </trkpt>
      <trkpt lat="43.14604" lon="5.89863">
        <ele>51.43862659311</ele>
        <time>2022-05-21T19:46:52.079Z</time>
      </trkpt>
      <trkpt lat="43.14609" lon="5.89903">
        <ele>51.71820956771</ele>
        <time>2022-05-21T19:46:52.726Z</time>
      </trkpt>
      <trkpt lat="43.14612" lon="5.89927">
        <ele>52.08004680972</ele>
        <time>2022-05-21T19:46:53.376Z</time>
      </trkpt>
      <trkpt lat="43.14616" lon="5.89943">
        <ele>52.4973621667</ele>
        <time>2022-05-21T19:46:54.028Z</time>
      </trkpt>
      <trkpt lat="43.14652" lon="5.90037">
        <ele>52.8206928724</ele>
        <time>2022-05-21T19:46:54.692Z</time>
      </trkpt>
      <trkpt lat="43.14652" lon="5.9005">
        <ele>53.45106737148</ele>
        <time>2022-05-21T19:46:55.358Z</time>
      </trkpt>
      <trkpt lat="43.14652" lon="5.90063">
        <ele>54.21051128491</ele>
        <time>2022-05-21T19:46:56.025Z</time>
      </trkpt>
      <trkpt lat="43.14693" lon="5.90131">
        <ele>55.29234374975</ele>
        <time>2022-05-21T19:46:56.703Z</time>
      </trkpt>
      <trkpt lat="43.14703" lon="5.90148">
        <ele>56.33815894369</ele>
        <time>2022-05-21T19:46:57.383Z</time>
      </trkpt>
      <trkpt lat="43.14742" lon="5.90215">
        <ele>57.51833941073</ele>
        <time>2022-05-21T19:46:58.073Z</time>
      </trkpt>
      <trkpt lat="43.14744" lon="5.90221">
        <ele>58.82454074448</ele>
        <time>2022-05-21T19:46:58.764Z</time>
      </trkpt>
      <trkpt lat="43.14742" lon="5.90224">
        <ele>60.284835936</ele>
        <time>2022-05-21T19:46:59.456Z</time>
      </trkpt>
      <trkpt lat="43.14742" lon="5.90229">
        <ele>61.89602067245</ele>
        <time>2022-05-21T19:47:00.148Z</time>
      </trkpt>
      <trkpt lat="43.14744" lon="5.90232">
        <ele>63.66552827673</ele>
        <time>2022-05-21T19:47:00.841Z</time>
      </trkpt>
      <trkpt lat="43.14749" lon="5.90231">
        <ele>65.60472211416</ele>
        <time>2022-05-21T19:47:01.534Z</time>
      </trkpt>
      <trkpt lat="43.14781" lon="5.90237">
        <ele>67.75282713215</ele>
        <time>2022-05-21T19:47:02.232Z</time>
      </trkpt>
      <trkpt lat="43.14929" lon="5.90265">
        <ele>70.7042613059</ele>
        <time>2022-05-21T19:47:02.954Z</time>
      </trkpt>
      <trkpt lat="43.14937" lon="5.90267">
        <ele>73.02176138607</ele>
        <time>2022-05-21T19:47:03.678Z</time>
      </trkpt>
      <trkpt lat="43.1502" lon="5.90279">
        <ele>75.67963675027</ele>
        <time>2022-05-21T19:47:04.415Z</time>
      </trkpt>
      <trkpt lat="43.15056" lon="5.9029">
        <ele>78.30380126193</ele>
        <time>2022-05-21T19:47:05.158Z</time>
      </trkpt>
      <trkpt lat="43.15084" lon="5.90298">
        <ele>80.95985494905</ele>
        <time>2022-05-21T19:47:05.906Z</time>
      </trkpt>
      <trkpt lat="43.15163" lon="5.90316">
        <ele>84.02747166301</ele>
        <time>2022-05-21T19:47:06.666Z</time>
      </trkpt>
      <trkpt lat="43.15187" lon="5.90326">
        <ele>86.65107985693</ele>
        <time>2022-05-21T19:47:07.430Z</time>
      </trkpt>
      <trkpt lat="43.15187" lon="5.90326">
        <ele>89.24380332324</ele>
        <time>2022-05-21T19:47:08.194Z</time>
      </trkpt>
      <trkpt lat="43.15227" lon="5.90353">
        <ele>92.04350381759</ele>
        <time>2022-05-21T19:47:08.965Z</time>
      </trkpt>
      <trkpt lat="43.15278" lon="5.9039">
        <ele>94.81990607768</ele>
        <time>2022-05-21T19:47:09.746Z</time>
      </trkpt>
      <trkpt lat="43.15289" lon="5.90395">
        <ele>97.4147903557</ele>
        <time>2022-05-21T19:47:10.529Z</time>
      </trkpt>
      <trkpt lat="43.15326" lon="5.90404">
        <ele>100.17092389038</ele>
        <time>2022-05-21T19:47:11.318Z</time>
      </trkpt>
      <trkpt lat="43.15334" lon="5.90405">
        <ele>102.64974366095</ele>
        <time>2022-05-21T19:47:12.108Z</time>
      </trkpt>
      <trkpt lat="43.1535" lon="5.90413">
        <ele>105.09034960266</ele>
        <time>2022-05-21T19:47:12.901Z</time>
      </trkpt>
      <trkpt lat="43.15356" lon="5.90418">
        <ele>107.46536101807</ele>
        <time>2022-05-21T19:47:13.695Z</time>
      </trkpt>
      <trkpt lat="43.15363" lon="5.90434">
        <ele>109.82024824643</ele>
        <time>2022-05-21T19:47:14.491Z</time>
      </trkpt>
      <trkpt lat="43.15373" lon="5.90477">
        <ele>112.25150599826</ele>
        <time>2022-05-21T19:47:15.292Z</time>
      </trkpt>
      <trkpt lat="43.15378" lon="5.90531">
        <ele>114.71250778177</ele>
        <time>2022-05-21T19:47:16.100Z</time>
      </trkpt>
      <trkpt lat="43.15369" lon="5.90606">
        <ele>116.90579515593</ele>
        <time>2022-05-21T19:47:16.917Z</time>
      </trkpt>
      <trkpt lat="43.15363" lon="5.90647">
        <ele>119.05731511447</ele>
        <time>2022-05-21T19:47:17.738Z</time>
      </trkpt>
      <trkpt lat="43.1536" lon="5.90708">
        <ele>120.9610276622</ele>
        <time>2022-05-21T19:47:18.567Z</time>
      </trkpt>
      <trkpt lat="43.1537" lon="5.90721">
        <ele>122.94058794645</ele>
        <time>2022-05-21T19:47:19.398Z</time>
      </trkpt>
      <trkpt lat="43.15382" lon="5.90728">
        <ele>124.90752184201</ele>
        <time>2022-05-21T19:47:20.231Z</time>
      </trkpt>
      <trkpt lat="43.15392" lon="5.90728">
        <ele>126.81385956029</ele>
        <time>2022-05-21T19:47:21.065Z</time>
      </trkpt>
      <trkpt lat="43.15405" lon="5.90704">
        <ele>128.83253852445</ele>
        <time>2022-05-21T19:47:21.903Z</time>
      </trkpt>
      <trkpt lat="43.1542" lon="5.90685">
        <ele>130.91244638562</ele>
        <time>2022-05-21T19:47:22.744Z</time>
      </trkpt>
      <trkpt lat="43.15438" lon="5.90667">
        <ele>133.02353519815</ele>
        <time>2022-05-21T19:47:23.589Z</time>
      </trkpt>
      <trkpt lat="43.15449" lon="5.90666">
        <ele>134.85964734948</ele>
        <time>2022-05-21T19:47:24.435Z</time>
      </trkpt>
      <trkpt lat="43.15472" lon="5.90676">
        <ele>136.71968614037</ele>
        <time>2022-05-21T19:47:25.285Z</time>
      </trkpt>
      <trkpt lat="43.15569" lon="5.90759">
        <ele>138.25987774232</ele>
        <time>2022-05-21T19:47:26.154Z</time>
      </trkpt>
      <trkpt lat="43.15599" lon="5.90764">
        <ele>140.043596883</ele>
        <time>2022-05-21T19:47:27.027Z</time>
      </trkpt>
      <trkpt lat="43.15629" lon="5.90764">
        <ele>141.65918360135</ele>
        <time>2022-05-21T19:47:27.905Z</time>
      </trkpt>
      <trkpt lat="43.15647" lon="5.90755">
        <ele>143.21271517115</ele>
        <time>2022-05-21T19:47:28.786Z</time>
      </trkpt>
      <trkpt lat="43.15658" lon="5.9075">
        <ele>144.71063030745</ele>
        <time>2022-05-21T19:47:29.669Z</time>
      </trkpt>
      <trkpt lat="43.15667" lon="5.90744">
        <ele>146.09828850749</ele>
        <time>2022-05-21T19:47:30.554Z</time>
      </trkpt>
      <trkpt lat="43.15667" lon="5.90744">
        <ele>147.49012835155</ele>
        <time>2022-05-21T19:47:31.439Z</time>
      </trkpt>
      <trkpt lat="43.15674" lon="5.90737">
        <ele>148.84001111447</ele>
        <time>2022-05-21T19:47:32.325Z</time>
      </trkpt>
      <trkpt lat="43.15689" lon="5.90713">
        <ele>150.36526308099</ele>
        <time>2022-05-21T19:47:33.215Z</time>
      </trkpt>
      <trkpt lat="43.15697" lon="5.90693">
        <ele>151.87303265119</ele>
        <time>2022-05-21T19:47:34.108Z</time>
      </trkpt>
      <trkpt lat="43.15703" lon="5.90677">
        <ele>153.337499266</ele>
        <time>2022-05-21T19:47:35.003Z</time>
      </trkpt>
      <trkpt lat="43.1572" lon="5.90657">
        <ele>155.02922581025</ele>
        <time>2022-05-21T19:47:35.901Z</time>
      </trkpt>
      <trkpt lat="43.15741" lon="5.90652">
        <ele>156.63060509472</ele>
        <time>2022-05-21T19:47:36.803Z</time>
      </trkpt>
      <trkpt lat="43.15763" lon="5.90664">
        <ele>157.61117696621</ele>
        <time>2022-05-21T19:47:37.708Z</time>
      </trkpt>
      <trkpt lat="43.1579" lon="5.90674">
        <ele>158.5977462223</ele>
        <time>2022-05-21T19:47:38.618Z</time>
      </trkpt>
      <trkpt lat="43.15806" lon="5.90672">
        <ele>159.79756138613</ele>
        <time>2022-05-21T19:47:39.530Z</time>
      </trkpt>
      <trkpt lat="43.15821" lon="5.90663">
        <ele>161.10389310134</ele>
        <time>2022-05-21T19:47:40.445Z</time>
      </trkpt>
      <trkpt lat="43.15827" lon="5.90658">
        <ele>162.35406977531</ele>
        <time>2022-05-21T19:47:41.361Z</time>
      </trkpt>
      <trkpt lat="43.15837" lon="5.90648">
        <ele>163.59954969867</ele>
        <time>2022-05-21T19:47:42.279Z</time>
      </trkpt>
      <trkpt lat="43.15853" lon="5.90628">
        <ele>164.91226606642</ele>
        <time>2022-05-21T19:47:43.201Z</time>
      </trkpt>
      <trkpt lat="43.15866" lon="5.9061">
        <ele>166.20597625029</ele>
        <time>2022-05-21T19:47:44.126Z</time>
      </trkpt>
      <trkpt lat="43.15897" lon="5.90546">
        <ele>167.68956486898</ele>
        <time>2022-05-21T19:47:45.060Z</time>
      </trkpt>
      <trkpt lat="43.1593" lon="5.90488">
        <ele>169.03879425588</ele>
        <time>2022-05-21T19:47:46.002Z</time>
      </trkpt>
      <trkpt lat="43.15949" lon="5.90441">
        <ele>170.41236828338</ele>
        <time>2022-05-21T19:47:46.950Z</time>
      </trkpt>
      <trkpt lat="43.15952" lon="5.90431">
        <ele>171.79940377774</ele>
        <time>2022-05-21T19:47:47.900Z</time>
      </trkpt>
      <trkpt lat="43.15952" lon="5.90431">
        <ele>173.13776430843</ele>
        <time>2022-05-21T19:47:48.850Z</time>
      </trkpt>
      <trkpt lat="43.15962" lon="5.90398">
        <ele>174.63479315321</ele>
        <time>2022-05-21T19:47:49.804Z</time>
      </trkpt>
      <trkpt lat="43.15997" lon="5.90322">
        <ele>176.20965916562</ele>
        <time>2022-05-21T19:47:50.768Z</time>
      </trkpt>
      <trkpt lat="43.16006" lon="5.90299">
        <ele>177.64355671297</ele>
        <time>2022-05-21T19:47:51.735Z</time>
      </trkpt>
      <trkpt lat="43.16018" lon="5.90252">
        <ele>179.39105340652</ele>
        <time>2022-05-21T19:47:52.708Z</time>
      </trkpt>
      <trkpt lat="43.16036" lon="5.90232">
        <ele>180.73406121957</ele>
        <time>2022-05-21T19:47:53.685Z</time>
      </trkpt>
      <trkpt lat="43.16041" lon="5.90222">
        <ele>182.09352730037</ele>
        <time>2022-05-21T19:47:54.663Z</time>
      </trkpt>
      <trkpt lat="43.1605" lon="5.90195">
        <ele>183.67561551075</ele>
        <time>2022-05-21T19:47:55.645Z</time>
      </trkpt>
      <trkpt lat="43.16052" lon="5.9019">
        <ele>185.00176615313</ele>
        <time>2022-05-21T19:47:56.628Z</time>
      </trkpt>
      <trkpt lat="43.16056" lon="5.90187">
        <ele>186.28407205731</ele>
        <time>2022-05-21T19:47:57.611Z</time>
      </trkpt>
      <trkpt lat="43.16061" lon="5.90186">
        <ele>187.51070266734</ele>
        <time>2022-05-21T19:47:58.595Z</time>
      </trkpt>
      <trkpt lat="43.16061" lon="5.90186">
        <ele>188.67233403086</ele>
        <time>2022-05-21T19:47:59.579Z</time>
      </trkpt>
      <trkpt lat="43.16069" lon="5.90185">
        <ele>189.87624889554</ele>
        <time>2022-05-21T19:48:00.564Z</time>
      </trkpt>
      <trkpt lat="43.16083" lon="5.90195">
        <ele>190.97433927539</ele>
        <time>2022-05-21T19:48:01.552Z</time>
      </trkpt>
      <trkpt lat="43.16108" lon="5.90232">
        <ele>191.75327992811</ele>
        <time>2022-05-21T19:48:02.546Z</time>
      </trkpt>
      <trkpt lat="43.16118" lon="5.90236">
        <ele>192.81690351473</ele>
        <time>2022-05-21T19:48:03.542Z</time>
      </trkpt>
      <trkpt lat="43.16131" lon="5.9023">
        <ele>194.03332591025</ele>
        <time>2022-05-21T19:48:04.540Z</time>
      </trkpt>
      <trkpt lat="43.16146" lon="5.90219">
        <ele>195.29662906262</ele>
        <time>2022-05-21T19:48:05.541Z</time>
      </trkpt>
      <trkpt lat="43.16167" lon="5.90199">
        <ele>196.80021521267</ele>
        <time>2022-05-21T19:48:06.546Z</time>
      </trkpt>
      <trkpt lat="43.16187" lon="5.9019">
        <ele>198.17674536187</ele>
        <time>2022-05-21T19:48:07.554Z</time>
      </trkpt>
      <trkpt lat="43.16199" lon="5.90195">
        <ele>199.39291746092</ele>
        <time>2022-05-21T19:48:08.564Z</time>
      </trkpt>
      <trkpt lat="43.16214" lon="5.90209">
        <ele>200.525549055</ele>
        <time>2022-05-21T19:48:09.577Z</time>
      </trkpt>
      <trkpt lat="43.16229" lon="5.90204">
        <ele>201.80374411133</ele>
        <time>2022-05-21T19:48:10.592Z</time>
      </trkpt>
      <trkpt lat="43.16242" lon="5.90193">
        <ele>203.16873847046</ele>
        <time>2022-05-21T19:48:11.610Z</time>
      </trkpt>
      <trkpt lat="43.16258" lon="5.90178">
        <ele>204.56194955812</ele>
        <time>2022-05-21T19:48:12.631Z</time>
      </trkpt>
      <trkpt lat="43.16293" lon="5.90137">
        <ele>206.12605946246</ele>
        <time>2022-05-21T19:48:13.659Z</time>
      </trkpt>
      <trkpt lat="43.16297" lon="5.90125">
        <ele>207.73477239411</ele>
        <time>2022-05-21T19:48:14.689Z</time>
      </trkpt>
      <trkpt lat="43.16308" lon="5.90056">
        <ele>209.88579980785</ele>
        <time>2022-05-21T19:48:15.727Z</time>
      </trkpt>
      <trkpt lat="43.16317" lon="5.90039">
        <ele>211.53250051458</ele>
        <time>2022-05-21T19:48:16.768Z</time>
      </trkpt>
      <trkpt lat="43.16328" lon="5.90027">
        <ele>213.10795260855</ele>
        <time>2022-05-21T19:48:17.811Z</time>
      </trkpt>
      <trkpt lat="43.1635" lon="5.90027">
        <ele>214.62452449722</ele>
        <time>2022-05-21T19:48:18.857Z</time>
      </trkpt>
      <trkpt lat="43.16375" lon="5.90033">
        <ele>216.09312641983</ele>
        <time>2022-05-21T19:48:19.907Z</time>
      </trkpt>
      <trkpt lat="43.16401" lon="5.90075">
        <ele>217.39207118199</ele>
        <time>2022-05-21T19:48:20.964Z</time>
      </trkpt>
      <trkpt lat="43.16416" lon="5.90095">
        <ele>218.76986610556</ele>
        <time>2022-05-21T19:48:22.024Z</time>
      </trkpt>
      <trkpt lat="43.16424" lon="5.90098">
        <ele>220.26307627412</ele>
        <time>2022-05-21T19:48:23.086Z</time>
      </trkpt>
      <trkpt lat="43.16424" lon="5.90098">
        <ele>221.72895338931</ele>
        <time>2022-05-21T19:48:24.148Z</time>
      </trkpt>
      <trkpt lat="43.16486" lon="5.90117">
        <ele>223.16435833263</ele>
        <time>2022-05-21T19:48:25.220Z</time>
      </trkpt>
      <trkpt lat="43.16504" lon="5.90112">
        <ele>224.64878504761</ele>
        <time>2022-05-21T19:48:26.295Z</time>
      </trkpt>
      <trkpt lat="43.16515" lon="5.90104">
        <ele>226.16477251171</ele>
        <time>2022-05-21T19:48:27.372Z</time>
      </trkpt>
      <trkpt lat="43.16523" lon="5.90095">
        <ele>227.6943534271</ele>
        <time>2022-05-21T19:48:28.450Z</time>
      </trkpt>
      <trkpt lat="43.1653" lon="5.90044">
        <ele>229.89185486177</ele>
        <time>2022-05-21T19:48:29.534Z</time>
      </trkpt>
      <trkpt lat="43.16536" lon="5.90031">
        <ele>231.57177030555</ele>
        <time>2022-05-21T19:48:30.620Z</time>
      </trkpt>
      <trkpt lat="43.16545" lon="5.90025">
        <ele>233.10134064287</ele>
        <time>2022-05-21T19:48:31.708Z</time>
      </trkpt>
      <trkpt lat="43.16553" lon="5.90027">
        <ele>234.41470297707</ele>
        <time>2022-05-21T19:48:32.797Z</time>
      </trkpt>
      <trkpt lat="43.16565" lon="5.90034">
        <ele>235.57170703148</ele>
        <time>2022-05-21T19:48:33.888Z</time>
      </trkpt>
      <trkpt lat="43.16573" lon="5.90042">
        <ele>236.69009270476</ele>
        <time>2022-05-21T19:48:34.981Z</time>
      </trkpt>
      <trkpt lat="43.16582" lon="5.90047">
        <ele>237.80913214023</ele>
        <time>2022-05-21T19:48:36.075Z</time>
      </trkpt>
      <trkpt lat="43.16597" lon="5.90045">
        <ele>239.10804464596</ele>
        <time>2022-05-21T19:48:37.172Z</time>
      </trkpt>
      <trkpt lat="43.16668" lon="5.89999">
        <ele>240.81064765417</ele>
        <time>2022-05-21T19:48:38.281Z</time>
      </trkpt>
      <trkpt lat="43.16691" lon="5.89977">
        <ele>242.2107373081</ele>
        <time>2022-05-21T19:48:39.395Z</time>
      </trkpt>
      <trkpt lat="43.16699" lon="5.89968">
        <ele>243.31087390204</ele>
        <time>2022-05-21T19:48:40.510Z</time>
      </trkpt>
      <trkpt lat="43.16724" lon="5.89948">
        <ele>244.22946045708</ele>
        <time>2022-05-21T19:48:41.630Z</time>
      </trkpt>
      <trkpt lat="43.16754" lon="5.89927">
        <ele>245.40535426354</ele>
        <time>2022-05-21T19:48:42.755Z</time>
      </trkpt>
      <trkpt lat="43.16767" lon="5.89926">
        <ele>246.28765767522</ele>
        <time>2022-05-21T19:48:43.882Z</time>
      </trkpt>
      <trkpt lat="43.16822" lon="5.89937">
        <ele>247.25065533985</ele>
        <time>2022-05-21T19:48:45.018Z</time>
      </trkpt>
      <trkpt lat="43.16832" lon="5.89943">
        <ele>247.95312862929</ele>
        <time>2022-05-21T19:48:46.156Z</time>
      </trkpt>
      <trkpt lat="43.16847" lon="5.89951">
        <ele>248.60518369132</ele>
        <time>2022-05-21T19:48:47.297Z</time>
      </trkpt>
      <trkpt lat="43.16856" lon="5.89949">
        <ele>249.30949768694</ele>
        <time>2022-05-21T19:48:48.439Z</time>
      </trkpt>
      <trkpt lat="43.16866" lon="5.89936">
        <ele>250.10696726905</ele>
        <time>2022-05-21T19:48:49.583Z</time>
      </trkpt>
      <trkpt lat="43.1688" lon="5.89923">
        <ele>250.77552763355</ele>
        <time>2022-05-21T19:48:50.730Z</time>
      </trkpt>
      <trkpt lat="43.1689" lon="5.89923">
        <ele>251.36123882762</ele>
        <time>2022-05-21T19:48:51.879Z</time>
      </trkpt>
      <trkpt lat="43.16897" lon="5.89935">
        <ele>251.9191178206</ele>
        <time>2022-05-21T19:48:53.029Z</time>
      </trkpt>
      <trkpt lat="43.16897" lon="5.89935">
        <ele>252.41171497038</ele>
        <time>2022-05-21T19:48:54.179Z</time>
      </trkpt>
      <trkpt lat="43.16897" lon="5.89943">
        <ele>252.93915025941</ele>
        <time>2022-05-21T19:48:55.330Z</time>
      </trkpt>
      <trkpt lat="43.16891" lon="5.89965">
        <ele>253.38160941066</ele>
        <time>2022-05-21T19:48:56.484Z</time>
      </trkpt>
      <trkpt lat="43.16883" lon="5.89983">
        <ele>253.83174701121</ele>
        <time>2022-05-21T19:48:57.641Z</time>
      </trkpt>
      <trkpt lat="43.16871" lon="5.89999">
        <ele>254.22250125483</ele>
        <time>2022-05-21T19:48:58.800Z</time>
      </trkpt>
      <trkpt lat="43.16847" lon="5.90023">
        <ele>254.53410326874</ele>
        <time>2022-05-21T19:48:59.964Z</time>
      </trkpt>
      <trkpt lat="43.16839" lon="5.90034">
        <ele>255.24077305587</ele>
        <time>2022-05-21T19:49:01.130Z</time>
      </trkpt>
      <trkpt lat="43.16835" lon="5.90044">
        <ele>256.05316421375</ele>
        <time>2022-05-21T19:49:02.297Z</time>
      </trkpt>
      <trkpt lat="43.16835" lon="5.90054">
        <ele>257.05819705413</ele>
        <time>2022-05-21T19:49:03.465Z</time>
      </trkpt>
      <trkpt lat="43.16837" lon="5.90063">
        <ele>258.22138237069</ele>
        <time>2022-05-21T19:49:04.635Z</time>
      </trkpt>
      <trkpt lat="43.16842" lon="5.9007">
        <ele>259.46304726198</ele>
        <time>2022-05-21T19:49:05.806Z</time>
      </trkpt>
      <trkpt lat="43.16847" lon="5.90074">
        <ele>260.79974587638</ele>
        <time>2022-05-21T19:49:06.978Z</time>
      </trkpt>
      <trkpt lat="43.16859" lon="5.90075">
        <ele>262.27235390749</ele>
        <time>2022-05-21T19:49:08.151Z</time>
      </trkpt>
      <trkpt lat="43.16868" lon="5.9007">
        <ele>263.86963886828</ele>
        <time>2022-05-21T19:49:09.326Z</time>
      </trkpt>
      <trkpt lat="43.1689" lon="5.90048">
        <ele>265.78998565087</ele>
        <time>2022-05-21T19:49:10.505Z</time>
      </trkpt>
      <trkpt lat="43.16939" lon="5.89952">
        <ele>268.18655150809</ele>
        <time>2022-05-21T19:49:11.698Z</time>
      </trkpt>
      <trkpt lat="43.1695" lon="5.89927">
        <ele>269.91915196672</ele>
        <time>2022-05-21T19:49:12.895Z</time>
      </trkpt>
      <trkpt lat="43.16964" lon="5.89887">
        <ele>271.79292364257</ele>
        <time>2022-05-21T19:49:14.097Z</time>
      </trkpt>
      <trkpt lat="43.16971" lon="5.89856">
        <ele>273.62980510318</ele>
        <time>2022-05-21T19:49:15.303Z</time>
      </trkpt>
      <trkpt lat="43.16976" lon="5.8983">
        <ele>275.47025810604</ele>
        <time>2022-05-21T19:49:16.512Z</time>
      </trkpt>
      <trkpt lat="43.16977" lon="5.89789">
        <ele>277.23457236434</ele>
        <time>2022-05-21T19:49:17.726Z</time>
      </trkpt>
      <trkpt lat="43.1698" lon="5.89761">
        <ele>279.12405145148</ele>
        <time>2022-05-21T19:49:18.943Z</time>
      </trkpt>
      <trkpt lat="43.16979" lon="5.89745">
        <ele>280.76629173419</ele>
        <time>2022-05-21T19:49:20.162Z</time>
      </trkpt>
      <trkpt lat="43.1697" lon="5.89733">
        <ele>282.10006995448</ele>
        <time>2022-05-21T19:49:21.383Z</time>
      </trkpt>
      <trkpt lat="43.16959" lon="5.89722">
        <ele>283.35780344927</ele>
        <time>2022-05-21T19:49:22.606Z</time>
      </trkpt>
      <trkpt lat="43.16948" lon="5.89694">
        <ele>284.67223926652</ele>
        <time>2022-05-21T19:49:23.833Z</time>
      </trkpt>
      <trkpt lat="43.16935" lon="5.89669">
        <ele>285.86435149406</ele>
        <time>2022-05-21T19:49:25.063Z</time>
      </trkpt>
      <trkpt lat="43.16936" lon="5.89656">
        <ele>287.15601492225</ele>
        <time>2022-05-21T19:49:26.295Z</time>
      </trkpt>
      <trkpt lat="43.16944" lon="5.89646">
        <ele>288.47485976819</ele>
        <time>2022-05-21T19:49:27.528Z</time>
      </trkpt>
      <trkpt lat="43.16951" lon="5.89645">
        <ele>289.66780193215</ele>
        <time>2022-05-21T19:49:28.763Z</time>
      </trkpt>
      <trkpt lat="43.16956" lon="5.89656">
        <ele>290.67583163873</ele>
        <time>2022-05-21T19:49:29.999Z</time>
      </trkpt>
      <trkpt lat="43.16957" lon="5.89678">
        <ele>291.49077042833</ele>
        <time>2022-05-21T19:49:31.238Z</time>
      </trkpt>
      <trkpt lat="43.1696" lon="5.89695">
        <ele>292.32756948822</ele>
        <time>2022-05-21T19:49:32.479Z</time>
      </trkpt>
      <trkpt lat="43.16965" lon="5.89706">
        <ele>293.19719784387</ele>
        <time>2022-05-21T19:49:33.721Z</time>
      </trkpt>
      <trkpt lat="43.16988" lon="5.89723">
        <ele>294.32783528861</ele>
        <time>2022-05-21T19:49:34.968Z</time>
      </trkpt>
      <trkpt lat="43.17001" lon="5.8975">
        <ele>295.1990353676</ele>
        <time>2022-05-21T19:49:36.218Z</time>
      </trkpt>
      <trkpt lat="43.17003" lon="5.89767">
        <ele>295.87622055983</ele>
        <time>2022-05-21T19:49:37.470Z</time>
      </trkpt>
      <trkpt lat="43.17" lon="5.89786">
        <ele>296.37437008803</ele>
        <time>2022-05-21T19:49:38.725Z</time>
      </trkpt>
      <trkpt lat="43.17003" lon="5.89826">
        <ele>297.01640601213</ele>
        <time>2022-05-21T19:49:39.984Z</time>
      </trkpt>
      <trkpt lat="43.17008" lon="5.89866">
        <ele>297.74686079247</ele>
        <time>2022-05-21T19:49:41.248Z</time>
      </trkpt>
      <trkpt lat="43.17006" lon="5.89893">
        <ele>298.16095771627</ele>
        <time>2022-05-21T19:49:42.515Z</time>
      </trkpt>
      <trkpt lat="43.16998" lon="5.89915">
        <ele>298.57465584703</ele>
        <time>2022-05-21T19:49:43.785Z</time>
      </trkpt>
      <trkpt lat="43.1699" lon="5.89928">
        <ele>298.97750368584</ele>
        <time>2022-05-21T19:49:45.057Z</time>
      </trkpt>
      <trkpt lat="43.16989" lon="5.89937">
        <ele>299.63519313819</ele>
        <time>2022-05-21T19:49:46.330Z</time>
      </trkpt>
      <trkpt lat="43.16992" lon="5.89944">
        <ele>300.42384791465</ele>
        <time>2022-05-21T19:49:47.604Z</time>
      </trkpt>
      <trkpt lat="43.16999" lon="5.89948">
        <ele>301.31421597334</ele>
        <time>2022-05-21T19:49:48.879Z</time>
      </trkpt>
      <trkpt lat="43.17005" lon="5.89942">
        <ele>302.05365298096</ele>
        <time>2022-05-21T19:49:50.156Z</time>
      </trkpt>
      <trkpt lat="43.17008" lon="5.89926">
        <ele>302.62732186857</ele>
        <time>2022-05-21T19:49:51.434Z</time>
      </trkpt>
      <trkpt lat="43.17009" lon="5.89907">
        <ele>303.26537017122</ele>
        <time>2022-05-21T19:49:52.715Z</time>
      </trkpt>
      <trkpt lat="43.17018" lon="5.89881">
        <ele>304.35717134023</ele>
        <time>2022-05-21T19:49:53.999Z</time>
      </trkpt>
      <trkpt lat="43.17015" lon="5.89842">
        <ele>305.16338713066</ele>
        <time>2022-05-21T19:49:55.288Z</time>
      </trkpt>
      <trkpt lat="43.17011" lon="5.89813">
        <ele>305.88956903657</ele>
        <time>2022-05-21T19:49:56.580Z</time>
      </trkpt>
      <trkpt lat="43.17014" lon="5.8979">
        <ele>306.91784904275</ele>
        <time>2022-05-21T19:49:57.875Z</time>
      </trkpt>
      <trkpt lat="43.17025" lon="5.89754">
        <ele>308.31126075103</ele>
        <time>2022-05-21T19:49:59.174Z</time>
      </trkpt>
      <trkpt lat="43.17025" lon="5.89746">
        <ele>309.49773574319</ele>
        <time>2022-05-21T19:50:00.474Z</time>
      </trkpt>
      <trkpt lat="43.17014" lon="5.89705">
        <ele>310.76394880874</ele>
        <time>2022-05-21T19:50:01.779Z</time>
      </trkpt>
      <trkpt lat="43.17004" lon="5.89677">
        <ele>311.812395792</ele>
        <time>2022-05-21T19:50:03.088Z</time>
      </trkpt>
      <trkpt lat="43.17003" lon="5.89665">
        <ele>313.14706440213</ele>
        <time>2022-05-21T19:50:04.399Z</time>
      </trkpt>
      <trkpt lat="43.17019" lon="5.89605">
        <ele>315.00482074007</ele>
        <time>2022-05-21T19:50:05.717Z</time>
      </trkpt>
      <trkpt lat="43.17016" lon="5.89595">
        <ele>316.38226596581</ele>
        <time>2022-05-21T19:50:07.036Z</time>
      </trkpt>
      <trkpt lat="43.17012" lon="5.89587">
        <ele>317.8317367962</ele>
        <time>2022-05-21T19:50:08.356Z</time>
      </trkpt>
      <trkpt lat="43.16989" lon="5.89567">
        <ele>319.01985491577</ele>
        <time>2022-05-21T19:50:09.681Z</time>
      </trkpt>
      <trkpt lat="43.16983" lon="5.89555">
        <ele>320.62312441007</ele>
        <time>2022-05-21T19:50:11.008Z</time>
      </trkpt>
      <trkpt lat="43.16979" lon="5.89524">
        <ele>322.48214798066</ele>
        <time>2022-05-21T19:50:12.338Z</time>
      </trkpt>
      <trkpt lat="43.16975" lon="5.89482">
        <ele>324.42364792257</ele>
        <time>2022-05-21T19:50:13.673Z</time>
      </trkpt>
      <trkpt lat="43.16971" lon="5.89436">
        <ele>326.5212968837</ele>
        <time>2022-05-21T19:50:15.014Z</time>
      </trkpt>
      <trkpt lat="43.16972" lon="5.8937">
        <ele>328.4660292981</ele>
        <time>2022-05-21T19:50:16.362Z</time>
      </trkpt>
      <trkpt lat="43.16971" lon="5.89228">
        <ele>330.46328783817</ele>
        <time>2022-05-21T19:50:17.727Z</time>
      </trkpt>
      <trkpt lat="43.16971" lon="5.89228">
        <ele>332.22991342686</ele>
        <time>2022-05-21T19:50:19.092Z</time>
      </trkpt>
      <trkpt lat="43.16966" lon="5.89158">
        <ele>334.09797297323</ele>
        <time>2022-05-21T19:50:20.465Z</time>
      </trkpt>
      <trkpt lat="43.16968" lon="5.89056">
        <ele>336.29946045864</ele>
        <time>2022-05-21T19:50:21.850Z</time>
      </trkpt>
      <trkpt lat="43.16965" lon="5.89043">
        <ele>338.05385026595</ele>
        <time>2022-05-21T19:50:23.237Z</time>
      </trkpt>
      <trkpt lat="43.16961" lon="5.89036">
        <ele>339.71855228876</ele>
        <time>2022-05-21T19:50:24.625Z</time>
      </trkpt>
      <trkpt lat="43.16944" lon="5.89016">
        <ele>341.31197260094</ele>
        <time>2022-05-21T19:50:26.016Z</time>
      </trkpt>
      <trkpt lat="43.16908" lon="5.88961">
        <ele>342.92312312644</ele>
        <time>2022-05-21T19:50:27.416Z</time>
      </trkpt>
      <trkpt lat="43.16903" lon="5.8895">
        <ele>344.4903690005</ele>
        <time>2022-05-21T19:50:28.818Z</time>
      </trkpt>
      <trkpt lat="43.16904" lon="5.8894">
        <ele>346.04297500594</ele>
        <time>2022-05-21T19:50:30.221Z</time>
      </trkpt>
      <trkpt lat="43.16909" lon="5.88936">
        <ele>347.5357954985</ele>
        <time>2022-05-21T19:50:31.625Z</time>
      </trkpt>
      <trkpt lat="43.16917" lon="5.88934">
        <ele>349.02471388321</ele>
        <time>2022-05-21T19:50:33.030Z</time>
      </trkpt>
      <trkpt lat="43.16924" lon="5.88938">
        <ele>350.4250294601</ele>
        <time>2022-05-21T19:50:34.436Z</time>
      </trkpt>
      <trkpt lat="43.16933" lon="5.88962">
        <ele>351.62461450646</ele>
        <time>2022-05-21T19:50:35.845Z</time>
      </trkpt>
      <trkpt lat="43.16952" lon="5.88992">
        <ele>352.90877611495</ele>
        <time>2022-05-21T19:50:37.259Z</time>
      </trkpt>
      <trkpt lat="43.16974" lon="5.89002">
        <ele>354.28549068496</ele>
        <time>2022-05-21T19:50:38.677Z</time>
      </trkpt>
      <trkpt lat="43.16993" lon="5.89">
        <ele>355.69123115104</ele>
        <time>2022-05-21T19:50:40.098Z</time>
      </trkpt>
      <trkpt lat="43.17005" lon="5.89002">
        <ele>357.01976972135</ele>
        <time>2022-05-21T19:50:41.521Z</time>
      </trkpt>
      <trkpt lat="43.1701" lon="5.89011">
        <ele>358.25592005639</ele>
        <time>2022-05-21T19:50:42.945Z</time>
      </trkpt>
      <trkpt lat="43.17012" lon="5.89023">
        <ele>359.4967261598</ele>
        <time>2022-05-21T19:50:44.370Z</time>
      </trkpt>
      <trkpt lat="43.17014" lon="5.89039">
        <ele>360.72228510505</ele>
        <time>2022-05-21T19:50:45.797Z</time>
      </trkpt>
      <trkpt lat="43.17028" lon="5.89091">
        <ele>362.32901475312</ele>
        <time>2022-05-21T19:50:47.231Z</time>
      </trkpt>
      <trkpt lat="43.17027" lon="5.89125">
        <ele>363.53475576887</ele>
        <time>2022-05-21T19:50:48.669Z</time>
      </trkpt>
      <trkpt lat="43.17028" lon="5.89145">
        <ele>364.84000497987</ele>
        <time>2022-05-21T19:50:50.109Z</time>
      </trkpt>
      <trkpt lat="43.17049" lon="5.89211">
        <ele>366.57986364197</ele>
        <time>2022-05-21T19:50:51.557Z</time>
      </trkpt>
      <trkpt lat="43.17053" lon="5.89231">
        <ele>368.04851611078</ele>
        <time>2022-05-21T19:50:53.008Z</time>
      </trkpt>
      <trkpt lat="43.1705" lon="5.89267">
        <ele>369.32937484893</ele>
        <time>2022-05-21T19:50:54.463Z</time>
      </trkpt>
      <trkpt lat="43.1705" lon="5.89312">
        <ele>370.67669232391</ele>
        <time>2022-05-21T19:50:55.924Z</time>
      </trkpt>
      <trkpt lat="43.17049" lon="5.89335">
        <ele>371.99586818154</ele>
        <time>2022-05-21T19:50:57.387Z</time>
      </trkpt>
      <trkpt lat="43.1705" lon="5.89344">
        <ele>373.44651207701</ele>
        <time>2022-05-21T19:50:58.851Z</time>
      </trkpt>
      <trkpt lat="43.17055" lon="5.89348">
        <ele>375.10045127236</ele>
        <time>2022-05-21T19:51:00.316Z</time>
      </trkpt>
      <trkpt lat="43.17062" lon="5.89344">
        <ele>376.80410915521</ele>
        <time>2022-05-21T19:51:01.782Z</time>
      </trkpt>
      <trkpt lat="43.17063" lon="5.8933">
        <ele>378.40271758845</ele>
        <time>2022-05-21T19:51:03.250Z</time>
      </trkpt>
      <trkpt lat="43.17059" lon="5.89307">
        <ele>379.86538501376</ele>
        <time>2022-05-21T19:51:04.721Z</time>
      </trkpt>
      <trkpt lat="43.17059" lon="5.89283">
        <ele>381.44197847044</ele>
        <time>2022-05-21T19:51:06.194Z</time>
      </trkpt>
      <trkpt lat="43.17065" lon="5.89256">
        <ele>383.09352516221</ele>
        <time>2022-05-21T19:51:07.671Z</time>
      </trkpt>
      <trkpt lat="43.17074" lon="5.8922">
        <ele>384.92438033614</ele>
        <time>2022-05-21T19:51:09.152Z</time>
      </trkpt>
      <trkpt lat="43.1707" lon="5.89171">
        <ele>386.24024849134</ele>
        <time>2022-05-21T19:51:10.639Z</time>
      </trkpt>
      <trkpt lat="43.1707" lon="5.89132">
        <ele>387.81726452595</ele>
        <time>2022-05-21T19:51:12.131Z</time>
      </trkpt>
      <trkpt lat="43.17074" lon="5.89108">
        <ele>389.36657371819</ele>
        <time>2022-05-21T19:51:13.626Z</time>
      </trkpt>
      <trkpt lat="43.17084" lon="5.89088">
        <ele>390.98229166499</ele>
        <time>2022-05-21T19:51:15.123Z</time>
      </trkpt>
      <trkpt lat="43.17086" lon="5.89074">
        <ele>392.34755954738</ele>
        <time>2022-05-21T19:51:16.622Z</time>
      </trkpt>
      <trkpt lat="43.17079" lon="5.89018">
        <ele>393.44311952754</ele>
        <time>2022-05-21T19:51:18.128Z</time>
      </trkpt>
      <trkpt lat="43.17085" lon="5.88925">
        <ele>395.07886984887</ele>
        <time>2022-05-21T19:51:19.645Z</time>
      </trkpt>
      <trkpt lat="43.17084" lon="5.88908">
        <ele>396.05810722138</ele>
        <time>2022-05-21T19:51:21.164Z</time>
      </trkpt>
      <trkpt lat="43.17074" lon="5.88892">
        <ele>396.68507428263</ele>
        <time>2022-05-21T19:51:22.685Z</time>
      </trkpt>
      <trkpt lat="43.17057" lon="5.88877">
        <ele>397.18019119419</ele>
        <time>2022-05-21T19:51:24.209Z</time>
      </trkpt>
      <trkpt lat="43.17041" lon="5.88859">
        <ele>397.6344147439</ele>
        <time>2022-05-21T19:51:25.737Z</time>
      </trkpt>
      <trkpt lat="43.17034" lon="5.88841">
        <ele>398.06322114425</ele>
        <time>2022-05-21T19:51:27.267Z</time>
      </trkpt>
      <trkpt lat="43.17033" lon="5.88831">
        <ele>398.2795725152</ele>
        <time>2022-05-21T19:51:28.798Z</time>
      </trkpt>
      <trkpt lat="43.17036" lon="5.88815">
        <ele>398.29244378503</ele>
        <time>2022-05-21T19:51:30.331Z</time>
      </trkpt>
      <trkpt lat="43.17038" lon="5.88802">
        <ele>398.1149292026</ele>
        <time>2022-05-21T19:51:31.866Z</time>
      </trkpt>
      <trkpt lat="43.1704" lon="5.88789">
        <ele>397.75180346017</ele>
        <time>2022-05-21T19:51:33.402Z</time>
      </trkpt>
      <trkpt lat="43.17049" lon="5.8877">
        <ele>397.11480797458</ele>
        <time>2022-05-21T19:51:34.941Z</time>
      </trkpt>
      <trkpt lat="43.17063" lon="5.88752">
        <ele>396.38456165413</ele>
        <time>2022-05-21T19:51:36.483Z</time>
      </trkpt>
      <trkpt lat="43.17063" lon="5.88752">
        <ele>395.43900071504</ele>
        <time>2022-05-21T19:51:38.025Z</time>
      </trkpt>
      <trkpt lat="43.17077" lon="5.88737">
        <ele>394.29293464411</ele>
        <time>2022-05-21T19:51:39.570Z</time>
      </trkpt>
      <trkpt lat="43.17091" lon="5.88704">
        <ele>392.98081929715</ele>
        <time>2022-05-21T19:51:41.119Z</time>
      </trkpt>
      <trkpt lat="43.17115" lon="5.88603">
        <ele>391.05827608567</ele>
        <time>2022-05-21T19:51:42.681Z</time>
      </trkpt>
      <trkpt lat="43.17128" lon="5.88582">
        <ele>389.26768807415</ele>
        <time>2022-05-21T19:51:44.246Z</time>
      </trkpt>
      <trkpt lat="43.17189" lon="5.88528">
        <ele>387.55937731247</ele>
        <time>2022-05-21T19:51:45.823Z</time>
      </trkpt>
      <trkpt lat="43.1723" lon="5.88484">
        <ele>385.23544012471</ele>
        <time>2022-05-21T19:51:47.408Z</time>
      </trkpt>
      <trkpt lat="43.17275" lon="5.88454">
        <ele>383.0657153638</ele>
        <time>2022-05-21T19:51:49.001Z</time>
      </trkpt>
      <trkpt lat="43.17304" lon="5.88424">
        <ele>380.67102674864</ele>
        <time>2022-05-21T19:51:50.600Z</time>
      </trkpt>
      <trkpt lat="43.17316" lon="5.88419">
        <ele>378.50372313951</ele>
        <time>2022-05-21T19:51:52.201Z</time>
      </trkpt>
      <trkpt lat="43.1733" lon="5.88425">
        <ele>376.44246500654</ele>
        <time>2022-05-21T19:51:53.804Z</time>
      </trkpt>
      <trkpt lat="43.17337" lon="5.88427">
        <ele>374.25767035092</ele>
        <time>2022-05-21T19:51:55.408Z</time>
      </trkpt>
      <trkpt lat="43.17337" lon="5.88427">
        <ele>371.95170362698</ele>
        <time>2022-05-21T19:51:57.012Z</time>
      </trkpt>
      <trkpt lat="43.17349" lon="5.88421">
        <ele>369.60120104485</ele>
        <time>2022-05-21T19:51:58.618Z</time>
      </trkpt>
      <trkpt lat="43.17376" lon="5.88381">
        <ele>367.11356307083</ele>
        <time>2022-05-21T19:52:00.231Z</time>
      </trkpt>
      <trkpt lat="43.17384" lon="5.88359">
        <ele>364.61095842535</ele>
        <time>2022-05-21T19:52:01.847Z</time>
      </trkpt>
      <trkpt lat="43.17388" lon="5.88315">
        <ele>361.83534576228</ele>
        <time>2022-05-21T19:52:03.468Z</time>
      </trkpt>
      <trkpt lat="43.17394" lon="5.88278">
        <ele>359.19935555863</ele>
        <time>2022-05-21T19:52:05.093Z</time>
      </trkpt>
      <trkpt lat="43.17445" lon="5.8806">
        <ele>355.98552016709</ele>
        <time>2022-05-21T19:52:06.745Z</time>
      </trkpt>
      <trkpt lat="43.17445" lon="5.8806">
        <ele>353.46225081911</ele>
        <time>2022-05-21T19:52:08.397Z</time>
      </trkpt>
      <trkpt lat="43.17454" lon="5.88017">
        <ele>350.92420170851</ele>
        <time>2022-05-21T19:52:10.054Z</time>
      </trkpt>
      <trkpt lat="43.17454" lon="5.88017">
        <ele>348.40612711747</ele>
        <time>2022-05-21T19:52:11.711Z</time>
      </trkpt>
      <trkpt lat="43.17459" lon="5.87998">
        <ele>345.89534206208</ele>
        <time>2022-05-21T19:52:13.371Z</time>
      </trkpt>
      <trkpt lat="43.17479" lon="5.87882">
        <ele>343.33452675039</ele>
        <time>2022-05-21T19:52:15.045Z</time>
      </trkpt>
      <trkpt lat="43.17479" lon="5.87882">
        <ele>340.83137546014</ele>
        <time>2022-05-21T19:52:16.719Z</time>
      </trkpt>
      <trkpt lat="43.17484" lon="5.8785">
        <ele>338.24307789282</ele>
        <time>2022-05-21T19:52:18.396Z</time>
      </trkpt>
      <trkpt lat="43.17486" lon="5.87842">
        <ele>335.72770936533</ele>
        <time>2022-05-21T19:52:20.074Z</time>
      </trkpt>
      <trkpt lat="43.17492" lon="5.87819">
        <ele>333.16106489065</ele>
        <time>2022-05-21T19:52:21.755Z</time>
      </trkpt>
      <trkpt lat="43.17516" lon="5.87702">
        <ele>330.17078320319</ele>
        <time>2022-05-21T19:52:23.451Z</time>
      </trkpt>
      <trkpt lat="43.17519" lon="5.87677">
        <ele>327.66040464466</ele>
        <time>2022-05-21T19:52:25.149Z</time>
      </trkpt>
      <trkpt lat="43.17516" lon="5.87654">
        <ele>325.12466350397</ele>
        <time>2022-05-21T19:52:26.850Z</time>
      </trkpt>
      <trkpt lat="43.17506" lon="5.87622">
        <ele>322.49765955108</ele>
        <time>2022-05-21T19:52:28.555Z</time>
      </trkpt>
      <trkpt lat="43.17496" lon="5.87596">
        <ele>319.99277890774</ele>
        <time>2022-05-21T19:52:30.264Z</time>
      </trkpt>
      <trkpt lat="43.17494" lon="5.87577">
        <ele>317.61209736824</ele>
        <time>2022-05-21T19:52:31.975Z</time>
      </trkpt>
      <trkpt lat="43.17498" lon="5.87557">
        <ele>315.33565686096</ele>
        <time>2022-05-21T19:52:33.688Z</time>
      </trkpt>
      <trkpt lat="43.17539" lon="5.87504">
        <ele>312.89602114945</ele>
        <time>2022-05-21T19:52:35.410Z</time>
      </trkpt>
      <trkpt lat="43.17543" lon="5.87495">
        <ele>310.73294280367</ele>
        <time>2022-05-21T19:52:37.134Z</time>
      </trkpt>
      <trkpt lat="43.17546" lon="5.87486">
        <ele>308.63797843494</ele>
        <time>2022-05-21T19:52:38.859Z</time>
      </trkpt>
      <trkpt lat="43.17541" lon="5.87474">
        <ele>306.62927126561</ele>
        <time>2022-05-21T19:52:40.586Z</time>
      </trkpt>
      <trkpt lat="43.17529" lon="5.87458">
        <ele>304.70197112018</ele>
        <time>2022-05-21T19:52:42.315Z</time>
      </trkpt>
      <trkpt lat="43.17522" lon="5.87434">
        <ele>302.82715406067</ele>
        <time>2022-05-21T19:52:44.047Z</time>
      </trkpt>
      <trkpt lat="43.17518" lon="5.87407">
        <ele>301.02588958716</ele>
        <time>2022-05-21T19:52:45.782Z</time>
      </trkpt>
      <trkpt lat="43.17515" lon="5.87363">
        <ele>299.26862365293</ele>
        <time>2022-05-21T19:52:47.523Z</time>
      </trkpt>
      <trkpt lat="43.17514" lon="5.87292">
        <ele>297.57696673191</ele>
        <time>2022-05-21T19:52:49.272Z</time>
      </trkpt>
      <trkpt lat="43.17509" lon="5.87277">
        <ele>296.0357835456</ele>
        <time>2022-05-21T19:52:51.023Z</time>
      </trkpt>
      <trkpt lat="43.17509" lon="5.87277">
        <ele>294.59596518655</ele>
        <time>2022-05-21T19:52:52.774Z</time>
      </trkpt>
      <trkpt lat="43.17502" lon="5.87268">
        <ele>293.23493089915</ele>
        <time>2022-05-21T19:52:54.526Z</time>
      </trkpt>
      <trkpt lat="43.17503" lon="5.87268">
        <ele>291.96926425867</ele>
        <time>2022-05-21T19:52:56.278Z</time>
      </trkpt>
      <trkpt lat="43.17391" lon="5.87145">
        <ele>290.40968234355</ele>
        <time>2022-05-21T19:52:58.053Z</time>
      </trkpt>
      <trkpt lat="43.17391" lon="5.87145">
        <ele>289.34349470731</ele>
        <time>2022-05-21T19:52:59.828Z</time>
      </trkpt>
      <trkpt lat="43.17366" lon="5.87084">
        <ele>288.23619276538</ele>
        <time>2022-05-21T19:53:01.611Z</time>
      </trkpt>
      <trkpt lat="43.17364" lon="5.87072">
        <ele>287.38253658668</ele>
        <time>2022-05-21T19:53:03.396Z</time>
      </trkpt>
      <trkpt lat="43.17364" lon="5.87072">
        <ele>286.67564586646</ele>
        <time>2022-05-21T19:53:05.181Z</time>
      </trkpt>
      <trkpt lat="43.17362" lon="5.87057">
        <ele>286.06789828198</ele>
        <time>2022-05-21T19:53:06.968Z</time>
      </trkpt>
      <trkpt lat="43.17353" lon="5.87051">
        <ele>285.60408092183</ele>
        <time>2022-05-21T19:53:08.756Z</time>
      </trkpt>
      <trkpt lat="43.17333" lon="5.87005">
        <ele>285.24410748187</ele>
        <time>2022-05-21T19:53:10.551Z</time>
      </trkpt>
      <trkpt lat="43.17298" lon="5.86872">
        <ele>284.98588319899</ele>
        <time>2022-05-21T19:53:12.362Z</time>
      </trkpt>
      <trkpt lat="43.17287" lon="5.86817">
        <ele>284.75617509187</ele>
        <time>2022-05-21T19:53:14.180Z</time>
      </trkpt>
      <trkpt lat="43.17278" lon="5.86768">
        <ele>284.81390018558</ele>
        <time>2022-05-21T19:53:16.004Z</time>
      </trkpt>
      <trkpt lat="43.17272" lon="5.8673">
        <ele>285.30229300603</ele>
        <time>2022-05-21T19:53:17.832Z</time>
      </trkpt>
      <trkpt lat="43.17269" lon="5.86718">
        <ele>285.92215488224</ele>
        <time>2022-05-21T19:53:19.662Z</time>
      </trkpt>
      <trkpt lat="43.17268" lon="5.86716">
        <ele>286.6266979021</ele>
        <time>2022-05-21T19:53:21.492Z</time>
      </trkpt>
      <trkpt lat="43.17258" lon="5.86696">
        <ele>287.63477488884</ele>
        <time>2022-05-21T19:53:23.325Z</time>
      </trkpt>
      <trkpt lat="43.17246" lon="5.86685">
        <ele>288.71491352152</ele>
        <time>2022-05-21T19:53:25.160Z</time>
      </trkpt>
      <trkpt lat="43.17154" lon="5.86638">
        <ele>290.02673400795</ele>
        <time>2022-05-21T19:53:27.011Z</time>
      </trkpt>
      <trkpt lat="43.17144" lon="5.86637">
        <ele>291.34305567624</ele>
        <time>2022-05-21T19:53:28.863Z</time>
      </trkpt>
      <trkpt lat="43.17137" lon="5.86639">
        <ele>292.77727821047</ele>
        <time>2022-05-21T19:53:30.717Z</time>
      </trkpt>
      <trkpt lat="43.17128" lon="5.86645">
        <ele>294.2989985885</ele>
        <time>2022-05-21T19:53:32.572Z</time>
      </trkpt>
      <trkpt lat="43.17123" lon="5.86656">
        <ele>295.9200274837</ele>
        <time>2022-05-21T19:53:34.429Z</time>
      </trkpt>
      <trkpt lat="43.17112" lon="5.8671">
        <ele>297.77611078178</ele>
        <time>2022-05-21T19:53:36.292Z</time>
      </trkpt>
      <trkpt lat="43.17107" lon="5.86724">
        <ele>299.54440299871</ele>
        <time>2022-05-21T19:53:38.157Z</time>
      </trkpt>
      <trkpt lat="43.17055" lon="5.8682">
        <ele>301.38187159234</ele>
        <time>2022-05-21T19:53:40.036Z</time>
      </trkpt>
      <trkpt lat="43.17043" lon="5.86828">
        <ele>303.2907583065</ele>
        <time>2022-05-21T19:53:41.917Z</time>
      </trkpt>
      <trkpt lat="43.1703" lon="5.86827">
        <ele>305.16498986288</ele>
        <time>2022-05-21T19:53:43.800Z</time>
      </trkpt>
      <trkpt lat="43.17021" lon="5.86815">
        <ele>307.06369725937</ele>
        <time>2022-05-21T19:53:45.685Z</time>
      </trkpt>
      <trkpt lat="43.16951" lon="5.86626">
        <ele>309.60723121273</ele>
        <time>2022-05-21T19:53:47.595Z</time>
      </trkpt>
      <trkpt lat="43.1694" lon="5.86604">
        <ele>311.4080209261</ele>
        <time>2022-05-21T19:53:49.508Z</time>
      </trkpt>
      <trkpt lat="43.16925" lon="5.86586">
        <ele>313.11949820697</ele>
        <time>2022-05-21T19:53:51.424Z</time>
      </trkpt>
      <trkpt lat="43.16909" lon="5.86563">
        <ele>314.84478968432</ele>
        <time>2022-05-21T19:53:53.344Z</time>
      </trkpt>
      <trkpt lat="43.16891" lon="5.86529">
        <ele>316.51167088521</ele>
        <time>2022-05-21T19:53:55.269Z</time>
      </trkpt>
      <trkpt lat="43.16878" lon="5.86494">
        <ele>318.21571207495</ele>
        <time>2022-05-21T19:53:57.199Z</time>
      </trkpt>
      <trkpt lat="43.16866" lon="5.86423">
        <ele>319.98945386139</ele>
        <time>2022-05-21T19:53:59.137Z</time>
      </trkpt>
      <trkpt lat="43.16848" lon="5.86368">
        <ele>321.15307485967</ele>
        <time>2022-05-21T19:54:01.082Z</time>
      </trkpt>
      <trkpt lat="43.16848" lon="5.86345">
        <ele>322.57990853448</ele>
        <time>2022-05-21T19:54:03.030Z</time>
      </trkpt>
      <trkpt lat="43.16856" lon="5.8627">
        <ele>324.14940515587</ele>
        <time>2022-05-21T19:54:04.987Z</time>
      </trkpt>
      <trkpt lat="43.16856" lon="5.8625">
        <ele>325.35649775646</ele>
        <time>2022-05-21T19:54:06.946Z</time>
      </trkpt>
      <trkpt lat="43.16851" lon="5.8623">
        <ele>326.40826223595</ele>
        <time>2022-05-21T19:54:08.908Z</time>
      </trkpt>
      <trkpt lat="43.16803" lon="5.86115">
        <ele>326.90877315966</ele>
        <time>2022-05-21T19:54:10.885Z</time>
      </trkpt>
      <trkpt lat="43.16801" lon="5.86103">
        <ele>327.66065537994</ele>
        <time>2022-05-21T19:54:12.863Z</time>
      </trkpt>
      <trkpt lat="43.16801" lon="5.86092">
        <ele>328.3570236053</ele>
        <time>2022-05-21T19:54:14.843Z</time>
      </trkpt>
      <trkpt lat="43.16814" lon="5.85997">
        <ele>329.31317998807</ele>
        <time>2022-05-21T19:54:16.834Z</time>
      </trkpt>
      <trkpt lat="43.16813" lon="5.85976">
        <ele>329.82234706239</ele>
        <time>2022-05-21T19:54:18.828Z</time>
      </trkpt>
      <trkpt lat="43.16806" lon="5.85953">
        <ele>330.17498263059</ele>
        <time>2022-05-21T19:54:20.824Z</time>
      </trkpt>
      <trkpt lat="43.16767" lon="5.85881">
        <ele>330.37504645598</ele>
        <time>2022-05-21T19:54:22.831Z</time>
      </trkpt>
      <trkpt lat="43.16759" lon="5.85859">
        <ele>330.2927121026</ele>
        <time>2022-05-21T19:54:24.841Z</time>
      </trkpt>
      <trkpt lat="43.16758" lon="5.85838">
        <ele>330.20679476059</ele>
        <time>2022-05-21T19:54:26.853Z</time>
      </trkpt>
      <trkpt lat="43.16775" lon="5.85717">
        <ele>330.31033175894</ele>
        <time>2022-05-21T19:54:28.880Z</time>
      </trkpt>
      <trkpt lat="43.16777" lon="5.85695">
        <ele>330.34250141224</ele>
        <time>2022-05-21T19:54:30.909Z</time>
      </trkpt>
      <trkpt lat="43.16775" lon="5.85675">
        <ele>330.08530187742</ele>
        <time>2022-05-21T19:54:32.941Z</time>
      </trkpt>
      <trkpt lat="43.16767" lon="5.85662">
        <ele>329.45904330532</ele>
        <time>2022-05-21T19:54:34.975Z</time>
      </trkpt>
      <trkpt lat="43.16705" lon="5.85612">
        <ele>329.0880210529</ele>
        <time>2022-05-21T19:54:37.020Z</time>
      </trkpt>
      <trkpt lat="43.16688" lon="5.85609">
        <ele>328.11293532229</ele>
        <time>2022-05-21T19:54:39.068Z</time>
      </trkpt>
      <trkpt lat="43.1663" lon="5.85617">
        <ele>327.08977840903</ele>
        <time>2022-05-21T19:54:41.125Z</time>
      </trkpt>
      <trkpt lat="43.16607" lon="5.85613">
        <ele>326.24614810034</ele>
        <time>2022-05-21T19:54:43.186Z</time>
      </trkpt>
      <trkpt lat="43.16456" lon="5.85537">
        <ele>325.17306024874</ele>
        <time>2022-05-21T19:54:45.273Z</time>
      </trkpt>
      <trkpt lat="43.16441" lon="5.85526">
        <ele>324.11989015618</ele>
        <time>2022-05-21T19:54:47.362Z</time>
      </trkpt>
      <trkpt lat="43.16391" lon="5.8547">
        <ele>323.12598743804</ele>
        <time>2022-05-21T19:54:49.462Z</time>
      </trkpt>
      <trkpt lat="43.16385" lon="5.8546">
        <ele>322.15478173047</ele>
        <time>2022-05-21T19:54:51.563Z</time>
      </trkpt>
      <trkpt lat="43.1638" lon="5.85443">
        <ele>321.10249739073</ele>
        <time>2022-05-21T19:54:53.667Z</time>
      </trkpt>
      <trkpt lat="43.16379" lon="5.85424">
        <ele>320.03644534404</ele>
        <time>2022-05-21T19:54:55.773Z</time>
      </trkpt>
      <trkpt lat="43.16379" lon="5.85424">
        <ele>319.12622881509</ele>
        <time>2022-05-21T19:54:57.879Z</time>
      </trkpt>
      <trkpt lat="43.16383" lon="5.85404">
        <ele>318.17892113294</ele>
        <time>2022-05-21T19:54:59.987Z</time>
      </trkpt>
      <trkpt lat="43.16408" lon="5.85343">
        <ele>317.61283922303</ele>
        <time>2022-05-21T19:55:02.103Z</time>
      </trkpt>
      <trkpt lat="43.16423" lon="5.85307">
        <ele>317.12840156018</ele>
        <time>2022-05-21T19:55:04.224Z</time>
      </trkpt>
      <trkpt lat="43.16426" lon="5.85288">
        <ele>316.46645886869</ele>
        <time>2022-05-21T19:55:06.347Z</time>
      </trkpt>
      <trkpt lat="43.16422" lon="5.85271">
        <ele>315.80766243658</ele>
        <time>2022-05-21T19:55:08.473Z</time>
      </trkpt>
      <trkpt lat="43.16378" lon="5.85212">
        <ele>314.73015784289</ele>
        <time>2022-05-21T19:55:10.608Z</time>
      </trkpt>
      <trkpt lat="43.16372" lon="5.85198">
        <ele>314.04644635734</ele>
        <time>2022-05-21T19:55:12.745Z</time>
      </trkpt>
      <trkpt lat="43.16372" lon="5.85185">
        <ele>313.47631661251</ele>
        <time>2022-05-21T19:55:14.884Z</time>
      </trkpt>
      <trkpt lat="43.16372" lon="5.85185">
        <ele>313.0111528504</ele>
        <time>2022-05-21T19:55:17.023Z</time>
      </trkpt>
      <trkpt lat="43.16376" lon="5.85173">
        <ele>312.63133736526</ele>
        <time>2022-05-21T19:55:19.163Z</time>
      </trkpt>
      <trkpt lat="43.16499" lon="5.84958">
        <ele>312.20280464045</ele>
        <time>2022-05-21T19:55:21.335Z</time>
      </trkpt>
      <trkpt lat="43.16622" lon="5.84792">
        <ele>311.63076834516</ele>
        <time>2022-05-21T19:55:23.535Z</time>
      </trkpt>
      <trkpt lat="43.16638" lon="5.84774">
        <ele>311.47109607423</ele>
        <time>2022-05-21T19:55:25.738Z</time>
      </trkpt>
      <trkpt lat="43.16656" lon="5.84761">
        <ele>311.45666811073</ele>
        <time>2022-05-21T19:55:27.945Z</time>
      </trkpt>
      <trkpt lat="43.16673" lon="5.84755">
        <ele>311.63301524661</ele>
        <time>2022-05-21T19:55:30.154Z</time>
      </trkpt>
      <trkpt lat="43.16696" lon="5.84753">
        <ele>311.91488874321</ele>
        <time>2022-05-21T19:55:32.367Z</time>
      </trkpt>
      <trkpt lat="43.16714" lon="5.84756">
        <ele>312.29175048322</ele>
        <time>2022-05-21T19:55:34.583Z</time>
      </trkpt>
      <trkpt lat="43.16714" lon="5.84756">
        <ele>312.75887314603</ele>
        <time>2022-05-21T19:55:36.799Z</time>
      </trkpt>
      <trkpt lat="43.16888" lon="5.84785">
        <ele>313.54582971153</ele>
        <time>2022-05-21T19:55:39.043Z</time>
      </trkpt>
      <trkpt lat="43.169" lon="5.84784">
        <ele>314.23132015224</ele>
        <time>2022-05-21T19:55:41.289Z</time>
      </trkpt>
      <trkpt lat="43.16917" lon="5.84776">
        <ele>314.96658316886</ele>
        <time>2022-05-21T19:55:43.538Z</time>
      </trkpt>
      <trkpt lat="43.16921" lon="5.84763">
        <ele>315.74017701261</ele>
        <time>2022-05-21T19:55:45.788Z</time>
      </trkpt>
      <trkpt lat="43.16927" lon="5.84726">
        <ele>316.71069113291</ele>
        <time>2022-05-21T19:55:48.043Z</time>
      </trkpt>
      <trkpt lat="43.16932" lon="5.84701">
        <ele>317.71590623465</ele>
        <time>2022-05-21T19:55:50.301Z</time>
      </trkpt>
      <trkpt lat="43.16935" lon="5.84693">
        <ele>318.59114439514</ele>
        <time>2022-05-21T19:55:52.560Z</time>
      </trkpt>
      <trkpt lat="43.1694" lon="5.84687">
        <ele>319.39366045565</ele>
        <time>2022-05-21T19:55:54.820Z</time>
      </trkpt>
      <trkpt lat="43.16966" lon="5.84674">
        <ele>320.14726498713</ele>
        <time>2022-05-21T19:55:57.085Z</time>
      </trkpt>
      <trkpt lat="43.16972" lon="5.84667">
        <ele>320.89552199525</ele>
        <time>2022-05-21T19:55:59.351Z</time>
      </trkpt>
      <trkpt lat="43.16977" lon="5.84658">
        <ele>321.57638194906</ele>
        <time>2022-05-21T19:56:01.618Z</time>
      </trkpt>
      <trkpt lat="43.1698" lon="5.84644">
        <ele>322.19997890466</ele>
        <time>2022-05-21T19:56:03.887Z</time>
      </trkpt>
      <trkpt lat="43.16984" lon="5.84635">
        <ele>322.69735918939</ele>
        <time>2022-05-21T19:56:06.157Z</time>
      </trkpt>
      <trkpt lat="43.16991" lon="5.84629">
        <ele>323.04183032982</ele>
        <time>2022-05-21T19:56:08.428Z</time>
      </trkpt>
      <trkpt lat="43.17001" lon="5.84625">
        <ele>323.23631650116</ele>
        <time>2022-05-21T19:56:10.701Z</time>
      </trkpt>
      <trkpt lat="43.17013" lon="5.84627">
        <ele>323.26188659849</ele>
        <time>2022-05-21T19:56:12.976Z</time>
      </trkpt>
      <trkpt lat="43.17013" lon="5.84627">
        <ele>323.24295825516</ele>
        <time>2022-05-21T19:56:15.251Z</time>
      </trkpt>
      <trkpt lat="43.17077" lon="5.84645">
        <ele>322.68415694612</ele>
        <time>2022-05-21T19:56:17.536Z</time>
      </trkpt>
      <trkpt lat="43.17128" lon="5.8466">
        <ele>322.5787583948</ele>
        <time>2022-05-21T19:56:19.830Z</time>
      </trkpt>
      <trkpt lat="43.17202" lon="5.84677">
        <ele>322.35910563015</ele>
        <time>2022-05-21T19:56:22.136Z</time>
      </trkpt>
      <trkpt lat="43.17228" lon="5.8468">
        <ele>321.84837029551</ele>
        <time>2022-05-21T19:56:24.446Z</time>
      </trkpt>
      <trkpt lat="43.17228" lon="5.8468">
        <ele>321.20618695898</ele>
        <time>2022-05-21T19:56:26.756Z</time>
      </trkpt>
      <trkpt lat="43.17242" lon="5.84682">
        <ele>320.42754084652</ele>
        <time>2022-05-21T19:56:29.068Z</time>
      </trkpt>
      <trkpt lat="43.17242" lon="5.84682">
        <ele>319.54629235364</ele>
        <time>2022-05-21T19:56:31.380Z</time>
      </trkpt>
      <trkpt lat="43.17427" lon="5.8471">
        <ele>318.09619963699</ele>
        <time>2022-05-21T19:56:33.722Z</time>
      </trkpt>
      <trkpt lat="43.17445" lon="5.84713">
        <ele>316.7809954979</ele>
        <time>2022-05-21T19:56:36.067Z</time>
      </trkpt>
      <trkpt lat="43.17456" lon="5.84723">
        <ele>315.45739542309</ele>
        <time>2022-05-21T19:56:38.414Z</time>
      </trkpt>
      <trkpt lat="43.17456" lon="5.84723">
        <ele>314.21379330921</ele>
        <time>2022-05-21T19:56:40.761Z</time>
      </trkpt>
      <trkpt lat="43.17482" lon="5.84747">
        <ele>312.81083937246</ele>
        <time>2022-05-21T19:56:43.113Z</time>
      </trkpt>
      <trkpt lat="43.17489" lon="5.84763">
        <ele>311.51422797141</ele>
        <time>2022-05-21T19:56:45.467Z</time>
      </trkpt>
      <trkpt lat="43.17489" lon="5.84831">
        <ele>310.28507889444</ele>
        <time>2022-05-21T19:56:47.829Z</time>
      </trkpt>
      <trkpt lat="43.17496" lon="5.84848">
        <ele>308.76916109287</ele>
        <time>2022-05-21T19:56:50.193Z</time>
      </trkpt>
      <trkpt lat="43.17509" lon="5.84874">
        <ele>307.15963024388</ele>
        <time>2022-05-21T19:56:52.561Z</time>
      </trkpt>
      <trkpt lat="43.17566" lon="5.84961">
        <ele>305.35983475543</ele>
        <time>2022-05-21T19:56:54.943Z</time>
      </trkpt>
      <trkpt lat="43.17619" lon="5.8502">
        <ele>303.45881829305</ele>
        <time>2022-05-21T19:56:57.336Z</time>
      </trkpt>
      <trkpt lat="43.17652" lon="5.85062">
        <ele>301.9808223682</ele>
        <time>2022-05-21T19:56:59.736Z</time>
      </trkpt>
      <trkpt lat="43.17667" lon="5.8507">
        <ele>300.33261727534</ele>
        <time>2022-05-21T19:57:02.138Z</time>
      </trkpt>
      <trkpt lat="43.17676" lon="5.85067">
        <ele>298.66328563153</ele>
        <time>2022-05-21T19:57:04.542Z</time>
      </trkpt>
      <trkpt lat="43.17685" lon="5.8506">
        <ele>296.98517744781</ele>
        <time>2022-05-21T19:57:06.948Z</time>
      </trkpt>
      <trkpt lat="43.17685" lon="5.8506">
        <ele>295.42125751794</ele>
        <time>2022-05-21T19:57:09.354Z</time>
      </trkpt>
      <trkpt lat="43.1769" lon="5.85042">
        <ele>293.80391485792</ele>
        <time>2022-05-21T19:57:11.762Z</time>
      </trkpt>
      <trkpt lat="43.17678" lon="5.84985">
        <ele>291.93471782126</ele>
        <time>2022-05-21T19:57:14.177Z</time>
      </trkpt>
      <trkpt lat="43.17677" lon="5.84972">
        <ele>290.41238516051</ele>
        <time>2022-05-21T19:57:16.593Z</time>
      </trkpt>
      <trkpt lat="43.17681" lon="5.84962">
        <ele>288.84252605948</ele>
        <time>2022-05-21T19:57:19.011Z</time>
      </trkpt>
      <trkpt lat="43.17685" lon="5.84953">
        <ele>287.29800783642</ele>
        <time>2022-05-21T19:57:21.430Z</time>
      </trkpt>
      <trkpt lat="43.17705" lon="5.84936">
        <ele>285.59065064194</ele>
        <time>2022-05-21T19:57:23.853Z</time>
      </trkpt>
      <trkpt lat="43.1772" lon="5.84934">
        <ele>284.03237137313</ele>
        <time>2022-05-21T19:57:26.278Z</time>
      </trkpt>
      <trkpt lat="43.17736" lon="5.8494">
        <ele>282.56917905451</ele>
        <time>2022-05-21T19:57:28.706Z</time>
      </trkpt>
      <trkpt lat="43.17785" lon="5.8499">
        <ele>281.1120356894</ele>
        <time>2022-05-21T19:57:31.143Z</time>
      </trkpt>
      <trkpt lat="43.17814" lon="5.85014">
        <ele>279.6628758799</ele>
        <time>2022-05-21T19:57:33.586Z</time>
      </trkpt>
      <trkpt lat="43.17832" lon="5.85023">
        <ele>278.21865557336</ele>
        <time>2022-05-21T19:57:36.032Z</time>
      </trkpt>
      <trkpt lat="43.17836" lon="5.85024">
        <ele>276.82057524211</ele>
        <time>2022-05-21T19:57:38.479Z</time>
      </trkpt>
      <trkpt lat="43.17842" lon="5.85022">
        <ele>275.37535978223</ele>
        <time>2022-05-21T19:57:40.927Z</time>
      </trkpt>
      <trkpt lat="43.17848" lon="5.85009">
        <ele>273.82942107734</ele>
        <time>2022-05-21T19:57:43.376Z</time>
      </trkpt>
      <trkpt lat="43.17853" lon="5.84994">
        <ele>272.28157803611</ele>
        <time>2022-05-21T19:57:45.827Z</time>
      </trkpt>
      <trkpt lat="43.17853" lon="5.84994">
        <ele>270.6976617075</ele>
        <time>2022-05-21T19:57:48.278Z</time>
      </trkpt>
      <trkpt lat="43.17852" lon="5.84988">
        <ele>269.01216632625</ele>
        <time>2022-05-21T19:57:50.730Z</time>
      </trkpt>
      <trkpt lat="43.17852" lon="5.84988">
        <ele>267.23951969681</ele>
        <time>2022-05-21T19:57:53.182Z</time>
      </trkpt>
      <trkpt lat="43.17849" lon="5.8498">
        <ele>265.33496618261</ele>
        <time>2022-05-21T19:57:55.635Z</time>
      </trkpt>
      <trkpt lat="43.17838" lon="5.84963">
        <ele>263.31171879407</ele>
        <time>2022-05-21T19:57:58.091Z</time>
      </trkpt>
      <trkpt lat="43.17805" lon="5.84918">
        <ele>261.14826432124</ele>
        <time>2022-05-21T19:58:00.554Z</time>
      </trkpt>
      <trkpt lat="43.17805" lon="5.84918">
        <ele>258.83657677531</ele>
        <time>2022-05-21T19:58:03.017Z</time>
      </trkpt>
      <trkpt lat="43.177" lon="5.84775">
        <ele>256.24749758381</ele>
        <time>2022-05-21T19:58:05.504Z</time>
      </trkpt>
      <trkpt lat="43.17688" lon="5.84755">
        <ele>253.52165917779</ele>
        <time>2022-05-21T19:58:07.994Z</time>
      </trkpt>
      <trkpt lat="43.17678" lon="5.84733">
        <ele>250.70770287524</ele>
        <time>2022-05-21T19:58:10.487Z</time>
      </trkpt>
      <trkpt lat="43.17633" lon="5.84609">
        <ele>247.04108876692</ele>
        <time>2022-05-21T19:58:12.996Z</time>
      </trkpt>
      <trkpt lat="43.17623" lon="5.84553">
        <ele>243.91303505482</ele>
        <time>2022-05-21T19:58:15.512Z</time>
      </trkpt>
      <trkpt lat="43.17616" lon="5.84535">
        <ele>240.59016538956</ele>
        <time>2022-05-21T19:58:18.030Z</time>
      </trkpt>
      <trkpt lat="43.17592" lon="5.84483">
        <ele>236.9543574396</ele>
        <time>2022-05-21T19:58:20.556Z</time>
      </trkpt>
      <trkpt lat="43.17575" lon="5.84457">
        <ele>233.36807413363</ele>
        <time>2022-05-21T19:58:23.086Z</time>
      </trkpt>
      <trkpt lat="43.17539" lon="5.84408">
        <ele>229.10685526473</ele>
        <time>2022-05-21T19:58:25.624Z</time>
      </trkpt>
      <trkpt lat="43.17528" lon="5.84385">
        <ele>225.47110719391</ele>
        <time>2022-05-21T19:58:28.165Z</time>
      </trkpt>
      <trkpt lat="43.17502" lon="5.84301">
        <ele>221.52615966904</ele>
        <time>2022-05-21T19:58:30.717Z</time>
      </trkpt>
      <trkpt lat="43.17498" lon="5.84269">
        <ele>217.94326868762</ele>
        <time>2022-05-21T19:58:33.273Z</time>
      </trkpt>
      <trkpt lat="43.17493" lon="5.8417">
        <ele>214.78111269787</ele>
        <time>2022-05-21T19:58:35.840Z</time>
      </trkpt>
      <trkpt lat="43.17493" lon="5.8417">
        <ele>211.31980769863</ele>
        <time>2022-05-21T19:58:38.407Z</time>
      </trkpt>
      <trkpt lat="43.17487" lon="5.8415">
        <ele>207.9919433869</ele>
        <time>2022-05-21T19:58:40.977Z</time>
      </trkpt>
      <trkpt lat="43.17469" lon="5.84116">
        <ele>204.5014886454</ele>
        <time>2022-05-21T19:58:43.552Z</time>
      </trkpt>
      <trkpt lat="43.17426" lon="5.84056">
        <ele>200.25577226251</ele>
        <time>2022-05-21T19:58:46.136Z</time>
      </trkpt>
      <trkpt lat="43.1739" lon="5.83966">
        <ele>196.58685527039</ele>
        <time>2022-05-21T19:58:48.732Z</time>
      </trkpt>
      <trkpt lat="43.17384" lon="5.83947">
        <ele>193.22433613921</ele>
        <time>2022-05-21T19:58:51.331Z</time>
      </trkpt>
      <trkpt lat="43.17381" lon="5.83927">
        <ele>190.05330269794</ele>
        <time>2022-05-21T19:58:53.932Z</time>
      </trkpt>
      <trkpt lat="43.17379" lon="5.83874">
        <ele>187.16943996425</ele>
        <time>2022-05-21T19:58:56.539Z</time>
      </trkpt>
      <trkpt lat="43.17375" lon="5.83855">
        <ele>184.3037249552</ele>
        <time>2022-05-21T19:58:59.149Z</time>
      </trkpt>
      <trkpt lat="43.17365" lon="5.83835">
        <ele>181.52690641996</ele>
        <time>2022-05-21T19:59:01.762Z</time>
      </trkpt>
      <trkpt lat="43.17347" lon="5.83812">
        <ele>178.8831243108</ele>
        <time>2022-05-21T19:59:04.379Z</time>
      </trkpt>
      <trkpt lat="43.17278" lon="5.8368">
        <ele>175.86042423838</ele>
        <time>2022-05-21T19:59:07.015Z</time>
      </trkpt>
      <trkpt lat="43.17278" lon="5.8368">
        <ele>173.49259724956</ele>
        <time>2022-05-21T19:59:09.651Z</time>
      </trkpt>
      <trkpt lat="43.17274" lon="5.83663">
        <ele>171.15711650146</ele>
        <time>2022-05-21T19:59:12.289Z</time>
      </trkpt>
      <trkpt lat="43.17273" lon="5.83639">
        <ele>169.02874934581</ele>
        <time>2022-05-21T19:59:14.929Z</time>
      </trkpt>
      <trkpt lat="43.17273" lon="5.83603">
        <ele>167.16825828466</ele>
        <time>2022-05-21T19:59:17.574Z</time>
      </trkpt>
      <trkpt lat="43.17273" lon="5.83603">
        <ele>165.25868860794</ele>
        <time>2022-05-21T19:59:20.219Z</time>
      </trkpt>
      <trkpt lat="43.17271" lon="5.83566">
        <ele>163.50692994486</ele>
        <time>2022-05-21T19:59:22.868Z</time>
      </trkpt>
      <trkpt lat="43.17264" lon="5.8354">
        <ele>161.70016651112</ele>
        <time>2022-05-21T19:59:25.520Z</time>
      </trkpt>
      <trkpt lat="43.17243" lon="5.83477">
        <ele>159.8497322576</ele>
        <time>2022-05-21T19:59:28.180Z</time>
      </trkpt>
      <trkpt lat="43.17243" lon="5.83477">
        <ele>158.32677662858</ele>
        <time>2022-05-21T19:59:30.840Z</time>
      </trkpt>
      <trkpt lat="43.17227" lon="5.83416">
        <ele>156.57926981142</ele>
        <time>2022-05-21T19:59:33.508Z</time>
      </trkpt>
      <trkpt lat="43.1722" lon="5.83377">
        <ele>155.09629293925</ele>
        <time>2022-05-21T19:59:36.181Z</time>
      </trkpt>
      <trkpt lat="43.17216" lon="5.83339">
        <ele>153.77220187119</ele>
        <time>2022-05-21T19:59:38.858Z</time>
      </trkpt>
      <trkpt lat="43.17217" lon="5.83294">
        <ele>152.57994924923</ele>
        <time>2022-05-21T19:59:41.540Z</time>
      </trkpt>
      <trkpt lat="43.17226" lon="5.83231">
        <ele>151.41911914921</ele>
        <time>2022-05-21T19:59:44.230Z</time>
      </trkpt>
      <trkpt lat="43.17231" lon="5.8321">
        <ele>150.43779687606</ele>
        <time>2022-05-21T19:59:46.922Z</time>
      </trkpt>
      <trkpt lat="43.17233" lon="5.83188">
        <ele>149.5598461036</ele>
        <time>2022-05-21T19:59:49.617Z</time>
      </trkpt>
      <trkpt lat="43.17227" lon="5.8313">
        <ele>148.74246847399</ele>
        <time>2022-05-21T19:59:52.319Z</time>
      </trkpt>
      <trkpt lat="43.17227" lon="5.8313">
        <ele>148.21859119361</ele>
        <time>2022-05-21T19:59:55.021Z</time>
      </trkpt>
      <trkpt lat="43.1722" lon="5.83073">
        <ele>147.8797513676</ele>
        <time>2022-05-21T19:59:57.730Z</time>
      </trkpt>
      <trkpt lat="43.17216" lon="5.83037">
        <ele>147.66235391068</ele>
        <time>2022-05-21T20:00:00.443Z</time>
      </trkpt>
      <trkpt lat="43.17216" lon="5.83037">
        <ele>147.48377448671</ele>
        <time>2022-05-21T20:00:03.156Z</time>
      </trkpt>
      <trkpt lat="43.17214" lon="5.83012">
        <ele>147.41072449853</ele>
        <time>2022-05-21T20:00:05.872Z</time>
      </trkpt>
      <trkpt lat="43.1723" lon="5.82994">
        <ele>147.42899003538</ele>
        <time>2022-05-21T20:00:08.591Z</time>
      </trkpt>
      <trkpt lat="43.17295" lon="5.82949">
        <ele>147.71139542526</ele>
        <time>2022-05-21T20:00:11.322Z</time>
      </trkpt>
      <trkpt lat="43.17499" lon="5.82804">
        <ele>147.98273452296</ele>
        <time>2022-05-21T20:00:14.090Z</time>
      </trkpt>
      <trkpt lat="43.17511" lon="5.82797">
        <ele>148.26653015497</ele>
        <time>2022-05-21T20:00:16.860Z</time>
      </trkpt>
      <trkpt lat="43.17537" lon="5.82772">
        <ele>148.63311606895</ele>
        <time>2022-05-21T20:00:19.635Z</time>
      </trkpt>
      <trkpt lat="43.17543" lon="5.82774">
        <ele>149.06587990483</ele>
        <time>2022-05-21T20:00:22.411Z</time>
      </trkpt>
      <trkpt lat="43.17546" lon="5.82773">
        <ele>149.56170311883</ele>
        <time>2022-05-21T20:00:25.187Z</time>
      </trkpt>
      <trkpt lat="43.1755" lon="5.82783">
        <ele>150.0890148268</ele>
        <time>2022-05-21T20:00:27.965Z</time>
      </trkpt>
      <trkpt lat="43.17556" lon="5.82828">
        <ele>150.5901472735</ele>
        <time>2022-05-21T20:00:30.748Z</time>
      </trkpt>
      <trkpt lat="43.17566" lon="5.82869">
        <ele>151.2221310751</ele>
        <time>2022-05-21T20:00:33.536Z</time>
      </trkpt>
      <trkpt lat="43.17611" lon="5.82859">
        <ele>151.8272621989</ele>
        <time>2022-05-21T20:00:36.331Z</time>
      </trkpt>
      <trkpt lat="43.17666" lon="5.82856">
        <ele>152.65525620635</ele>
        <time>2022-05-21T20:00:39.135Z</time>
      </trkpt>
      <trkpt lat="43.17696" lon="5.8285">
        <ele>153.57576954661</ele>
        <time>2022-05-21T20:00:41.944Z</time>
      </trkpt>
      <trkpt lat="43.17725" lon="5.82838">
        <ele>154.52371888233</ele>
        <time>2022-05-21T20:00:44.758Z</time>
      </trkpt>
      <trkpt lat="43.17768" lon="5.82811">
        <ele>155.41983256501</ele>
        <time>2022-05-21T20:00:47.579Z</time>
      </trkpt>
      <trkpt lat="43.17768" lon="5.82811">
        <ele>156.31752454542</ele>
        <time>2022-05-21T20:00:50.400Z</time>
      </trkpt>
      <trkpt lat="43.17772" lon="5.82809">
        <ele>157.22644243111</ele>
        <time>2022-05-21T20:00:53.222Z</time>
      </trkpt>
      <trkpt lat="43.17809" lon="5.82781">
        <ele>158.15439725847</ele>
        <time>2022-05-21T20:00:56.051Z</time>
      </trkpt>
      <trkpt lat="43.17869" lon="5.8275">
        <ele>159.08967658719</ele>
        <time>2022-05-21T20:00:58.890Z</time>
      </trkpt>
      <trkpt lat="43.17889" lon="5.82736">
        <ele>160.06025488273</ele>
        <time>2022-05-21T20:01:01.733Z</time>
      </trkpt>
      <trkpt lat="43.17995" lon="5.82654">
        <ele>161.2829826087</ele>
        <time>2022-05-21T20:01:04.595Z</time>
      </trkpt>
      <trkpt lat="43.18023" lon="5.82636">
        <ele>162.20147064882</ele>
        <time>2022-05-21T20:01:07.462Z</time>
      </trkpt>
      <trkpt lat="43.18057" lon="5.82606">
        <ele>163.22893964103</ele>
        <time>2022-05-21T20:01:10.336Z</time>
      </trkpt>
      <trkpt lat="43.18086" lon="5.8259">
        <ele>164.12813731222</ele>
        <time>2022-05-21T20:01:13.215Z</time>
      </trkpt>
      <trkpt lat="43.18122" lon="5.82551">
        <ele>165.00687999361</ele>
        <time>2022-05-21T20:01:16.101Z</time>
      </trkpt>
      <trkpt lat="43.18176" lon="5.82478">
        <ele>165.77733216133</ele>
        <time>2022-05-21T20:01:18.999Z</time>
      </trkpt>
      <trkpt lat="43.18192" lon="5.82461">
        <ele>166.62722715392</ele>
        <time>2022-05-21T20:01:21.900Z</time>
      </trkpt>
      <trkpt lat="43.18303" lon="5.82362">
        <ele>167.58454563092</ele>
        <time>2022-05-21T20:01:24.823Z</time>
      </trkpt>
      <trkpt lat="43.18329" lon="5.82337">
        <ele>168.26097659863</ele>
        <time>2022-05-21T20:01:27.751Z</time>
      </trkpt>
      <trkpt lat="43.18329" lon="5.82337">
        <ele>168.84592033253</ele>
        <time>2022-05-21T20:01:30.679Z</time>
      </trkpt>
      <trkpt lat="43.18366" lon="5.82298">
        <ele>169.29444423042</ele>
        <time>2022-05-21T20:01:33.614Z</time>
      </trkpt>
      <trkpt lat="43.18426" lon="5.82251">
        <ele>169.79674077143</ele>
        <time>2022-05-21T20:01:36.560Z</time>
      </trkpt>
      <trkpt lat="43.18453" lon="5.82226">
        <ele>170.32958471637</ele>
        <time>2022-05-21T20:01:39.511Z</time>
      </trkpt>
      <trkpt lat="43.1858" lon="5.82139">
        <ele>170.67869788851</ele>
        <time>2022-05-21T20:01:42.485Z</time>
      </trkpt>
      <trkpt lat="43.18632" lon="5.82088">
        <ele>170.97527275851</ele>
        <time>2022-05-21T20:01:45.469Z</time>
      </trkpt>
      <trkpt lat="43.18738" lon="5.81979">
        <ele>170.96265057391</ele>
        <time>2022-05-21T20:01:48.475Z</time>
      </trkpt>
      <trkpt lat="43.18776" lon="5.82021">
        <ele>170.87407272389</ele>
        <time>2022-05-21T20:01:51.488Z</time>
      </trkpt>
      <trkpt lat="43.18837" lon="5.82084">
        <ele>170.66129834036</ele>
        <time>2022-05-21T20:01:54.514Z</time>
      </trkpt>
      <trkpt lat="43.18837" lon="5.82084">
        <ele>170.56468940953</ele>
        <time>2022-05-21T20:01:57.540Z</time>
      </trkpt>
      <trkpt lat="43.18869" lon="5.82098">
        <ele>170.41350806579</ele>
        <time>2022-05-21T20:02:00.571Z</time>
      </trkpt>
      <trkpt lat="43.18932" lon="5.82112">
        <ele>170.27527487037</ele>
        <time>2022-05-21T20:02:03.612Z</time>
      </trkpt>
      <trkpt lat="43.18932" lon="5.82112">
        <ele>170.02131730422</ele>
        <time>2022-05-21T20:02:06.653Z</time>
      </trkpt>
      <trkpt lat="43.18964" lon="5.82116">
        <ele>169.78897884186</ele>
        <time>2022-05-21T20:02:09.699Z</time>
      </trkpt>
      <trkpt lat="43.19025" lon="5.8211">
        <ele>169.28101741883</ele>
        <time>2022-05-21T20:02:12.755Z</time>
      </trkpt>
      <trkpt lat="43.1904" lon="5.82104">
        <ele>168.87389942139</ele>
        <time>2022-05-21T20:02:15.814Z</time>
      </trkpt>
      <trkpt lat="43.19123" lon="5.82053">
        <ele>168.33407218347</ele>
        <time>2022-05-21T20:02:18.887Z</time>
      </trkpt>
      <trkpt lat="43.1914" lon="5.82054">
        <ele>167.94299245297</ele>
        <time>2022-05-21T20:02:21.963Z</time>
      </trkpt>
      <trkpt lat="43.1915" lon="5.82053">
        <ele>167.53810357189</ele>
        <time>2022-05-21T20:02:25.041Z</time>
      </trkpt>
      <trkpt lat="43.1915" lon="5.82053">
        <ele>167.13759194861</ele>
        <time>2022-05-21T20:02:28.119Z</time>
      </trkpt>
      <trkpt lat="43.19161" lon="5.82039">
        <ele>166.69567101013</ele>
        <time>2022-05-21T20:02:31.199Z</time>
      </trkpt>
      <trkpt lat="43.1919" lon="5.82013">
        <ele>166.41300830368</ele>
        <time>2022-05-21T20:02:34.285Z</time>
      </trkpt>
      <trkpt lat="43.19222" lon="5.81992">
        <ele>166.20404070758</ele>
        <time>2022-05-21T20:02:37.376Z</time>
      </trkpt>
      <trkpt lat="43.19248" lon="5.81975">
        <ele>165.74145936224</ele>
        <time>2022-05-21T20:02:40.472Z</time>
      </trkpt>
      <trkpt lat="43.19248" lon="5.81975">
        <ele>165.35410878634</ele>
        <time>2022-05-21T20:02:43.568Z</time>
      </trkpt>
      <trkpt lat="43.19264" lon="5.8196">
        <ele>164.96968192219</ele>
        <time>2022-05-21T20:02:46.667Z</time>
      </trkpt>
      <trkpt lat="43.19281" lon="5.81939">
        <ele>164.53026258592</ele>
        <time>2022-05-21T20:02:49.770Z</time>
      </trkpt>
      <trkpt lat="43.19302" lon="5.81897">
        <ele>164.04456626453</ele>
        <time>2022-05-21T20:02:52.879Z</time>
      </trkpt>
      <trkpt lat="43.19316" lon="5.81857">
        <ele>163.60398469545</ele>
        <time>2022-05-21T20:02:55.993Z</time>
      </trkpt>
      <trkpt lat="43.19335" lon="5.81789">
        <ele>163.33328690433</ele>
        <time>2022-05-21T20:02:59.115Z</time>
      </trkpt>
      <trkpt lat="43.19335" lon="5.81789">
        <ele>163.00487399073</ele>
        <time>2022-05-21T20:03:02.237Z</time>
      </trkpt>
      <trkpt lat="43.19356" lon="5.81729">
        <ele>162.70324555785</ele>
        <time>2022-05-21T20:03:05.367Z</time>
      </trkpt>
      <trkpt lat="43.19361" lon="5.81709">
        <ele>162.32086144584</ele>
        <time>2022-05-21T20:03:08.499Z</time>
      </trkpt>
      <trkpt lat="43.19382" lon="5.81696">
        <ele>161.98598853494</ele>
        <time>2022-05-21T20:03:11.635Z</time>
      </trkpt>
      <trkpt lat="43.19389" lon="5.81691">
        <ele>161.70432443834</ele>
        <time>2022-05-21T20:03:14.772Z</time>
      </trkpt>
      <trkpt lat="43.19394" lon="5.81686">
        <ele>161.44342338563</ele>
        <time>2022-05-21T20:03:17.910Z</time>
      </trkpt>
      <trkpt lat="43.19399" lon="5.81674">
        <ele>161.19511266481</ele>
        <time>2022-05-21T20:03:21.050Z</time>
      </trkpt>
      <trkpt lat="43.19417" lon="5.81643">
        <ele>160.89026774024</ele>
        <time>2022-05-21T20:03:24.195Z</time>
      </trkpt>
      <trkpt lat="43.1947" lon="5.81568">
        <ele>160.7679580207</ele>
        <time>2022-05-21T20:03:27.352Z</time>
      </trkpt>
      <trkpt lat="43.19477" lon="5.81554">
        <ele>160.58427801976</ele>
        <time>2022-05-21T20:03:30.511Z</time>
      </trkpt>
      <trkpt lat="43.19478" lon="5.81513">
        <ele>160.34429658385</ele>
        <time>2022-05-21T20:03:33.675Z</time>
      </trkpt>
      <trkpt lat="43.19484" lon="5.81459">
        <ele>160.09427911907</ele>
        <time>2022-05-21T20:03:36.845Z</time>
      </trkpt>
      <trkpt lat="43.19484" lon="5.81459">
        <ele>159.86967777377</ele>
        <time>2022-05-21T20:03:40.015Z</time>
      </trkpt>
      <trkpt lat="43.19488" lon="5.81437">
        <ele>159.64737534965</ele>
        <time>2022-05-21T20:03:43.188Z</time>
      </trkpt>
      <trkpt lat="43.19496" lon="5.81421">
        <ele>159.41509840512</ele>
        <time>2022-05-21T20:03:46.363Z</time>
      </trkpt>
      <trkpt lat="43.19516" lon="5.814">
        <ele>159.21674991109</ele>
        <time>2022-05-21T20:03:49.542Z</time>
      </trkpt>
      <trkpt lat="43.19544" lon="5.81387">
        <ele>159.06146331273</ele>
        <time>2022-05-21T20:03:52.726Z</time>
      </trkpt>
      <trkpt lat="43.19579" lon="5.81358">
        <ele>158.62086248093</ele>
        <time>2022-05-21T20:03:55.916Z</time>
      </trkpt>
      <trkpt lat="43.19598" lon="5.81347">
        <ele>158.29318203722</ele>
        <time>2022-05-21T20:03:59.110Z</time>
      </trkpt>
      <trkpt lat="43.19611" lon="5.81338">
        <ele>157.99144935173</ele>
        <time>2022-05-21T20:04:02.306Z</time>
      </trkpt>
      <trkpt lat="43.1963" lon="5.81317">
        <ele>157.68438004496</ele>
        <time>2022-05-21T20:04:05.506Z</time>
      </trkpt>
      <trkpt lat="43.19647" lon="5.81306">
        <ele>157.40213266379</ele>
        <time>2022-05-21T20:04:08.709Z</time>
      </trkpt>
      <trkpt lat="43.19664" lon="5.813">
        <ele>157.13429536336</ele>
        <time>2022-05-21T20:04:11.915Z</time>
      </trkpt>
      <trkpt lat="43.1967" lon="5.81301">
        <ele>156.87795197357</ele>
        <time>2022-05-21T20:04:15.122Z</time>
      </trkpt>
      <trkpt lat="43.19672" lon="5.81304">
        <ele>156.61658488379</ele>
        <time>2022-05-21T20:04:18.329Z</time>
      </trkpt>
      <trkpt lat="43.1973" lon="5.81194">
        <ele>156.41044485524</ele>
        <time>2022-05-21T20:04:21.552Z</time>
      </trkpt>
      <trkpt lat="43.19762" lon="5.81163">
        <ele>156.10640897758</ele>
        <time>2022-05-21T20:04:24.781Z</time>
      </trkpt>
      <trkpt lat="43.19769" lon="5.81152">
        <ele>155.8544442436</ele>
        <time>2022-05-21T20:04:28.012Z</time>
      </trkpt>
      <trkpt lat="43.19769" lon="5.81152">
        <ele>155.64020454964</ele>
        <time>2022-05-21T20:04:31.243Z</time>
      </trkpt>
      <trkpt lat="43.19777" lon="5.81139">
        <ele>155.38936014782</ele>
        <time>2022-05-21T20:04:34.476Z</time>
      </trkpt>
      <trkpt lat="43.19791" lon="5.81117">
        <ele>155.16427420028</ele>
        <time>2022-05-21T20:04:37.712Z</time>
      </trkpt>
      <trkpt lat="43.19791" lon="5.81117">
        <ele>155.01561267469</ele>
        <time>2022-05-21T20:04:40.948Z</time>
      </trkpt>
      <trkpt lat="43.19817" lon="5.81076">
        <ele>154.91428244231</ele>
        <time>2022-05-21T20:04:44.191Z</time>
      </trkpt>
      <trkpt lat="43.19829" lon="5.81046">
        <ele>154.84640817975</ele>
        <time>2022-05-21T20:04:47.438Z</time>
      </trkpt>
      <trkpt lat="43.19842" lon="5.81022">
        <ele>154.78670428811</ele>
        <time>2022-05-21T20:04:50.688Z</time>
      </trkpt>
      <trkpt lat="43.19864" lon="5.81">
        <ele>154.73809591253</ele>
        <time>2022-05-21T20:04:53.943Z</time>
      </trkpt>
      <trkpt lat="43.19898" lon="5.8092">
        <ele>154.74364228045</ele>
        <time>2022-05-21T20:04:57.208Z</time>
      </trkpt>
      <trkpt lat="43.1991" lon="5.80915">
        <ele>154.77640401244</ele>
        <time>2022-05-21T20:05:00.475Z</time>
      </trkpt>
      <trkpt lat="43.19929" lon="5.80919">
        <ele>154.81324956468</ele>
        <time>2022-05-21T20:05:03.746Z</time>
      </trkpt>
      <trkpt lat="43.19941" lon="5.80913">
        <ele>154.92127837356</ele>
        <time>2022-05-21T20:05:07.019Z</time>
      </trkpt>
      <trkpt lat="43.19966" lon="5.80888">
        <ele>155.08229362279</ele>
        <time>2022-05-21T20:05:10.296Z</time>
      </trkpt>
      <trkpt lat="43.1996" lon="5.80869">
        <ele>155.28773483305</ele>
        <time>2022-05-21T20:05:13.576Z</time>
      </trkpt>
      <trkpt lat="43.19939" lon="5.80836">
        <ele>155.6914529301</ele>
        <time>2022-05-21T20:05:16.861Z</time>
      </trkpt>
      <trkpt lat="43.19929" lon="5.80817">
        <ele>156.02361390968</ele>
        <time>2022-05-21T20:05:20.149Z</time>
      </trkpt>
      <trkpt lat="43.19926" lon="5.80803">
        <ele>156.37198054543</ele>
        <time>2022-05-21T20:05:23.439Z</time>
      </trkpt>
      <trkpt lat="43.19926" lon="5.80803">
        <ele>156.71146904481</ele>
        <time>2022-05-21T20:05:26.729Z</time>
      </trkpt>
      <trkpt lat="43.1992" lon="5.8078">
        <ele>157.15674846115</ele>
        <time>2022-05-21T20:05:30.021Z</time>
      </trkpt>
      <trkpt lat="43.19916" lon="5.80773">
        <ele>157.56374700796</ele>
        <time>2022-05-21T20:05:33.314Z</time>
      </trkpt>
      <trkpt lat="43.19911" lon="5.80763">
        <ele>158.00403158645</ele>
        <time>2022-05-21T20:05:36.609Z</time>
      </trkpt>
      <trkpt lat="43.19893" lon="5.80747">
        <ele>158.41748978299</ele>
        <time>2022-05-21T20:05:39.907Z</time>
      </trkpt>
      <trkpt lat="43.19893" lon="5.80747">
        <ele>158.88364010946</ele>
        <time>2022-05-21T20:05:43.205Z</time>
      </trkpt>
      <trkpt lat="43.19838" lon="5.80697">
        <ele>159.36666765303</ele>
        <time>2022-05-21T20:05:46.514Z</time>
      </trkpt>
      <trkpt lat="43.19836" lon="5.80693">
        <ele>159.88721578005</ele>
        <time>2022-05-21T20:05:49.823Z</time>
      </trkpt>
      <trkpt lat="43.19844" lon="5.80677">
        <ele>160.45331846421</ele>
        <time>2022-05-21T20:05:53.135Z</time>
      </trkpt>
      <trkpt lat="43.19877" lon="5.80698">
        <ele>161.01180153698</ele>
        <time>2022-05-21T20:05:56.452Z</time>
      </trkpt>
      <trkpt lat="43.20003" lon="5.80777">
        <ele>161.45397738056</ele>
        <time>2022-05-21T20:05:59.792Z</time>
      </trkpt>
      <trkpt lat="43.20032" lon="5.80789">
        <ele>161.99927376032</ele>
        <time>2022-05-21T20:06:03.137Z</time>
      </trkpt>
      <trkpt lat="43.20076" lon="5.808">
        <ele>162.57973984522</ele>
        <time>2022-05-21T20:06:06.489Z</time>
      </trkpt>
      <trkpt lat="43.20114" lon="5.80803">
        <ele>163.27005068958</ele>
        <time>2022-05-21T20:06:09.847Z</time>
      </trkpt>
      <trkpt lat="43.20122" lon="5.80804">
        <ele>163.95097377919</ele>
        <time>2022-05-21T20:06:13.206Z</time>
      </trkpt>
      <trkpt lat="43.20127" lon="5.80803">
        <ele>164.60487701118</ele>
        <time>2022-05-21T20:06:16.566Z</time>
      </trkpt>
      <trkpt lat="43.2015" lon="5.80802">
        <ele>165.30386877963</ele>
        <time>2022-05-21T20:06:19.930Z</time>
      </trkpt>
      <trkpt lat="43.20185" lon="5.80798">
        <ele>166.03570401648</ele>
        <time>2022-05-21T20:06:23.299Z</time>
      </trkpt>
      <trkpt lat="43.20218" lon="5.80794">
        <ele>166.80171594678</ele>
        <time>2022-05-21T20:06:26.673Z</time>
      </trkpt>
      <trkpt lat="43.20233" lon="5.80795">
        <ele>167.49830486754</ele>
        <time>2022-05-21T20:06:30.050Z</time>
      </trkpt>
      <trkpt lat="43.20244" lon="5.80794">
        <ele>168.12380799205</ele>
        <time>2022-05-21T20:06:33.429Z</time>
      </trkpt>
      <trkpt lat="43.20288" lon="5.80788">
        <ele>168.75673824454</ele>
        <time>2022-05-21T20:06:36.815Z</time>
      </trkpt>
      <trkpt lat="43.20304" lon="5.80782">
        <ele>169.22699570611</ele>
        <time>2022-05-21T20:06:40.203Z</time>
      </trkpt>
      <trkpt lat="43.20312" lon="5.80781">
        <ele>169.60180062635</ele>
        <time>2022-05-21T20:06:43.593Z</time>
      </trkpt>
      <trkpt lat="43.20338" lon="5.80782">
        <ele>169.92470236872</ele>
        <time>2022-05-21T20:06:46.987Z</time>
      </trkpt>
      <trkpt lat="43.2034" lon="5.80763">
        <ele>170.15269828053</ele>
        <time>2022-05-21T20:06:50.383Z</time>
      </trkpt>
      <trkpt lat="43.20335" lon="5.80756">
        <ele>170.24172425517</ele>
        <time>2022-05-21T20:06:53.780Z</time>
      </trkpt>
      <trkpt lat="43.20326" lon="5.80756">
        <ele>170.21916606482</ele>
        <time>2022-05-21T20:06:57.179Z</time>
      </trkpt>
      <trkpt lat="43.20322" lon="5.80758">
        <ele>170.10658099181</ele>
        <time>2022-05-21T20:07:00.578Z</time>
      </trkpt>
      <trkpt lat="43.2031" lon="5.80765">
        <ele>169.8681798901</ele>
        <time>2022-05-21T20:07:03.979Z</time>
      </trkpt>
      <trkpt lat="43.20303" lon="5.80764">
        <ele>169.55609584931</ele>
        <time>2022-05-21T20:07:07.382Z</time>
      </trkpt>
      <trkpt lat="43.20295" lon="5.80753">
        <ele>169.15842882074</ele>
        <time>2022-05-21T20:07:10.786Z</time>
      </trkpt>
      <trkpt lat="43.20244" lon="5.80709">
        <ele>168.52288368583</ele>
        <time>2022-05-21T20:07:14.200Z</time>
      </trkpt>
      <trkpt lat="43.20209" lon="5.8068">
        <ele>167.63217202102</ele>
        <time>2022-05-21T20:07:17.621Z</time>
      </trkpt>
      <trkpt lat="43.20209" lon="5.8068">
        <ele>166.99716272953</ele>
        <time>2022-05-21T20:07:21.042Z</time>
      </trkpt>
      <trkpt lat="43.20203" lon="5.80676">
        <ele>166.23349490012</ele>
        <time>2022-05-21T20:07:24.464Z</time>
      </trkpt>
      <trkpt lat="43.20246" lon="5.80582">
        <ele>165.54582723289</ele>
        <time>2022-05-21T20:07:27.899Z</time>
      </trkpt>
      <trkpt lat="43.2028" lon="5.80513">
        <ele>164.80404641478</ele>
        <time>2022-05-21T20:07:31.343Z</time>
      </trkpt>
      <trkpt lat="43.20301" lon="5.80473">
        <ele>163.90524245115</ele>
        <time>2022-05-21T20:07:34.793Z</time>
      </trkpt>
      <trkpt lat="43.20305" lon="5.80459">
        <ele>162.97841601881</ele>
        <time>2022-05-21T20:07:38.245Z</time>
      </trkpt>
      <trkpt lat="43.20299" lon="5.80442">
        <ele>161.94543716392</ele>
        <time>2022-05-21T20:07:41.699Z</time>
      </trkpt>
      <trkpt lat="43.20299" lon="5.80442">
        <ele>160.98244664934</ele>
        <time>2022-05-21T20:07:45.153Z</time>
      </trkpt>
      <trkpt lat="43.20294" lon="5.80427">
        <ele>159.89595240554</ele>
        <time>2022-05-21T20:07:48.609Z</time>
      </trkpt>
      <trkpt lat="43.20292" lon="5.8042">
        <ele>158.85637139096</ele>
        <time>2022-05-21T20:07:52.066Z</time>
      </trkpt>
      <trkpt lat="43.2029" lon="5.80394">
        <ele>157.78533527596</ele>
        <time>2022-05-21T20:07:55.526Z</time>
      </trkpt>
      <trkpt lat="43.20297" lon="5.80355">
        <ele>156.85830716047</ele>
        <time>2022-05-21T20:07:58.991Z</time>
      </trkpt>
      <trkpt lat="43.20302" lon="5.8031">
        <ele>155.74119883658</ele>
        <time>2022-05-21T20:08:02.461Z</time>
      </trkpt>
      <trkpt lat="43.20313" lon="5.80286">
        <ele>154.6713688459</ele>
        <time>2022-05-21T20:08:05.934Z</time>
      </trkpt>
      <trkpt lat="43.20328" lon="5.80271">
        <ele>153.67250044128</ele>
        <time>2022-05-21T20:08:09.410Z</time>
      </trkpt>
      <trkpt lat="43.20347" lon="5.80258">
        <ele>152.73485673942</ele>
        <time>2022-05-21T20:08:12.890Z</time>
      </trkpt>
      <trkpt lat="43.20362" lon="5.80255">
        <ele>151.8660086124</ele>
        <time>2022-05-21T20:08:16.372Z</time>
      </trkpt>
      <trkpt lat="43.20451" lon="5.80261">
        <ele>150.66292884607</ele>
        <time>2022-05-21T20:08:19.868Z</time>
      </trkpt>
      <trkpt lat="43.20457" lon="5.80253">
        <ele>149.85002244671</ele>
        <time>2022-05-21T20:08:23.366Z</time>
      </trkpt>
      <trkpt lat="43.2046" lon="5.80247">
        <ele>149.08490843589</ele>
        <time>2022-05-21T20:08:26.865Z</time>
      </trkpt>
      <trkpt lat="43.2046" lon="5.80247">
        <ele>148.38114278933</ele>
        <time>2022-05-21T20:08:30.364Z</time>
      </trkpt>
      <trkpt lat="43.20467" lon="5.80214">
        <ele>147.71528115774</ele>
        <time>2022-05-21T20:08:33.866Z</time>
      </trkpt>
      <trkpt lat="43.20477" lon="5.80191">
        <ele>147.1454583452</ele>
        <time>2022-05-21T20:08:37.372Z</time>
      </trkpt>
      <trkpt lat="43.20532" lon="5.80135">
        <ele>146.59511113348</ele>
        <time>2022-05-21T20:08:40.889Z</time>
      </trkpt>
      <trkpt lat="43.20546" lon="5.80124">
        <ele>146.07289361917</ele>
        <time>2022-05-21T20:08:44.408Z</time>
      </trkpt>
      <trkpt lat="43.20546" lon="5.80124">
        <ele>145.65691978764</ele>
        <time>2022-05-21T20:08:47.927Z</time>
      </trkpt>
      <trkpt lat="43.20555" lon="5.80118">
        <ele>145.28170946361</ele>
        <time>2022-05-21T20:08:51.448Z</time>
      </trkpt>
      <trkpt lat="43.20565" lon="5.80104">
        <ele>144.93765247895</ele>
        <time>2022-05-21T20:08:54.971Z</time>
      </trkpt>
      <trkpt lat="43.20567" lon="5.80082">
        <ele>144.61157143495</ele>
        <time>2022-05-21T20:08:58.497Z</time>
      </trkpt>
      <trkpt lat="43.20566" lon="5.8004">
        <ele>144.38998543475</ele>
        <time>2022-05-21T20:09:02.028Z</time>
      </trkpt>
      <trkpt lat="43.20582" lon="5.80028">
        <ele>144.18761553312</ele>
        <time>2022-05-21T20:09:05.561Z</time>
      </trkpt>
      <trkpt lat="43.20606" lon="5.80018">
        <ele>144.13179183069</ele>
        <time>2022-05-21T20:09:09.099Z</time>
      </trkpt>
      <trkpt lat="43.20616" lon="5.80006">
        <ele>144.10894463242</ele>
        <time>2022-05-21T20:09:12.639Z</time>
      </trkpt>
      <trkpt lat="43.20625" lon="5.7999">
        <ele>144.07438624101</ele>
        <time>2022-05-21T20:09:16.181Z</time>
      </trkpt>
      <trkpt lat="43.20625" lon="5.7999">
        <ele>144.04086760448</ele>
        <time>2022-05-21T20:09:19.723Z</time>
      </trkpt>
      <trkpt lat="43.20629" lon="5.79977">
        <ele>144.01954056829</ele>
        <time>2022-05-21T20:09:23.267Z</time>
      </trkpt>
      <trkpt lat="43.20639" lon="5.79915">
        <ele>143.94320982329</ele>
        <time>2022-05-21T20:09:26.818Z</time>
      </trkpt>
      <trkpt lat="43.20652" lon="5.79873">
        <ele>143.83261491885</ele>
        <time>2022-05-21T20:09:30.374Z</time>
      </trkpt>
      <trkpt lat="43.2073" lon="5.79755">
        <ele>143.66891357162</ele>
        <time>2022-05-21T20:09:33.949Z</time>
      </trkpt>
      <trkpt lat="43.20752" lon="5.79722">
        <ele>143.77505295326</ele>
        <time>2022-05-21T20:09:37.529Z</time>
      </trkpt>
      <trkpt lat="43.20778" lon="5.79696">
        <ele>143.79462754579</ele>
        <time>2022-05-21T20:09:41.114Z</time>
      </trkpt>
      <trkpt lat="43.20864" lon="5.7963">
        <ele>143.65206034297</ele>
        <time>2022-05-21T20:09:44.715Z</time>
      </trkpt>
      <trkpt lat="43.20871" lon="5.79628">
        <ele>143.6280139477</ele>
        <time>2022-05-21T20:09:48.317Z</time>
      </trkpt>
      <trkpt lat="43.20878" lon="5.7963">
        <ele>143.59968816169</ele>
        <time>2022-05-21T20:09:51.920Z</time>
      </trkpt>
      <trkpt lat="43.20882" lon="5.79639">
        <ele>143.57714887677</ele>
        <time>2022-05-21T20:09:55.525Z</time>
      </trkpt>
      <trkpt lat="43.20891" lon="5.79661">
        <ele>143.58387504701</ele>
        <time>2022-05-21T20:09:59.133Z</time>
      </trkpt>
      <trkpt lat="43.20902" lon="5.79675">
        <ele>143.48150098806</ele>
        <time>2022-05-21T20:10:02.743Z</time>
      </trkpt>
      <trkpt lat="43.20933" lon="5.79691">
        <ele>143.23655507041</ele>
        <time>2022-05-21T20:10:06.358Z</time>
      </trkpt>
      <trkpt lat="43.20952" lon="5.79695">
        <ele>142.72074488097</ele>
        <time>2022-05-21T20:10:09.976Z</time>
      </trkpt>
      <trkpt lat="43.20971" lon="5.7969">
        <ele>142.17757342864</ele>
        <time>2022-05-21T20:10:13.598Z</time>
      </trkpt>
      <trkpt lat="43.20996" lon="5.79656">
        <ele>141.55127556809</ele>
        <time>2022-05-21T20:10:17.225Z</time>
      </trkpt>
      <trkpt lat="43.21032" lon="5.79621">
        <ele>140.81451656736</ele>
        <time>2022-05-21T20:10:20.859Z</time>
      </trkpt>
      <trkpt lat="43.21096" lon="5.79594">
        <ele>140.12149132852</ele>
        <time>2022-05-21T20:10:24.504Z</time>
      </trkpt>
      <trkpt lat="43.21162" lon="5.79573">
        <ele>139.61915851136</ele>
        <time>2022-05-21T20:10:28.160Z</time>
      </trkpt>
      <trkpt lat="43.21177" lon="5.79566">
        <ele>138.76464059</ele>
        <time>2022-05-21T20:10:31.818Z</time>
      </trkpt>
      <trkpt lat="43.21217" lon="5.7953">
        <ele>137.72581449099</ele>
        <time>2022-05-21T20:10:35.484Z</time>
      </trkpt>
      <trkpt lat="43.21297" lon="5.79432">
        <ele>136.48291723408</ele>
        <time>2022-05-21T20:10:39.167Z</time>
      </trkpt>
      <trkpt lat="43.21331" lon="5.79402">
        <ele>135.43223403664</ele>
        <time>2022-05-21T20:10:42.857Z</time>
      </trkpt>
      <trkpt lat="43.21363" lon="5.79364">
        <ele>134.30228524567</ele>
        <time>2022-05-21T20:10:46.553Z</time>
      </trkpt>
      <trkpt lat="43.21379" lon="5.79337">
        <ele>133.28686895265</ele>
        <time>2022-05-21T20:10:50.254Z</time>
      </trkpt>
      <trkpt lat="43.21382" lon="5.79328">
        <ele>132.3460870509</ele>
        <time>2022-05-21T20:10:53.956Z</time>
      </trkpt>
      <trkpt lat="43.21381" lon="5.7932">
        <ele>131.38320442001</ele>
        <time>2022-05-21T20:10:57.659Z</time>
      </trkpt>
      <trkpt lat="43.21377" lon="5.79314">
        <ele>130.41787387167</ele>
        <time>2022-05-21T20:11:01.363Z</time>
      </trkpt>
      <trkpt lat="43.2135" lon="5.793">
        <ele>129.37939283363</ele>
        <time>2022-05-21T20:11:05.071Z</time>
      </trkpt>
      <trkpt lat="43.21338" lon="5.79291">
        <ele>128.4846593441</ele>
        <time>2022-05-21T20:11:08.781Z</time>
      </trkpt>
      <trkpt lat="43.21326" lon="5.79273">
        <ele>127.63758338061</ele>
        <time>2022-05-21T20:11:12.494Z</time>
      </trkpt>
      <trkpt lat="43.21311" lon="5.79244">
        <ele>126.81783127072</ele>
        <time>2022-05-21T20:11:16.211Z</time>
      </trkpt>
      <trkpt lat="43.21293" lon="5.79217">
        <ele>125.97141184126</ele>
        <time>2022-05-21T20:11:19.933Z</time>
      </trkpt>
      <trkpt lat="43.21282" lon="5.79195">
        <ele>125.15359138994</ele>
        <time>2022-05-21T20:11:23.658Z</time>
      </trkpt>
      <trkpt lat="43.21278" lon="5.79172">
        <ele>124.36081145345</ele>
        <time>2022-05-21T20:11:27.386Z</time>
      </trkpt>
      <trkpt lat="43.21278" lon="5.79154">
        <ele>123.74444985385</ele>
        <time>2022-05-21T20:11:31.116Z</time>
      </trkpt>
      <trkpt lat="43.21281" lon="5.79137">
        <ele>123.11738849155</ele>
        <time>2022-05-21T20:11:34.848Z</time>
      </trkpt>
      <trkpt lat="43.2129" lon="5.79115">
        <ele>122.53865980331</ele>
        <time>2022-05-21T20:11:38.583Z</time>
      </trkpt>
      <trkpt lat="43.21299" lon="5.79093">
        <ele>121.95632378496</ele>
        <time>2022-05-21T20:11:42.321Z</time>
      </trkpt>
      <trkpt lat="43.21311" lon="5.79074">
        <ele>121.58940431023</ele>
        <time>2022-05-21T20:11:46.062Z</time>
      </trkpt>
      <trkpt lat="43.21332" lon="5.79051">
        <ele>121.13508776244</ele>
        <time>2022-05-21T20:11:49.807Z</time>
      </trkpt>
      <trkpt lat="43.21337" lon="5.79039">
        <ele>120.76022432212</ele>
        <time>2022-05-21T20:11:53.553Z</time>
      </trkpt>
      <trkpt lat="43.21341" lon="5.79022">
        <ele>120.42966062125</ele>
        <time>2022-05-21T20:11:57.301Z</time>
      </trkpt>
      <trkpt lat="43.21341" lon="5.79008">
        <ele>120.08333241699</ele>
        <time>2022-05-21T20:12:01.051Z</time>
      </trkpt>
      <trkpt lat="43.21341" lon="5.79008">
        <ele>119.78975413651</ele>
        <time>2022-05-21T20:12:04.801Z</time>
      </trkpt>
      <trkpt lat="43.2134" lon="5.78979">
        <ele>119.53893430952</ele>
        <time>2022-05-21T20:12:08.554Z</time>
      </trkpt>
      <trkpt lat="43.21338" lon="5.7896">
        <ele>119.31601349319</ele>
        <time>2022-05-21T20:12:12.310Z</time>
      </trkpt>
      <trkpt lat="43.21335" lon="5.78948">
        <ele>119.08748913151</ele>
        <time>2022-05-21T20:12:16.067Z</time>
      </trkpt>
      <trkpt lat="43.21327" lon="5.78937">
        <ele>118.85795147292</ele>
        <time>2022-05-21T20:12:19.826Z</time>
      </trkpt>
      <trkpt lat="43.21314" lon="5.7893">
        <ele>118.56819155319</ele>
        <time>2022-05-21T20:12:23.587Z</time>
      </trkpt>
      <trkpt lat="43.21294" lon="5.78924">
        <ele>118.23175031119</ele>
        <time>2022-05-21T20:12:27.352Z</time>
      </trkpt>
      <trkpt lat="43.2124" lon="5.78916">
        <ele>118.12824606509</ele>
        <time>2022-05-21T20:12:31.125Z</time>
      </trkpt>
      <trkpt lat="43.21226" lon="5.78905">
        <ele>118.04128132075</ele>
        <time>2022-05-21T20:12:34.901Z</time>
      </trkpt>
      <trkpt lat="43.21218" lon="5.78885">
        <ele>117.7361596738</ele>
        <time>2022-05-21T20:12:38.680Z</time>
      </trkpt>
      <trkpt lat="43.21209" lon="5.78834">
        <ele>117.1946563089</ele>
        <time>2022-05-21T20:12:42.465Z</time>
      </trkpt>
      <trkpt lat="43.21172" lon="5.7869">
        <ele>117.17210874342</ele>
        <time>2022-05-21T20:12:46.268Z</time>
      </trkpt>
      <trkpt lat="43.21159" lon="5.78649">
        <ele>116.76816311222</ele>
        <time>2022-05-21T20:12:50.076Z</time>
      </trkpt>
      <trkpt lat="43.21144" lon="5.78629">
        <ele>116.5802993573</ele>
        <time>2022-05-21T20:12:53.887Z</time>
      </trkpt>
      <trkpt lat="43.21095" lon="5.78578">
        <ele>116.38913576573</ele>
        <time>2022-05-21T20:12:57.708Z</time>
      </trkpt>
      <trkpt lat="43.21089" lon="5.78571">
        <ele>116.16911995881</ele>
        <time>2022-05-21T20:13:01.530Z</time>
      </trkpt>
      <trkpt lat="43.21089" lon="5.78571">
        <ele>115.99468209478</ele>
        <time>2022-05-21T20:13:05.352Z</time>
      </trkpt>
      <trkpt lat="43.21052" lon="5.78526">
        <ele>115.70058783715</ele>
        <time>2022-05-21T20:13:09.182Z</time>
      </trkpt>
      <trkpt lat="43.21009" lon="5.78459">
        <ele>115.57367079757</ele>
        <time>2022-05-21T20:13:13.023Z</time>
      </trkpt>
      <trkpt lat="43.21004" lon="5.78441">
        <ele>115.42193584567</ele>
        <time>2022-05-21T20:13:16.866Z</time>
      </trkpt>
      <trkpt lat="43.21004" lon="5.78429">
        <ele>115.33607469999</ele>
        <time>2022-05-21T20:13:20.710Z</time>
      </trkpt>
      <trkpt lat="43.2101" lon="5.78413">
        <ele>115.26528004477</ele>
        <time>2022-05-21T20:13:24.556Z</time>
      </trkpt>
      <trkpt lat="43.21053" lon="5.78322">
        <ele>115.11920855314</ele>
        <time>2022-05-21T20:13:28.415Z</time>
      </trkpt>
      <trkpt lat="43.21069" lon="5.78303">
        <ele>115.28431512564</ele>
        <time>2022-05-21T20:13:32.277Z</time>
      </trkpt>
      <trkpt lat="43.21075" lon="5.78287">
        <ele>115.47417991412</ele>
        <time>2022-05-21T20:13:36.141Z</time>
      </trkpt>
      <trkpt lat="43.21076" lon="5.78274">
        <ele>115.64953365295</ele>
        <time>2022-05-21T20:13:40.007Z</time>
      </trkpt>
      <trkpt lat="43.21072" lon="5.78265">
        <ele>115.82370300088</ele>
        <time>2022-05-21T20:13:43.874Z</time>
      </trkpt>
      <trkpt lat="43.21082" lon="5.78231">
        <ele>116.10171012028</ele>
        <time>2022-05-21T20:13:47.746Z</time>
      </trkpt>
      <trkpt lat="43.21085" lon="5.78207">
        <ele>116.5017697086</ele>
        <time>2022-05-21T20:13:51.620Z</time>
      </trkpt>
      <trkpt lat="43.21092" lon="5.78127">
        <ele>116.9186523207</ele>
        <time>2022-05-21T20:13:55.504Z</time>
      </trkpt>
      <trkpt lat="43.21102" lon="5.78003">
        <ele>117.36341871684</ele>
        <time>2022-05-21T20:13:59.402Z</time>
      </trkpt>
      <trkpt lat="43.21106" lon="5.77973">
        <ele>117.63243920413</ele>
        <time>2022-05-21T20:14:03.304Z</time>
      </trkpt>
      <trkpt lat="43.21113" lon="5.77954">
        <ele>117.89110145808</ele>
        <time>2022-05-21T20:14:07.209Z</time>
      </trkpt>
      <trkpt lat="43.21122" lon="5.77937">
        <ele>118.22688061004</ele>
        <time>2022-05-21T20:14:11.116Z</time>
      </trkpt>
      <trkpt lat="43.21136" lon="5.77916">
        <ele>118.58899974573</ele>
        <time>2022-05-21T20:14:15.026Z</time>
      </trkpt>
      <trkpt lat="43.21175" lon="5.77873">
        <ele>118.93597714126</ele>
        <time>2022-05-21T20:14:18.944Z</time>
      </trkpt>
      <trkpt lat="43.21351" lon="5.77733">
        <ele>119.32933771678</ele>
        <time>2022-05-21T20:14:22.895Z</time>
      </trkpt>
      <trkpt lat="43.21351" lon="5.77733">
        <ele>119.60316838595</ele>
        <time>2022-05-21T20:14:26.846Z</time>
      </trkpt>
      <trkpt lat="43.21422" lon="5.77677">
        <ele>119.95902229936</ele>
        <time>2022-05-21T20:14:30.810Z</time>
      </trkpt>
      <trkpt lat="43.21422" lon="5.77677">
        <ele>120.16417988167</ele>
        <time>2022-05-21T20:14:34.774Z</time>
      </trkpt>
      <trkpt lat="43.21444" lon="5.77658">
        <ele>120.33771670746</ele>
        <time>2022-05-21T20:14:38.742Z</time>
      </trkpt>
      <trkpt lat="43.21463" lon="5.77644">
        <ele>120.49566839138</ele>
        <time>2022-05-21T20:14:42.714Z</time>
      </trkpt>
      <trkpt lat="43.2146" lon="5.77639">
        <ele>120.56598299429</ele>
        <time>2022-05-21T20:14:46.686Z</time>
      </trkpt>
      <trkpt lat="43.2145" lon="5.77631">
        <ele>120.58709528812</ele>
        <time>2022-05-21T20:14:50.660Z</time>
      </trkpt>
      <trkpt lat="43.21442" lon="5.77637">
        <ele>120.53327020823</ele>
        <time>2022-05-21T20:14:54.636Z</time>
      </trkpt>
      <trkpt lat="43.21428" lon="5.77637">
        <ele>120.42929273655</ele>
        <time>2022-05-21T20:14:58.614Z</time>
      </trkpt>
      <trkpt lat="43.21416" lon="5.77641">
        <ele>120.30534765459</ele>
        <time>2022-05-21T20:15:02.594Z</time>
      </trkpt>
      <trkpt lat="43.21369" lon="5.77666">
        <ele>120.06183541759</ele>
        <time>2022-05-21T20:15:06.582Z</time>
      </trkpt>
      <trkpt lat="43.21335" lon="5.77677">
        <ele>119.82665618177</ele>
        <time>2022-05-21T20:15:10.575Z</time>
      </trkpt>
      <trkpt lat="43.2133" lon="5.7768">
        <ele>119.5862805226</ele>
        <time>2022-05-21T20:15:14.569Z</time>
      </trkpt>
      <trkpt lat="43.2133" lon="5.7768">
        <ele>119.32013656857</ele>
        <time>2022-05-21T20:15:18.563Z</time>
      </trkpt>
      <trkpt lat="43.21319" lon="5.77688">
        <ele>119.00662982822</ele>
        <time>2022-05-21T20:15:22.559Z</time>
      </trkpt>
      <trkpt lat="43.21294" lon="5.77713">
        <ele>118.65415781667</ele>
        <time>2022-05-21T20:15:26.560Z</time>
      </trkpt>
      <trkpt lat="43.21268" lon="5.77747">
        <ele>118.29140518907</ele>
        <time>2022-05-21T20:15:30.567Z</time>
      </trkpt>
      <trkpt lat="43.21259" lon="5.77753">
        <ele>117.94661309729</ele>
        <time>2022-05-21T20:15:34.576Z</time>
      </trkpt>
      <trkpt lat="43.21225" lon="5.77765">
        <ele>117.52288589652</ele>
        <time>2022-05-21T20:15:38.590Z</time>
      </trkpt>
      <trkpt lat="43.21202" lon="5.7777">
        <ele>117.1867062567</ele>
        <time>2022-05-21T20:15:42.608Z</time>
      </trkpt>
      <trkpt lat="43.21202" lon="5.7777">
        <ele>116.88335775496</ele>
        <time>2022-05-21T20:15:46.626Z</time>
      </trkpt>
      <trkpt lat="43.21199" lon="5.77753">
        <ele>116.57341322976</ele>
        <time>2022-05-21T20:15:50.646Z</time>
      </trkpt>
      <trkpt lat="43.21191" lon="5.77738">
        <ele>116.31167897256</ele>
        <time>2022-05-21T20:15:54.668Z</time>
      </trkpt>
      <trkpt lat="43.21187" lon="5.77732">
        <ele>116.07685914355</ele>
        <time>2022-05-21T20:15:58.691Z</time>
      </trkpt>
      <trkpt lat="43.21163" lon="5.77712">
        <ele>115.82602264332</ele>
        <time>2022-05-21T20:16:02.719Z</time>
      </trkpt>
      <trkpt lat="43.2112" lon="5.77654">
        <ele>115.44107404461</ele>
        <time>2022-05-21T20:16:06.756Z</time>
      </trkpt>
      <trkpt lat="43.21113" lon="5.77643">
        <ele>115.28429648814</ele>
        <time>2022-05-21T20:16:10.795Z</time>
      </trkpt>
      <trkpt lat="43.21107" lon="5.77628">
        <ele>115.15984489966</ele>
        <time>2022-05-21T20:16:14.836Z</time>
      </trkpt>
      <trkpt lat="43.21102" lon="5.77613">
        <ele>115.07327723615</ele>
        <time>2022-05-21T20:16:18.879Z</time>
      </trkpt>
      <trkpt lat="43.21093" lon="5.77584">
        <ele>115.00900002404</ele>
        <time>2022-05-21T20:16:22.926Z</time>
      </trkpt>
      <trkpt lat="43.21088" lon="5.77572">
        <ele>115.01902159047</ele>
        <time>2022-05-21T20:16:26.974Z</time>
      </trkpt>
      <trkpt lat="43.21077" lon="5.7755">
        <ele>115.07941935142</ele>
        <time>2022-05-21T20:16:31.025Z</time>
      </trkpt>
      <trkpt lat="43.21051" lon="5.77501">
        <ele>115.34599232416</ele>
        <time>2022-05-21T20:16:35.084Z</time>
      </trkpt>
      <trkpt lat="43.21037" lon="5.77485">
        <ele>115.49293963601</ele>
        <time>2022-05-21T20:16:39.145Z</time>
      </trkpt>
      <trkpt lat="43.20989" lon="5.77455">
        <ele>115.74268345144</ele>
        <time>2022-05-21T20:16:43.215Z</time>
      </trkpt>
      <trkpt lat="43.20961" lon="5.77442">
        <ele>115.87527760892</ele>
        <time>2022-05-21T20:16:47.290Z</time>
      </trkpt>
      <trkpt lat="43.20961" lon="5.77442">
        <ele>115.86953519047</ele>
        <time>2022-05-21T20:16:51.365Z</time>
      </trkpt>
      <trkpt lat="43.20961" lon="5.77442">
        <ele>115.82329753391</ele>
        <time>2022-05-21T20:16:55.440Z</time>
      </trkpt>
      <trkpt lat="43.2094" lon="5.77436">
        <ele>115.70768565717</ele>
        <time>2022-05-21T20:16:59.518Z</time>
      </trkpt>
      <trkpt lat="43.20931" lon="5.77431">
        <ele>115.51803904076</ele>
        <time>2022-05-21T20:17:03.598Z</time>
      </trkpt>
      <trkpt lat="43.20922" lon="5.77422">
        <ele>115.26150421532</ele>
        <time>2022-05-21T20:17:07.679Z</time>
      </trkpt>
      <trkpt lat="43.20914" lon="5.77408">
        <ele>114.97082855808</ele>
        <time>2022-05-21T20:17:11.762Z</time>
      </trkpt>
      <trkpt lat="43.2091" lon="5.77385">
        <ele>114.62264906975</ele>
        <time>2022-05-21T20:17:15.848Z</time>
      </trkpt>
      <trkpt lat="43.2091" lon="5.77289">
        <ele>114.03129612617</ele>
        <time>2022-05-21T20:17:19.945Z</time>
      </trkpt>
      <trkpt lat="43.2091" lon="5.77289">
        <ele>113.57220367765</ele>
        <time>2022-05-21T20:17:24.042Z</time>
      </trkpt>
      <trkpt lat="43.20906" lon="5.77263">
        <ele>113.09539905854</ele>
        <time>2022-05-21T20:17:28.143Z</time>
      </trkpt>
      <trkpt lat="43.209" lon="5.7725">
        <ele>112.52400036537</ele>
        <time>2022-05-21T20:17:32.245Z</time>
      </trkpt>
      <trkpt lat="43.20879" lon="5.77221">
        <ele>111.80406971211</ele>
        <time>2022-05-21T20:17:36.352Z</time>
      </trkpt>
      <trkpt lat="43.20867" lon="5.77209">
        <ele>111.06640522157</ele>
        <time>2022-05-21T20:17:40.461Z</time>
      </trkpt>
      <trkpt lat="43.20845" lon="5.77196">
        <ele>110.26589112126</ele>
        <time>2022-05-21T20:17:44.574Z</time>
      </trkpt>
      <trkpt lat="43.20812" lon="5.7717">
        <ele>109.45506960735</ele>
        <time>2022-05-21T20:17:48.693Z</time>
      </trkpt>
      <trkpt lat="43.2079" lon="5.77157">
        <ele>108.56685822707</ele>
        <time>2022-05-21T20:17:52.816Z</time>
      </trkpt>
      <trkpt lat="43.20693" lon="5.77106">
        <ele>107.5738876374</ele>
        <time>2022-05-21T20:17:56.956Z</time>
      </trkpt>
      <trkpt lat="43.20649" lon="5.77076">
        <ele>106.61895853412</ele>
        <time>2022-05-21T20:18:01.104Z</time>
      </trkpt>
      <trkpt lat="43.20639" lon="5.77067">
        <ele>105.71536881182</ele>
        <time>2022-05-21T20:18:05.254Z</time>
      </trkpt>
      <trkpt lat="43.20624" lon="5.77049">
        <ele>104.77682387968</ele>
        <time>2022-05-21T20:18:09.407Z</time>
      </trkpt>
      <trkpt lat="43.20572" lon="5.76971">
        <ele>103.7006455206</ele>
        <time>2022-05-21T20:18:13.572Z</time>
      </trkpt>
      <trkpt lat="43.20565" lon="5.76964">
        <ele>102.82610612528</ele>
        <time>2022-05-21T20:18:17.739Z</time>
      </trkpt>
      <trkpt lat="43.20558" lon="5.76959">
        <ele>101.96673385251</ele>
        <time>2022-05-21T20:18:21.907Z</time>
      </trkpt>
      <trkpt lat="43.20558" lon="5.76959">
        <ele>101.12694396724</ele>
        <time>2022-05-21T20:18:26.075Z</time>
      </trkpt>
      <trkpt lat="43.20549" lon="5.76956">
        <ele>100.30656641532</ele>
        <time>2022-05-21T20:18:30.244Z</time>
      </trkpt>
      <trkpt lat="43.20519" lon="5.76954">
        <ele>99.51274357557</ele>
        <time>2022-05-21T20:18:34.418Z</time>
      </trkpt>
      <trkpt lat="43.20458" lon="5.76949">
        <ele>98.69424671779</ele>
        <time>2022-05-21T20:18:38.602Z</time>
      </trkpt>
      <trkpt lat="43.20356" lon="5.76952">
        <ele>97.81367109797</ele>
        <time>2022-05-21T20:18:42.802Z</time>
      </trkpt>
      <trkpt lat="43.20348" lon="5.76953">
        <ele>97.11998512237</ele>
        <time>2022-05-21T20:18:47.004Z</time>
      </trkpt>
      <trkpt lat="43.2034" lon="5.76957">
        <ele>96.45195045736</ele>
        <time>2022-05-21T20:18:51.207Z</time>
      </trkpt>
      <trkpt lat="43.20321" lon="5.76971">
        <ele>95.82327391735</ele>
        <time>2022-05-21T20:18:55.413Z</time>
      </trkpt>
      <trkpt lat="43.20307" lon="5.76973">
        <ele>95.24776882116</ele>
        <time>2022-05-21T20:18:59.622Z</time>
      </trkpt>
      <trkpt lat="43.20281" lon="5.76968">
        <ele>94.67142863261</ele>
        <time>2022-05-21T20:19:03.835Z</time>
      </trkpt>
      <trkpt lat="43.20259" lon="5.76958">
        <ele>94.1343815131</ele>
        <time>2022-05-21T20:19:08.052Z</time>
      </trkpt>
      <trkpt lat="43.20252" lon="5.76952">
        <ele>93.66759516781</ele>
        <time>2022-05-21T20:19:12.270Z</time>
      </trkpt>
      <trkpt lat="43.20244" lon="5.76941">
        <ele>93.23307651079</ele>
        <time>2022-05-21T20:19:16.490Z</time>
      </trkpt>
      <trkpt lat="43.20238" lon="5.76925">
        <ele>92.83910980793</ele>
        <time>2022-05-21T20:19:20.712Z</time>
      </trkpt>
      <trkpt lat="43.20234" lon="5.76893">
        <ele>92.54091809735</ele>
        <time>2022-05-21T20:19:24.938Z</time>
      </trkpt>
      <trkpt lat="43.20225" lon="5.76871">
        <ele>92.22435580013</ele>
        <time>2022-05-21T20:19:29.166Z</time>
      </trkpt>
      <trkpt lat="43.20183" lon="5.7682">
        <ele>91.81980330867</ele>
        <time>2022-05-21T20:19:33.404Z</time>
      </trkpt>
      <trkpt lat="43.20163" lon="5.768">
        <ele>91.48931929156</ele>
        <time>2022-05-21T20:19:37.645Z</time>
      </trkpt>
      <trkpt lat="43.20148" lon="5.76791">
        <ele>91.19996952467</ele>
        <time>2022-05-21T20:19:41.889Z</time>
      </trkpt>
      <trkpt lat="43.20125" lon="5.76785">
        <ele>90.92073980552</ele>
        <time>2022-05-21T20:19:46.137Z</time>
      </trkpt>
      <trkpt lat="43.20125" lon="5.76785">
        <ele>90.68911249363</ele>
        <time>2022-05-21T20:19:50.385Z</time>
      </trkpt>
      <trkpt lat="43.20115" lon="5.76781">
        <ele>90.47375671216</ele>
        <time>2022-05-21T20:19:54.635Z</time>
      </trkpt>
      <trkpt lat="43.20098" lon="5.76769">
        <ele>90.28620244623</ele>
        <time>2022-05-21T20:19:58.888Z</time>
      </trkpt>
      <trkpt lat="43.20046" lon="5.76721">
        <ele>90.28195513046</ele>
        <time>2022-05-21T20:20:03.151Z</time>
      </trkpt>
      <trkpt lat="43.20035" lon="5.76708">
        <ele>90.04699312539</ele>
        <time>2022-05-21T20:20:07.416Z</time>
      </trkpt>
      <trkpt lat="43.20029" lon="5.76699">
        <ele>89.79230224902</ele>
        <time>2022-05-21T20:20:11.682Z</time>
      </trkpt>
      <trkpt lat="43.20022" lon="5.76684">
        <ele>89.51550730312</ele>
        <time>2022-05-21T20:20:15.951Z</time>
      </trkpt>
      <trkpt lat="43.19992" lon="5.76596">
        <ele>89.22186827905</ele>
        <time>2022-05-21T20:20:20.231Z</time>
      </trkpt>
      <trkpt lat="43.19989" lon="5.76575">
        <ele>88.85628164805</ele>
        <time>2022-05-21T20:20:24.513Z</time>
      </trkpt>
      <trkpt lat="43.19992" lon="5.76538">
        <ele>88.40543589934</ele>
        <time>2022-05-21T20:20:28.800Z</time>
      </trkpt>
      <trkpt lat="43.19996" lon="5.76474">
        <ele>87.90953150897</ele>
        <time>2022-05-21T20:20:33.094Z</time>
      </trkpt>
      <trkpt lat="43.19996" lon="5.76474">
        <ele>87.58203794794</ele>
        <time>2022-05-21T20:20:37.388Z</time>
      </trkpt>
      <trkpt lat="43.19999" lon="5.76417">
        <ele>87.21048155051</ele>
        <time>2022-05-21T20:20:41.689Z</time>
      </trkpt>
      <trkpt lat="43.2" lon="5.76394">
        <ele>86.85888330772</ele>
        <time>2022-05-21T20:20:45.993Z</time>
      </trkpt>
      <trkpt lat="43.20001" lon="5.76367">
        <ele>86.49683826195</ele>
        <time>2022-05-21T20:20:50.300Z</time>
      </trkpt>
      <trkpt lat="43.20002" lon="5.76337">
        <ele>86.15098159759</ele>
        <time>2022-05-21T20:20:54.610Z</time>
      </trkpt>
      <trkpt lat="43.20004" lon="5.76322">
        <ele>85.8224303303</ele>
        <time>2022-05-21T20:20:58.922Z</time>
      </trkpt>
      <trkpt lat="43.20008" lon="5.76314">
        <ele>85.48707243034</ele>
        <time>2022-05-21T20:21:03.235Z</time>
      </trkpt>
      <trkpt lat="43.20007" lon="5.76305">
        <ele>85.19632709263</ele>
        <time>2022-05-21T20:21:07.549Z</time>
      </trkpt>
      <trkpt lat="43.20001" lon="5.76297">
        <ele>84.92509746433</ele>
        <time>2022-05-21T20:21:11.864Z</time>
      </trkpt>
      <trkpt lat="43.19995" lon="5.76296">
        <ele>84.65233727399</ele>
        <time>2022-05-21T20:21:16.181Z</time>
      </trkpt>
      <trkpt lat="43.19993" lon="5.76297">
        <ele>84.37627337437</ele>
        <time>2022-05-21T20:21:20.498Z</time>
      </trkpt>
      <trkpt lat="43.19984" lon="5.76301">
        <ele>84.08856018394</ele>
        <time>2022-05-21T20:21:24.816Z</time>
      </trkpt>
      <trkpt lat="43.19966" lon="5.76303">
        <ele>83.8216990674</ele>
        <time>2022-05-21T20:21:29.137Z</time>
      </trkpt>
      <trkpt lat="43.19935" lon="5.76309">
        <ele>83.46592660468</ele>
        <time>2022-05-21T20:21:33.463Z</time>
      </trkpt>
      <trkpt lat="43.19894" lon="5.76325">
        <ele>83.25878394123</ele>
        <time>2022-05-21T20:21:37.796Z</time>
      </trkpt>
      <trkpt lat="43.19816" lon="5.76357">
        <ele>83.05380297857</ele>
        <time>2022-05-21T20:21:42.142Z</time>
      </trkpt>
      <trkpt lat="43.19793" lon="5.76362">
        <ele>82.75701791239</ele>
        <time>2022-05-21T20:21:46.492Z</time>
      </trkpt>
      <trkpt lat="43.1976" lon="5.76353">
        <ele>82.49960288368</ele>
        <time>2022-05-21T20:21:50.847Z</time>
      </trkpt>
      <trkpt lat="43.19752" lon="5.7635">
        <ele>82.31601227304</ele>
        <time>2022-05-21T20:21:55.203Z</time>
      </trkpt>
      <trkpt lat="43.19739" lon="5.76342">
        <ele>82.14981480738</ele>
        <time>2022-05-21T20:21:59.562Z</time>
      </trkpt>
      <trkpt lat="43.19739" lon="5.76342">
        <ele>82.01435523066</ele>
        <time>2022-05-21T20:22:03.921Z</time>
      </trkpt>
      <trkpt lat="43.19728" lon="5.76335">
        <ele>81.86356955852</ele>
        <time>2022-05-21T20:22:08.282Z</time>
      </trkpt>
      <trkpt lat="43.19719" lon="5.76327">
        <ele>81.72533912105</ele>
        <time>2022-05-21T20:22:12.644Z</time>
      </trkpt>
      <trkpt lat="43.19701" lon="5.76306">
        <ele>81.60515259891</ele>
        <time>2022-05-21T20:22:17.010Z</time>
      </trkpt>
      <trkpt lat="43.19682" lon="5.76279">
        <ele>81.50473241602</ele>
        <time>2022-05-21T20:22:21.381Z</time>
      </trkpt>
      <trkpt lat="43.19671" lon="5.76268">
        <ele>81.47950533458</ele>
        <time>2022-05-21T20:22:25.754Z</time>
      </trkpt>
      <trkpt lat="43.19651" lon="5.76254">
        <ele>81.5039619117</ele>
        <time>2022-05-21T20:22:30.130Z</time>
      </trkpt>
      <trkpt lat="43.19627" lon="5.76248">
        <ele>81.54302056205</ele>
        <time>2022-05-21T20:22:34.510Z</time>
      </trkpt>
      <trkpt lat="43.19623" lon="5.76248">
        <ele>81.42561026179</ele>
        <time>2022-05-21T20:22:38.891Z</time>
      </trkpt>
      <trkpt lat="43.19616" lon="5.76249">
        <ele>81.14687241127</ele>
        <time>2022-05-21T20:22:43.273Z</time>
      </trkpt>
      <trkpt lat="43.19597" lon="5.76254">
        <ele>81.04980494328</ele>
        <time>2022-05-21T20:22:47.658Z</time>
      </trkpt>
      <trkpt lat="43.19455" lon="5.76306">
        <ele>80.57495995109</ele>
        <time>2022-05-21T20:22:52.067Z</time>
      </trkpt>
      <trkpt lat="43.19424" lon="5.76319">
        <ele>80.15482542104</ele>
        <time>2022-05-21T20:22:56.481Z</time>
      </trkpt>
      <trkpt lat="43.19382" lon="5.7634">
        <ele>79.67488733806</ele>
        <time>2022-05-21T20:23:00.902Z</time>
      </trkpt>
      <trkpt lat="43.19354" lon="5.76362">
        <ele>79.35033462496</ele>
        <time>2022-05-21T20:23:05.328Z</time>
      </trkpt>
      <trkpt lat="43.19344" lon="5.76372">
        <ele>79.04570796383</ele>
        <time>2022-05-21T20:23:09.756Z</time>
      </trkpt>
      <trkpt lat="43.19332" lon="5.7639">
        <ele>78.72064933637</ele>
        <time>2022-05-21T20:23:14.187Z</time>
      </trkpt>
      <trkpt lat="43.19321" lon="5.76413">
        <ele>78.42154779889</ele>
        <time>2022-05-21T20:23:18.621Z</time>
      </trkpt>
      <trkpt lat="43.19307" lon="5.76431">
        <ele>78.09753041906</ele>
        <time>2022-05-21T20:23:23.058Z</time>
      </trkpt>
      <trkpt lat="43.19301" lon="5.76435">
        <ele>77.67879075328</ele>
        <time>2022-05-21T20:23:27.496Z</time>
      </trkpt>
      <trkpt lat="43.19293" lon="5.76436">
        <ele>77.2199395935</ele>
        <time>2022-05-21T20:23:31.936Z</time>
      </trkpt>
      <trkpt lat="43.19289" lon="5.76432">
        <ele>76.7264403531</ele>
        <time>2022-05-21T20:23:36.376Z</time>
      </trkpt>
      <trkpt lat="43.19282" lon="5.76426">
        <ele>76.1835644126</ele>
        <time>2022-05-21T20:23:40.818Z</time>
      </trkpt>
      <trkpt lat="43.19272" lon="5.7642">
        <ele>75.60796480336</ele>
        <time>2022-05-21T20:23:45.262Z</time>
      </trkpt>
      <trkpt lat="43.19272" lon="5.7642">
        <ele>75.03707024399</ele>
        <time>2022-05-21T20:23:49.706Z</time>
      </trkpt>
      <trkpt lat="43.19266" lon="5.7642">
        <ele>74.41585634224</ele>
        <time>2022-05-21T20:23:54.150Z</time>
      </trkpt>
      <trkpt lat="43.19258" lon="5.76423">
        <ele>73.76996877106</ele>
        <time>2022-05-21T20:23:58.596Z</time>
      </trkpt>
      <trkpt lat="43.19249" lon="5.76432">
        <ele>73.11739063891</ele>
        <time>2022-05-21T20:24:03.044Z</time>
      </trkpt>
      <trkpt lat="43.19245" lon="5.76444">
        <ele>72.4183995958</ele>
        <time>2022-05-21T20:24:07.493Z</time>
      </trkpt>
      <trkpt lat="43.19244" lon="5.7646">
        <ele>71.70431135603</ele>
        <time>2022-05-21T20:24:11.944Z</time>
      </trkpt>
      <trkpt lat="43.19235" lon="5.76474">
        <ele>70.92351397666</ele>
        <time>2022-05-21T20:24:16.397Z</time>
      </trkpt>
      <trkpt lat="43.19213" lon="5.76487">
        <ele>70.02455410534</ele>
        <time>2022-05-21T20:24:20.854Z</time>
      </trkpt>
      <trkpt lat="43.19163" lon="5.76501">
        <ele>68.95691757515</ele>
        <time>2022-05-21T20:24:25.319Z</time>
      </trkpt>
      <trkpt lat="43.19139" lon="5.76513">
        <ele>68.02580620606</ele>
        <time>2022-05-21T20:24:29.788Z</time>
      </trkpt>
      <trkpt lat="43.19102" lon="5.76531">
        <ele>67.22052516099</ele>
        <time>2022-05-21T20:24:34.264Z</time>
      </trkpt>
      <trkpt lat="43.19076" lon="5.76546">
        <ele>66.37750287481</ele>
        <time>2022-05-21T20:24:38.744Z</time>
      </trkpt>
      <trkpt lat="43.19046" lon="5.76567">
        <ele>65.41993456805</ele>
        <time>2022-05-21T20:24:43.229Z</time>
      </trkpt>
      <trkpt lat="43.19027" lon="5.76583">
        <ele>64.64909226424</ele>
        <time>2022-05-21T20:24:47.718Z</time>
      </trkpt>
      <trkpt lat="43.19027" lon="5.76583">
        <ele>63.8636022714</ele>
        <time>2022-05-21T20:24:52.207Z</time>
      </trkpt>
      <trkpt lat="43.18671" lon="5.76894">
        <ele>63.03145619076</ele>
        <time>2022-05-21T20:24:56.764Z</time>
      </trkpt>
      <trkpt lat="43.18634" lon="5.76922">
        <ele>62.21108857042</ele>
        <time>2022-05-21T20:25:01.327Z</time>
      </trkpt>
      <trkpt lat="43.18582" lon="5.76952">
        <ele>61.58650760391</ele>
        <time>2022-05-21T20:25:05.899Z</time>
      </trkpt>
      <trkpt lat="43.18582" lon="5.76952">
        <ele>60.92412251227</ele>
        <time>2022-05-21T20:25:10.471Z</time>
      </trkpt>
      <trkpt lat="43.18555" lon="5.76964">
        <ele>60.27311770288</ele>
        <time>2022-05-21T20:25:15.048Z</time>
      </trkpt>
      <trkpt lat="43.18514" lon="5.76974">
        <ele>59.58310143224</ele>
        <time>2022-05-21T20:25:19.632Z</time>
      </trkpt>
      <trkpt lat="43.18488" lon="5.7698">
        <ele>58.96008312496</ele>
        <time>2022-05-21T20:25:24.220Z</time>
      </trkpt>
      <trkpt lat="43.18428" lon="5.76988">
        <ele>58.49362342582</ele>
        <time>2022-05-21T20:25:28.817Z</time>
      </trkpt>
      <trkpt lat="43.18273" lon="5.77035">
        <ele>57.97675263032</ele>
        <time>2022-05-21T20:25:33.440Z</time>
      </trkpt>
      <trkpt lat="43.18166" lon="5.77086">
        <ele>57.54523199364</ele>
        <time>2022-05-21T20:25:38.081Z</time>
      </trkpt>
      <trkpt lat="43.18137" lon="5.77096">
        <ele>57.27939776768</ele>
        <time>2022-05-21T20:25:42.727Z</time>
      </trkpt>
      <trkpt lat="43.18085" lon="5.77098">
        <ele>57.00118835242</ele>
        <time>2022-05-21T20:25:47.381Z</time>
      </trkpt>
      <trkpt lat="43.18067" lon="5.77101">
        <ele>56.87790598965</ele>
        <time>2022-05-21T20:25:52.038Z</time>
      </trkpt>
      <trkpt lat="43.18044" lon="5.77104">
        <ele>56.79998307417</ele>
        <time>2022-05-21T20:25:56.699Z</time>
      </trkpt>
      <trkpt lat="43.18037" lon="5.77107">
        <ele>56.75900675818</ele>
        <time>2022-05-21T20:26:01.361Z</time>
      </trkpt>
      <trkpt lat="43.18029" lon="5.77114">
        <ele>56.77776344391</ele>
        <time>2022-05-21T20:26:06.024Z</time>
      </trkpt>
      <trkpt lat="43.18024" lon="5.77119">
        <ele>56.84425193773</ele>
        <time>2022-05-21T20:26:10.688Z</time>
      </trkpt>
      <trkpt lat="43.18019" lon="5.7713">
        <ele>56.96345552713</ele>
        <time>2022-05-21T20:26:15.354Z</time>
      </trkpt>
      <trkpt lat="43.18013" lon="5.77152">
        <ele>57.12226444138</ele>
        <time>2022-05-21T20:26:20.023Z</time>
      </trkpt>
      <trkpt lat="43.18009" lon="5.77191">
        <ele>57.28344045341</ele>
        <time>2022-05-21T20:26:24.696Z</time>
      </trkpt>
      <trkpt lat="43.18009" lon="5.77201">
        <ele>57.47971198186</ele>
        <time>2022-05-21T20:26:29.370Z</time>
      </trkpt>
      <trkpt lat="43.18009" lon="5.77201">
        <ele>57.6964776605</ele>
        <time>2022-05-21T20:26:34.044Z</time>
      </trkpt>
      <trkpt lat="43.18009" lon="5.77206">
        <ele>57.92736496614</ele>
        <time>2022-05-21T20:26:38.719Z</time>
      </trkpt>
      <trkpt lat="43.18015" lon="5.77229">
        <ele>58.17859705139</ele>
        <time>2022-05-21T20:26:43.397Z</time>
      </trkpt>
      <trkpt lat="43.1802" lon="5.77247">
        <ele>58.45855135849</ele>
        <time>2022-05-21T20:26:48.077Z</time>
      </trkpt>
      <trkpt lat="43.18019" lon="5.77262">
        <ele>58.72095890419</ele>
        <time>2022-05-21T20:26:52.759Z</time>
      </trkpt>
      <trkpt lat="43.18009" lon="5.77279">
        <ele>58.96684455575</ele>
        <time>2022-05-21T20:26:57.443Z</time>
      </trkpt>
      <trkpt lat="43.18001" lon="5.77283">
        <ele>59.15063796531</ele>
        <time>2022-05-21T20:27:02.129Z</time>
      </trkpt>
      <trkpt lat="43.17998" lon="5.77292">
        <ele>59.32957936779</ele>
        <time>2022-05-21T20:27:06.816Z</time>
      </trkpt>
      <trkpt lat="43.17981" lon="5.7731">
        <ele>59.54127540837</ele>
        <time>2022-05-21T20:27:11.506Z</time>
      </trkpt>
      <trkpt lat="43.17969" lon="5.77315">
        <ele>59.66492253154</ele>
        <time>2022-05-21T20:27:16.198Z</time>
      </trkpt>
      <trkpt lat="43.17934" lon="5.77322">
        <ele>59.735940097</ele>
        <time>2022-05-21T20:27:20.896Z</time>
      </trkpt>
      <trkpt lat="43.1787" lon="5.77334">
        <ele>59.86419845881</ele>
        <time>2022-05-21T20:27:25.604Z</time>
      </trkpt>
      <trkpt lat="43.17857" lon="5.77333">
        <ele>59.82119509616</ele>
        <time>2022-05-21T20:27:30.314Z</time>
      </trkpt>
      <trkpt lat="43.17799" lon="5.77319">
        <ele>59.7915612468</ele>
        <time>2022-05-21T20:27:35.034Z</time>
      </trkpt>
      <trkpt lat="43.17779" lon="5.77322">
        <ele>59.60090688497</ele>
        <time>2022-05-21T20:27:39.757Z</time>
      </trkpt>
      <trkpt lat="43.17773" lon="5.77324">
        <ele>59.40499562038</ele>
        <time>2022-05-21T20:27:44.481Z</time>
      </trkpt>
      <trkpt lat="43.1776" lon="5.77325">
        <ele>59.14252243486</ele>
        <time>2022-05-21T20:27:49.207Z</time>
      </trkpt>
      <trkpt lat="43.17742" lon="5.77322">
        <ele>58.77544145613</ele>
        <time>2022-05-21T20:27:53.936Z</time>
      </trkpt>
      <trkpt lat="43.17699" lon="5.77292">
        <ele>58.22576870064</ele>
        <time>2022-05-21T20:27:58.673Z</time>
      </trkpt>
      <trkpt lat="43.17656" lon="5.77277">
        <ele>57.71360933168</ele>
        <time>2022-05-21T20:28:03.417Z</time>
      </trkpt>
      <trkpt lat="43.17656" lon="5.77277">
        <ele>57.34131602613</ele>
        <time>2022-05-21T20:28:08.161Z</time>
      </trkpt>
      <trkpt lat="43.17646" lon="5.77267">
        <ele>56.90032003445</ele>
        <time>2022-05-21T20:28:12.907Z</time>
      </trkpt>
      <trkpt lat="43.17615" lon="5.77241">
        <ele>56.45283686841</ele>
        <time>2022-05-21T20:28:17.659Z</time>
      </trkpt>
      <trkpt lat="43.1759" lon="5.77237">
        <ele>56.08524047871</ele>
        <time>2022-05-21T20:28:22.415Z</time>
      </trkpt>
      <trkpt lat="43.17573" lon="5.77235">
        <ele>55.70170173596</ele>
        <time>2022-05-21T20:28:27.173Z</time>
      </trkpt>
      <trkpt lat="43.17572" lon="5.77237">
        <ele>55.33884263386</ele>
        <time>2022-05-21T20:28:31.932Z</time>
      </trkpt>
      <trkpt lat="43.17556" lon="5.77227">
        <ele>54.9388813351</ele>
        <time>2022-05-21T20:28:36.693Z</time>
      </trkpt>
      <trkpt lat="43.17546" lon="5.77224">
        <ele>54.58443567493</ele>
        <time>2022-05-21T20:28:41.456Z</time>
      </trkpt>
      <trkpt lat="43.1753" lon="5.77209">
        <ele>54.21660519631</ele>
        <time>2022-05-21T20:28:46.222Z</time>
      </trkpt>
      <trkpt lat="43.17494" lon="5.77155">
        <ele>53.90840843967</ele>
        <time>2022-05-21T20:28:50.997Z</time>
      </trkpt>
      <trkpt lat="43.17453" lon="5.77092">
        <ele>53.66321427947</ele>
        <time>2022-05-21T20:28:55.782Z</time>
      </trkpt>
      <trkpt lat="43.17445" lon="5.77086">
        <ele>53.45077639432</ele>
        <time>2022-05-21T20:29:00.568Z</time>
      </trkpt>
      <trkpt lat="43.1743" lon="5.77076">
        <ele>53.25165236063</ele>
        <time>2022-05-21T20:29:05.357Z</time>
      </trkpt>
      <trkpt lat="43.17364" lon="5.77073">
        <ele>52.94913226718</ele>
        <time>2022-05-21T20:29:10.156Z</time>
      </trkpt>
      <trkpt lat="43.17323" lon="5.77071">
        <ele>52.8610998654</ele>
        <time>2022-05-21T20:29:14.962Z</time>
      </trkpt>
      <trkpt lat="43.17218" lon="5.77069">
        <ele>52.80822332511</ele>
        <time>2022-05-21T20:29:19.785Z</time>
      </trkpt>
      <trkpt lat="43.17209" lon="5.77069">
        <ele>52.68465419131</ele>
        <time>2022-05-21T20:29:24.609Z</time>
      </trkpt>
      <trkpt lat="43.17194" lon="5.77071">
        <ele>52.60092105362</ele>
        <time>2022-05-21T20:29:29.436Z</time>
      </trkpt>
      <trkpt lat="43.17178" lon="5.77078">
        <ele>52.5333944153</ele>
        <time>2022-05-21T20:29:34.265Z</time>
      </trkpt>
      <trkpt lat="43.17166" lon="5.7709">
        <ele>52.39472435137</ele>
        <time>2022-05-21T20:29:39.097Z</time>
      </trkpt>
      <trkpt lat="43.17166" lon="5.7709">
        <ele>52.22792454928</ele>
        <time>2022-05-21T20:29:43.929Z</time>
      </trkpt>
      <trkpt lat="43.17143" lon="5.77111">
        <ele>51.97885821008</ele>
        <time>2022-05-21T20:29:48.765Z</time>
      </trkpt>
      <trkpt lat="43.171" lon="5.77137">
        <ele>51.57717464109</ele>
        <time>2022-05-21T20:29:53.609Z</time>
      </trkpt>
      <trkpt lat="43.17049" lon="5.77157">
        <ele>51.3519551342</ele>
        <time>2022-05-21T20:29:58.461Z</time>
      </trkpt>
      <trkpt lat="43.17012" lon="5.77165">
        <ele>51.24043765359</ele>
        <time>2022-05-21T20:30:03.319Z</time>
      </trkpt>
      <trkpt lat="43.16985" lon="5.77168">
        <ele>51.04463777616</ele>
        <time>2022-05-21T20:30:08.181Z</time>
      </trkpt>
      <trkpt lat="43.1693" lon="5.77166">
        <ele>50.79793990894</ele>
        <time>2022-05-21T20:30:13.052Z</time>
      </trkpt>
      <trkpt lat="43.16912" lon="5.77162">
        <ele>50.42811403816</ele>
        <time>2022-05-21T20:30:17.926Z</time>
      </trkpt>
      <trkpt lat="43.16896" lon="5.77156">
        <ele>49.99514439574</ele>
        <time>2022-05-21T20:30:22.803Z</time>
      </trkpt>
      <trkpt lat="43.16886" lon="5.77149">
        <ele>49.54281541327</ele>
        <time>2022-05-21T20:30:27.682Z</time>
      </trkpt>
      <trkpt lat="43.16876" lon="5.77134">
        <ele>49.01451546264</ele>
        <time>2022-05-21T20:30:32.563Z</time>
      </trkpt>
      <trkpt lat="43.16867" lon="5.77115">
        <ele>48.42545837806</ele>
        <time>2022-05-21T20:30:37.447Z</time>
      </trkpt>
      <trkpt lat="43.16847" lon="5.77024">
        <ele>47.86305140532</ele>
        <time>2022-05-21T20:30:42.342Z</time>
      </trkpt>
      <trkpt lat="43.16839" lon="5.77006">
        <ele>47.37855383864</ele>
        <time>2022-05-21T20:30:47.239Z</time>
      </trkpt>
      <trkpt lat="43.16831" lon="5.76991">
        <ele>46.80791842879</ele>
        <time>2022-05-21T20:30:52.138Z</time>
      </trkpt>
      <trkpt lat="43.16817" lon="5.76974">
        <ele>46.19345747072</ele>
        <time>2022-05-21T20:30:57.040Z</time>
      </trkpt>
      <trkpt lat="43.16735" lon="5.76911">
        <ele>45.46154234953</ele>
        <time>2022-05-21T20:31:01.957Z</time>
      </trkpt>
      <trkpt lat="43.16656" lon="5.7685">
        <ele>44.88892268931</ele>
        <time>2022-05-21T20:31:06.889Z</time>
      </trkpt>
      <trkpt lat="43.16639" lon="5.76843">
        <ele>44.41978329947</ele>
        <time>2022-05-21T20:31:11.824Z</time>
      </trkpt>
      <trkpt lat="43.16583" lon="5.76835">
        <ele>44.00827082767</ele>
        <time>2022-05-21T20:31:16.768Z</time>
      </trkpt>
      <trkpt lat="43.16567" lon="5.76828">
        <ele>43.62412861164</ele>
        <time>2022-05-21T20:31:21.714Z</time>
      </trkpt>
      <trkpt lat="43.16552" lon="5.7682">
        <ele>43.26318757438</ele>
        <time>2022-05-21T20:31:26.663Z</time>
      </trkpt>
      <trkpt lat="43.16537" lon="5.76805">
        <ele>42.94292797722</ele>
        <time>2022-05-21T20:31:31.615Z</time>
      </trkpt>
      <trkpt lat="43.16514" lon="5.76767">
        <ele>42.69463957395</ele>
        <time>2022-05-21T20:31:36.573Z</time>
      </trkpt>
      <trkpt lat="43.16508" lon="5.76746">
        <ele>42.42788253722</ele>
        <time>2022-05-21T20:31:41.533Z</time>
      </trkpt>
      <trkpt lat="43.16504" lon="5.76725">
        <ele>42.16096489245</ele>
        <time>2022-05-21T20:31:46.496Z</time>
      </trkpt>
      <trkpt lat="43.16494" lon="5.76682">
        <ele>41.91872966227</ele>
        <time>2022-05-21T20:31:51.464Z</time>
      </trkpt>
      <trkpt lat="43.16485" lon="5.76648">
        <ele>41.68887617883</ele>
        <time>2022-05-21T20:31:56.436Z</time>
      </trkpt>
      <trkpt lat="43.16473" lon="5.76614">
        <ele>41.38606912362</ele>
        <time>2022-05-21T20:32:01.413Z</time>
      </trkpt>
      <trkpt lat="43.1646" lon="5.76586">
        <ele>41.07374201705</ele>
        <time>2022-05-21T20:32:06.394Z</time>
      </trkpt>
      <trkpt lat="43.16452" lon="5.76572">
        <ele>40.77173173991</ele>
        <time>2022-05-21T20:32:11.377Z</time>
      </trkpt>
      <trkpt lat="43.16444" lon="5.76557">
        <ele>40.47404859924</ele>
        <time>2022-05-21T20:32:16.362Z</time>
      </trkpt>
      <trkpt lat="43.16405" lon="5.76512">
        <ele>40.17376055397</ele>
        <time>2022-05-21T20:32:21.355Z</time>
      </trkpt>
      <trkpt lat="43.16376" lon="5.76483">
        <ele>39.6914880841</ele>
        <time>2022-05-21T20:32:26.354Z</time>
      </trkpt>
      <trkpt lat="43.16352" lon="5.76464">
        <ele>39.23157164272</ele>
        <time>2022-05-21T20:32:31.357Z</time>
      </trkpt>
      <trkpt lat="43.16328" lon="5.7645">
        <ele>38.68161692279</ele>
        <time>2022-05-21T20:32:36.365Z</time>
      </trkpt>
      <trkpt lat="43.16326" lon="5.76449">
        <ele>38.23765465799</ele>
        <time>2022-05-21T20:32:41.373Z</time>
      </trkpt>
      <trkpt lat="43.16304" lon="5.76442">
        <ele>37.57204355542</ele>
        <time>2022-05-21T20:32:46.384Z</time>
      </trkpt>
      <trkpt lat="43.16241" lon="5.7643">
        <ele>36.79620699164</ele>
        <time>2022-05-21T20:32:51.406Z</time>
      </trkpt>
      <trkpt lat="43.16241" lon="5.7643">
        <ele>36.37097777526</ele>
        <time>2022-05-21T20:32:56.428Z</time>
      </trkpt>
      <trkpt lat="43.16194" lon="5.7642">
        <ele>35.99166205772</ele>
        <time>2022-05-21T20:33:01.457Z</time>
      </trkpt>
      <trkpt lat="43.16145" lon="5.76405">
        <ele>35.48188240126</ele>
        <time>2022-05-21T20:33:06.494Z</time>
      </trkpt>
      <trkpt lat="43.16099" lon="5.76386">
        <ele>35.07568449096</ele>
        <time>2022-05-21T20:33:11.539Z</time>
      </trkpt>
      <trkpt lat="43.16069" lon="5.76376">
        <ele>34.7459132789</ele>
        <time>2022-05-21T20:33:16.589Z</time>
      </trkpt>
      <trkpt lat="43.16053" lon="5.76371">
        <ele>34.44782898868</ele>
        <time>2022-05-21T20:33:21.642Z</time>
      </trkpt>
      <trkpt lat="43.16023" lon="5.7637">
        <ele>34.16220163876</ele>
        <time>2022-05-21T20:33:26.699Z</time>
      </trkpt>
      <trkpt lat="43.16004" lon="5.76375">
        <ele>33.96576165782</ele>
        <time>2022-05-21T20:33:31.759Z</time>
      </trkpt>
      <trkpt lat="43.15983" lon="5.76383">
        <ele>33.74462648898</ele>
        <time>2022-05-21T20:33:36.823Z</time>
      </trkpt>
      <trkpt lat="43.1596" lon="5.76399">
        <ele>33.46294196836</ele>
        <time>2022-05-21T20:33:41.891Z</time>
      </trkpt>
      <trkpt lat="43.15947" lon="5.76412">
        <ele>33.11550121355</ele>
        <time>2022-05-21T20:33:46.962Z</time>
      </trkpt>
      <trkpt lat="43.15934" lon="5.76432">
        <ele>32.6943507931</ele>
        <time>2022-05-21T20:33:52.036Z</time>
      </trkpt>
      <trkpt lat="43.15904" lon="5.76493">
        <ele>32.05409486152</ele>
        <time>2022-05-21T20:33:57.118Z</time>
      </trkpt>
      <trkpt lat="43.15893" lon="5.76509">
        <ele>31.5222808418</ele>
        <time>2022-05-21T20:34:02.203Z</time>
      </trkpt>
      <trkpt lat="43.15893" lon="5.76509">
        <ele>31.05831367394</ele>
        <time>2022-05-21T20:34:07.288Z</time>
      </trkpt>
      <trkpt lat="43.15889" lon="5.76512">
        <ele>30.58073166061</ele>
        <time>2022-05-21T20:34:12.374Z</time>
      </trkpt>
      <trkpt lat="43.15876" lon="5.76516">
        <ele>30.06816730972</ele>
        <time>2022-05-21T20:34:17.462Z</time>
      </trkpt>
      <trkpt lat="43.15848" lon="5.76518">
        <ele>29.5102357154</ele>
        <time>2022-05-21T20:34:22.554Z</time>
      </trkpt>
      <trkpt lat="43.15818" lon="5.76515">
        <ele>28.95224297607</ele>
        <time>2022-05-21T20:34:27.651Z</time>
      </trkpt>
      <trkpt lat="43.15818" lon="5.76515">
        <ele>28.42280821234</ele>
        <time>2022-05-21T20:34:32.748Z</time>
      </trkpt>
      <trkpt lat="43.15804" lon="5.76509">
        <ele>27.859029965</ele>
        <time>2022-05-21T20:34:37.847Z</time>
      </trkpt>
      <trkpt lat="43.15766" lon="5.76485">
        <ele>27.17154582221</ele>
        <time>2022-05-21T20:34:42.953Z</time>
      </trkpt>
      <trkpt lat="43.15698" lon="5.7643">
        <ele>26.48549266779</ele>
        <time>2022-05-21T20:34:48.072Z</time>
      </trkpt>
      <trkpt lat="43.15687" lon="5.76425">
        <ele>25.99422733662</ele>
        <time>2022-05-21T20:34:53.193Z</time>
      </trkpt>
      <trkpt lat="43.15663" lon="5.76422">
        <ele>25.47557593205</ele>
        <time>2022-05-21T20:34:58.318Z</time>
      </trkpt>
      <trkpt lat="43.15663" lon="5.76422">
        <ele>25.02235758422</ele>
        <time>2022-05-21T20:35:03.443Z</time>
      </trkpt>
      <trkpt lat="43.15631" lon="5.76423">
        <ele>24.43614354987</ele>
        <time>2022-05-21T20:35:08.573Z</time>
      </trkpt>
      <trkpt lat="43.15621" lon="5.76422">
        <ele>24.02836845923</ele>
        <time>2022-05-21T20:35:13.704Z</time>
      </trkpt>
      <trkpt lat="43.15564" lon="5.76409">
        <ele>23.74304352601</ele>
        <time>2022-05-21T20:35:18.844Z</time>
      </trkpt>
      <trkpt lat="43.15433" lon="5.7638">
        <ele>23.23934962196</ele>
        <time>2022-05-21T20:35:24.006Z</time>
      </trkpt>
      <trkpt lat="43.15382" lon="5.7637">
        <ele>23.08602248894</ele>
        <time>2022-05-21T20:35:29.176Z</time>
      </trkpt>
      <trkpt lat="43.15382" lon="5.7637">
        <ele>22.85440380217</ele>
        <time>2022-05-21T20:35:34.346Z</time>
      </trkpt>
      <trkpt lat="43.15357" lon="5.7637">
        <ele>22.75724199729</ele>
        <time>2022-05-21T20:35:39.520Z</time>
      </trkpt>
      <trkpt lat="43.15347" lon="5.76367">
        <ele>22.63831378796</ele>
        <time>2022-05-21T20:35:44.696Z</time>
      </trkpt>
      <trkpt lat="43.15347" lon="5.76367">
        <ele>22.50190476575</ele>
        <time>2022-05-21T20:35:49.872Z</time>
      </trkpt>
      <trkpt lat="43.15322" lon="5.76358">
        <ele>22.48415845513</ele>
        <time>2022-05-21T20:35:55.052Z</time>
      </trkpt>
      <trkpt lat="43.15304" lon="5.76355">
        <ele>22.3734712771</ele>
        <time>2022-05-21T20:36:00.235Z</time>
      </trkpt>
      <trkpt lat="43.15292" lon="5.76355">
        <ele>22.27203711777</ele>
        <time>2022-05-21T20:36:05.419Z</time>
      </trkpt>
      <trkpt lat="43.15256" lon="5.76368">
        <ele>22.10646361497</ele>
        <time>2022-05-21T20:36:10.609Z</time>
      </trkpt>
      <trkpt lat="43.15251" lon="5.7637">
        <ele>22.05382639345</ele>
        <time>2022-05-21T20:36:15.800Z</time>
      </trkpt>
      <trkpt lat="43.15251" lon="5.7637">
        <ele>22.0079741796</ele>
        <time>2022-05-21T20:36:20.991Z</time>
      </trkpt>
      <trkpt lat="43.15225" lon="5.76383">
        <ele>21.96736084405</ele>
        <time>2022-05-21T20:36:26.187Z</time>
      </trkpt>
      <trkpt lat="43.15157" lon="5.76443">
        <ele>21.91402521709</ele>
        <time>2022-05-21T20:36:31.396Z</time>
      </trkpt>
      <trkpt lat="43.15136" lon="5.7646">
        <ele>21.96813779104</ele>
        <time>2022-05-21T20:36:36.609Z</time>
      </trkpt>
      <trkpt lat="43.15114" lon="5.76473">
        <ele>21.94664163497</ele>
        <time>2022-05-21T20:36:41.825Z</time>
      </trkpt>
      <trkpt lat="43.15114" lon="5.76473">
        <ele>21.89682105524</ele>
        <time>2022-05-21T20:36:47.041Z</time>
      </trkpt>
      <trkpt lat="43.15057" lon="5.76491">
        <ele>21.82084480516</ele>
        <time>2022-05-21T20:36:52.267Z</time>
      </trkpt>
      <trkpt lat="43.15051" lon="5.76492">
        <ele>21.73770564848</ele>
        <time>2022-05-21T20:36:57.494Z</time>
      </trkpt>
      <trkpt lat="43.15051" lon="5.76492">
        <ele>21.65959135662</ele>
        <time>2022-05-21T20:37:02.721Z</time>
      </trkpt>
      <trkpt lat="43.15042" lon="5.76494">
        <ele>21.54541463855</ele>
        <time>2022-05-21T20:37:07.949Z</time>
      </trkpt>
      <trkpt lat="43.15032" lon="5.76491">
        <ele>21.40960708466</ele>
        <time>2022-05-21T20:37:13.179Z</time>
      </trkpt>
      <trkpt lat="43.14987" lon="5.76475">
        <ele>21.19801769158</ele>
        <time>2022-05-21T20:37:18.416Z</time>
      </trkpt>
      <trkpt lat="43.14967" lon="5.76465">
        <ele>20.97176115935</ele>
        <time>2022-05-21T20:37:23.657Z</time>
      </trkpt>
      <trkpt lat="43.14961" lon="5.76457">
        <ele>20.82394403658</ele>
        <time>2022-05-21T20:37:28.899Z</time>
      </trkpt>
      <trkpt lat="43.14955" lon="5.7645">
        <ele>20.69722195373</ele>
        <time>2022-05-21T20:37:34.142Z</time>
      </trkpt>
      <trkpt lat="43.1495" lon="5.76439">
        <ele>20.60358505757</ele>
        <time>2022-05-21T20:37:39.387Z</time>
      </trkpt>
      <trkpt lat="43.14948" lon="5.76427">
        <ele>20.52532947641</ele>
        <time>2022-05-21T20:37:44.633Z</time>
      </trkpt>
      <trkpt lat="43.14952" lon="5.7642">
        <ele>20.44359369414</ele>
        <time>2022-05-21T20:37:49.880Z</time>
      </trkpt>
      <trkpt lat="43.14955" lon="5.76406">
        <ele>20.35924344445</ele>
        <time>2022-05-21T20:37:55.129Z</time>
      </trkpt>
      <trkpt lat="43.14955" lon="5.76398">
        <ele>20.24234149686</ele>
        <time>2022-05-21T20:38:00.379Z</time>
      </trkpt>
      <trkpt lat="43.14951" lon="5.76378">
        <ele>20.08866469276</ele>
        <time>2022-05-21T20:38:05.631Z</time>
      </trkpt>
      <trkpt lat="43.14949" lon="5.76375">
        <ele>19.93032837002</ele>
        <time>2022-05-21T20:38:10.884Z</time>
      </trkpt>
      <trkpt lat="43.14949" lon="5.76375">
        <ele>19.7692409574</ele>
        <time>2022-05-21T20:38:16.137Z</time>
      </trkpt>
      <trkpt lat="43.14944" lon="5.76366">
        <ele>19.57944901461</ele>
        <time>2022-05-21T20:38:21.391Z</time>
      </trkpt>
      <trkpt lat="43.14933" lon="5.76358">
        <ele>19.38033915778</ele>
        <time>2022-05-21T20:38:26.647Z</time>
      </trkpt>
      <trkpt lat="43.14926" lon="5.76358">
        <ele>19.21063149755</ele>
        <time>2022-05-21T20:38:31.904Z</time>
      </trkpt>
      <trkpt lat="43.14926" lon="5.76358">
        <ele>18.99844966629</ele>
        <time>2022-05-21T20:38:37.161Z</time>
      </trkpt>
      <trkpt lat="43.14923" lon="5.76357">
        <ele>18.78206138845</ele>
        <time>2022-05-21T20:38:42.419Z</time>
      </trkpt>
      <trkpt lat="43.14916" lon="5.76358">
        <ele>18.51882284353</ele>
        <time>2022-05-21T20:38:47.678Z</time>
      </trkpt>
      <trkpt lat="43.14905" lon="5.76367">
        <ele>18.18334414548</ele>
        <time>2022-05-21T20:38:52.939Z</time>
      </trkpt>
      <trkpt lat="43.14903" lon="5.76371">
        <ele>17.900616622</ele>
        <time>2022-05-21T20:38:58.201Z</time>
      </trkpt>
      <trkpt lat="43.14903" lon="5.76371">
        <ele>17.62824292026</ele>
        <time>2022-05-21T20:39:03.463Z</time>
      </trkpt>
      <trkpt lat="43.14899" lon="5.76378">
        <ele>17.33499755813</ele>
        <time>2022-05-21T20:39:08.726Z</time>
      </trkpt>
      <trkpt lat="43.14895" lon="5.76393">
        <ele>16.97093036375</ele>
        <time>2022-05-21T20:39:13.990Z</time>
      </trkpt>
      <trkpt lat="43.14895" lon="5.76393">
        <ele>16.68111458509</ele>
        <time>2022-05-21T20:39:19.254Z</time>
      </trkpt>
      <trkpt lat="43.14895" lon="5.76393">
        <ele>16.97093036375</ele>
        <time>2022-05-21T20:39:24.518Z</time>
      </trkpt>
      <trkpt lat="43.14896" lon="5.76408">
        <ele>15.73702129624</ele>
        <time>2022-05-21T20:39:29.784Z</time>
      </trkpt>
      <trkpt lat="43.14896" lon="5.76411">
        <ele>15.43848868942</ele>
        <time>2022-05-21T20:39:35.050Z</time>
      </trkpt>
      <trkpt lat="43.14889" lon="5.76429">
        <ele>14.80768485885</ele>
        <time>2022-05-21T20:39:40.319Z</time>
      </trkpt>
      <trkpt lat="43.14889" lon="5.76429">
        <ele>14.53802541778</ele>
        <time>2022-05-21T20:39:45.588Z</time>
      </trkpt>
      <trkpt lat="43.14886" lon="5.76437">
        <ele>14.26030913001</ele>
        <time>2022-05-21T20:39:50.858Z</time>
      </trkpt>
      <trkpt lat="43.14878" lon="5.76449">
        <ele>13.99630600275</ele>
        <time>2022-05-21T20:39:56.130Z</time>
      </trkpt>
      <trkpt lat="43.14856" lon="5.76454">
        <ele>13.80131295256</ele>
        <time>2022-05-21T20:40:01.405Z</time>
      </trkpt>
      <trkpt lat="43.14843" lon="5.76452">
        <ele>13.56970657635</ele>
        <time>2022-05-21T20:40:06.683Z</time>
      </trkpt>
      <trkpt lat="43.14829" lon="5.76453">
        <ele>13.34374978444</ele>
        <time>2022-05-21T20:40:11.963Z</time>
      </trkpt>
      <trkpt lat="43.14829" lon="5.76453">
        <ele>13.12208068445</ele>
        <time>2022-05-21T20:40:17.243Z</time>
      </trkpt>
      <trkpt lat="43.14811" lon="5.76455">
        <ele>12.9363123128</ele>
        <time>2022-05-21T20:40:22.526Z</time>
      </trkpt>
      <trkpt lat="43.14795" lon="5.76459">
        <ele>12.73301036935</ele>
        <time>2022-05-21T20:40:27.811Z</time>
      </trkpt>
      <trkpt lat="43.14783" lon="5.76463">
        <ele>12.50008152673</ele>
        <time>2022-05-21T20:40:33.098Z</time>
      </trkpt>
      <trkpt lat="43.14757" lon="5.7648">
        <ele>12.24059928104</ele>
        <time>2022-05-21T20:40:38.390Z</time>
      </trkpt>
      <trkpt lat="43.14712" lon="5.76508">
        <ele>11.9997532407</ele>
        <time>2022-05-21T20:40:43.690Z</time>
      </trkpt>
      <trkpt lat="43.14712" lon="5.76508">
        <ele>11.82112864188</ele>
        <time>2022-05-21T20:40:48.990Z</time>
      </trkpt>
      <trkpt lat="43.14682" lon="5.76527">
        <ele>11.70516034065</ele>
        <time>2022-05-21T20:40:54.295Z</time>
      </trkpt>
      <trkpt lat="43.14671" lon="5.76533">
        <ele>11.52353421629</ele>
        <time>2022-05-21T20:40:59.602Z</time>
      </trkpt>
      <trkpt lat="43.14645" lon="5.76557">
        <ele>11.33319514737</ele>
        <time>2022-05-21T20:41:04.914Z</time>
      </trkpt>
      <trkpt lat="43.14634" lon="5.76567">
        <ele>11.16256076706</ele>
        <time>2022-05-21T20:41:10.228Z</time>
      </trkpt>
      <trkpt lat="43.14627" lon="5.76574">
        <ele>11.03542402343</ele>
        <time>2022-05-21T20:41:15.543Z</time>
      </trkpt>
      <trkpt lat="43.1461" lon="5.76604">
        <ele>11.01666555753</ele>
        <time>2022-05-21T20:41:20.863Z</time>
      </trkpt>
      <trkpt lat="43.14604" lon="5.76621">
        <ele>10.93482734245</ele>
        <time>2022-05-21T20:41:26.185Z</time>
      </trkpt>
      <trkpt lat="43.1458" lon="5.76711">
        <ele>10.77158934217</ele>
        <time>2022-05-21T20:41:31.518Z</time>
      </trkpt>
      <trkpt lat="43.14574" lon="5.76728">
        <ele>10.68461673841</ele>
        <time>2022-05-21T20:41:36.854Z</time>
      </trkpt>
      <trkpt lat="43.14574" lon="5.76728">
        <ele>10.63590309084</ele>
        <time>2022-05-21T20:41:42.190Z</time>
      </trkpt>
      <trkpt lat="43.14574" lon="5.7673">
        <ele>10.60260748486</ele>
        <time>2022-05-21T20:41:47.526Z</time>
      </trkpt>
      <trkpt lat="43.14566" lon="5.76744">
        <ele>10.63351187916</ele>
        <time>2022-05-21T20:41:52.864Z</time>
      </trkpt>
      <trkpt lat="43.14552" lon="5.76762">
        <ele>10.72041313278</ele>
        <time>2022-05-21T20:41:58.205Z</time>
      </trkpt>
      <trkpt lat="43.14539" lon="5.76775">
        <ele>10.77067520359</ele>
        <time>2022-05-21T20:42:03.548Z</time>
      </trkpt>
      <trkpt lat="43.14526" lon="5.7678">
        <ele>10.79283816736</ele>
        <time>2022-05-21T20:42:08.894Z</time>
      </trkpt>
      <trkpt lat="43.14526" lon="5.7678">
        <ele>10.84978885545</ele>
        <time>2022-05-21T20:42:14.240Z</time>
      </trkpt>
      <trkpt lat="43.1452" lon="5.7678">
        <ele>10.92700024475</ele>
        <time>2022-05-21T20:42:19.587Z</time>
      </trkpt>
      <trkpt lat="43.14515" lon="5.76784">
        <ele>11.00756976167</ele>
        <time>2022-05-21T20:42:24.935Z</time>
      </trkpt>
      <trkpt lat="43.14513" lon="5.76788">
        <ele>11.12381884116</ele>
        <time>2022-05-21T20:42:30.283Z</time>
      </trkpt>
      <trkpt lat="43.14512" lon="5.76797">
        <ele>11.25757640871</ele>
        <time>2022-05-21T20:42:35.632Z</time>
      </trkpt>
      <trkpt lat="43.14516" lon="5.76804">
        <ele>11.4187482184</ele>
        <time>2022-05-21T20:42:40.982Z</time>
      </trkpt>
      <trkpt lat="43.14519" lon="5.7682">
        <ele>11.60811737055</ele>
        <time>2022-05-21T20:42:46.334Z</time>
      </trkpt>
      <trkpt lat="43.14521" lon="5.76827">
        <ele>11.85521689578</ele>
        <time>2022-05-21T20:42:51.687Z</time>
      </trkpt>
      <trkpt lat="43.1452" lon="5.76839">
        <ele>12.13881133122</ele>
        <time>2022-05-21T20:42:57.041Z</time>
      </trkpt>
      <trkpt lat="43.1452" lon="5.76839">
        <ele>12.46035363509</ele>
        <time>2022-05-21T20:43:02.395Z</time>
      </trkpt>
      <trkpt lat="43.14476" lon="5.77014">
        <ele>13.00988846427</ele>
        <time>2022-05-21T20:43:07.771Z</time>
      </trkpt>
      <trkpt lat="43.14476" lon="5.77014">
        <ele>13.84180029457</ele>
        <time>2022-05-21T20:43:13.147Z</time>
      </trkpt>
      <trkpt lat="43.14472" lon="5.77032">
        <ele>14.35122887504</ele>
        <time>2022-05-21T20:43:18.525Z</time>
      </trkpt>
      <trkpt lat="43.14461" lon="5.7708">
        <ele>15.00620399862</ele>
        <time>2022-05-21T20:43:23.909Z</time>
      </trkpt>
      <trkpt lat="43.14461" lon="5.7708">
        <ele>15.55218593463</ele>
        <time>2022-05-21T20:43:29.293Z</time>
      </trkpt>
      <trkpt lat="43.14457" lon="5.77102">
        <ele>16.20285758231</ele>
        <time>2022-05-21T20:43:34.680Z</time>
      </trkpt>
      <trkpt lat="43.14449" lon="5.77116">
        <ele>16.86137894466</ele>
        <time>2022-05-21T20:43:40.069Z</time>
      </trkpt>
      <trkpt lat="43.14445" lon="5.77123">
        <ele>17.54318722256</ele>
        <time>2022-05-21T20:43:45.459Z</time>
      </trkpt>
      <trkpt lat="43.14446" lon="5.77133">
        <ele>18.26287187896</ele>
        <time>2022-05-21T20:43:50.850Z</time>
      </trkpt>
      <trkpt lat="43.1445" lon="5.77139">
        <ele>19.01406682856</ele>
        <time>2022-05-21T20:43:56.242Z</time>
      </trkpt>
      <trkpt lat="43.1445" lon="5.77139">
        <ele>19.78993172132</ele>
        <time>2022-05-21T20:44:01.634Z</time>
      </trkpt>
      <trkpt lat="43.14453" lon="5.77141">
        <ele>20.6074917237</ele>
        <time>2022-05-21T20:44:07.027Z</time>
      </trkpt>
      <trkpt lat="43.1446" lon="5.77138">
        <ele>21.46268701461</ele>
        <time>2022-05-21T20:44:12.421Z</time>
      </trkpt>
      <trkpt lat="43.14462" lon="5.77144">
        <ele>22.38690830691</ele>
        <time>2022-05-21T20:44:17.815Z</time>
      </trkpt>
      <trkpt lat="43.14474" lon="5.77167">
        <ele>23.39999745469</ele>
        <time>2022-05-21T20:44:23.213Z</time>
      </trkpt>
      <trkpt lat="43.14474" lon="5.77167">
        <ele>24.41179365856</ele>
        <time>2022-05-21T20:44:28.611Z</time>
      </trkpt>
      <trkpt lat="43.1449" lon="5.77192">
        <ele>25.46554376606</ele>
        <time>2022-05-21T20:44:34.013Z</time>
      </trkpt>
      <trkpt lat="43.14502" lon="5.77217">
        <ele>26.62752024823</ele>
        <time>2022-05-21T20:44:39.418Z</time>
      </trkpt>
      <trkpt lat="43.14519" lon="5.77262">
        <ele>27.92265628333</ele>
        <time>2022-05-21T20:44:44.829Z</time>
      </trkpt>
      <trkpt lat="43.14546" lon="5.77385">
        <ele>29.41352624972</ele>
        <time>2022-05-21T20:44:50.255Z</time>
      </trkpt>
      <trkpt lat="43.14541" lon="5.77401">
        <ele>31.94746855252</ele>
        <time>2022-05-21T20:44:55.683Z</time>
      </trkpt>
      <trkpt lat="43.14541" lon="5.77401">
        <ele>33.22527515557</ele>
        <time>2022-05-21T20:45:01.111Z</time>
      </trkpt>
      <trkpt lat="43.14546" lon="5.77385">
        <ele>34.46925197021</ele>
        <time>2022-05-21T20:45:06.541Z</time>
      </trkpt>
      <trkpt lat="43.14568" lon="5.77482">
        <ele>35.93132676007</ele>
        <time>2022-05-21T20:45:11.983Z</time>
      </trkpt>
      <trkpt lat="43.14586" lon="5.77516">
        <ele>37.34190326974</ele>
        <time>2022-05-21T20:45:17.430Z</time>
      </trkpt>
      <trkpt lat="43.14623" lon="5.77545">
        <ele>38.82270075507</ele>
        <time>2022-05-21T20:45:22.884Z</time>
      </trkpt>
      <trkpt lat="43.14637" lon="5.77561">
        <ele>40.22217987463</ele>
        <time>2022-05-21T20:45:28.341Z</time>
      </trkpt>
      <trkpt lat="43.14651" lon="5.77569">
        <ele>41.56822167084</ele>
        <time>2022-05-21T20:45:33.800Z</time>
      </trkpt>
      <trkpt lat="43.14688" lon="5.77587">
        <ele>42.91744665505</ele>
        <time>2022-05-21T20:45:39.265Z</time>
      </trkpt>
      <trkpt lat="43.14729" lon="5.77598">
        <ele>44.45146148689</ele>
        <time>2022-05-21T20:45:44.737Z</time>
      </trkpt>
      <trkpt lat="43.14749" lon="5.77606">
        <ele>45.87238515022</ele>
        <time>2022-05-21T20:45:50.212Z</time>
      </trkpt>
      <trkpt lat="43.14749" lon="5.77606">
        <ele>47.03971986458</ele>
        <time>2022-05-21T20:45:55.687Z</time>
      </trkpt>
      <trkpt lat="43.14763" lon="5.77618">
        <ele>48.28372295685</ele>
        <time>2022-05-21T20:46:01.165Z</time>
      </trkpt>
      <trkpt lat="43.14795" lon="5.77703">
        <ele>49.02759514152</ele>
        <time>2022-05-21T20:46:06.654Z</time>
      </trkpt>
      <trkpt lat="43.14797" lon="5.77709">
        <ele>50.04648045179</ele>
        <time>2022-05-21T20:46:12.144Z</time>
      </trkpt>
      <trkpt lat="43.14811" lon="5.77732">
        <ele>51.0462116859</ele>
        <time>2022-05-21T20:46:17.637Z</time>
      </trkpt>
      <trkpt lat="43.14824" lon="5.77745">
        <ele>52.04120181472</ele>
        <time>2022-05-21T20:46:23.133Z</time>
      </trkpt>
      <trkpt lat="43.14844" lon="5.77747">
        <ele>53.02474653987</ele>
        <time>2022-05-21T20:46:28.632Z</time>
      </trkpt>
      <trkpt lat="43.14879" lon="5.77729">
        <ele>54.14622897982</ele>
        <time>2022-05-21T20:46:34.137Z</time>
      </trkpt>
      <trkpt lat="43.1489" lon="5.7773">
        <ele>55.0847162237</ele>
        <time>2022-05-21T20:46:39.644Z</time>
      </trkpt>
      <trkpt lat="43.14913" lon="5.77741">
        <ele>56.04448221413</ele>
        <time>2022-05-21T20:46:45.155Z</time>
      </trkpt>
      <trkpt lat="43.14919" lon="5.7776">
        <ele>56.72522634776</ele>
        <time>2022-05-21T20:46:50.668Z</time>
      </trkpt>
      <trkpt lat="43.14924" lon="5.77825">
        <ele>57.24920502814</ele>
        <time>2022-05-21T20:46:56.189Z</time>
      </trkpt>
      <trkpt lat="43.14966" lon="5.77893">
        <ele>57.94408411433</ele>
        <time>2022-05-21T20:47:01.720Z</time>
      </trkpt>
      <trkpt lat="43.14976" lon="5.77919">
        <ele>58.48839770447</ele>
        <time>2022-05-21T20:47:07.255Z</time>
      </trkpt>
      <trkpt lat="43.14966" lon="5.77988">
        <ele>59.19561088535</ele>
        <time>2022-05-21T20:47:12.798Z</time>
      </trkpt>
      <trkpt lat="43.14964" lon="5.78006">
        <ele>59.85469425801</ele>
        <time>2022-05-21T20:47:18.343Z</time>
      </trkpt>
      <trkpt lat="43.14962" lon="5.78016">
        <ele>61.03953617531</ele>
        <time>2022-05-21T20:47:23.889Z</time>
      </trkpt>
      <trkpt lat="43.14967" lon="5.78032">
        <ele>61.65734583137</ele>
        <time>2022-05-21T20:47:29.437Z</time>
      </trkpt>
      <trkpt lat="43.14984" lon="5.78063">
        <ele>62.27730346264</ele>
        <time>2022-05-21T20:47:34.990Z</time>
      </trkpt>
      <trkpt lat="43.14993" lon="5.78106">
        <ele>62.83030437696</ele>
        <time>2022-05-21T20:47:40.548Z</time>
      </trkpt>
      <trkpt lat="43.14997" lon="5.78146">
        <ele>63.51108771532</ele>
        <time>2022-05-21T20:47:46.111Z</time>
      </trkpt>
      <trkpt lat="43.15011" lon="5.78181">
        <ele>64.26012195156</ele>
        <time>2022-05-21T20:47:51.679Z</time>
      </trkpt>
      <trkpt lat="43.14991" lon="5.78205">
        <ele>64.82627025242</ele>
        <time>2022-05-21T20:47:57.251Z</time>
      </trkpt>
      <trkpt lat="43.14967" lon="5.7822">
        <ele>65.49831753247</ele>
        <time>2022-05-21T20:48:02.827Z</time>
      </trkpt>
      <trkpt lat="43.14922" lon="5.78255">
        <ele>66.22313896839</ele>
        <time>2022-05-21T20:48:08.411Z</time>
      </trkpt>
      <trkpt lat="43.14905" lon="5.78264">
        <ele>66.898465481</ele>
        <time>2022-05-21T20:48:13.998Z</time>
      </trkpt>
      <trkpt lat="43.14905" lon="5.78264">
        <ele>67.59725427131</ele>
        <time>2022-05-21T20:48:19.585Z</time>
      </trkpt>
      <trkpt lat="43.14862" lon="5.78285">
        <ele>68.23232136942</ele>
        <time>2022-05-21T20:48:25.180Z</time>
      </trkpt>
      <trkpt lat="43.14835" lon="5.78282">
        <ele>69.09878553908</ele>
        <time>2022-05-21T20:48:30.779Z</time>
      </trkpt>
      <trkpt lat="43.14816" lon="5.78325">
        <ele>69.98792688613</ele>
        <time>2022-05-21T20:48:36.384Z</time>
      </trkpt>
      <trkpt lat="43.14804" lon="5.78343">
        <ele>70.86034353694</ele>
        <time>2022-05-21T20:48:41.992Z</time>
      </trkpt>
      <trkpt lat="43.14778" lon="5.78354">
        <ele>71.83761936178</ele>
        <time>2022-05-21T20:48:47.604Z</time>
      </trkpt>
      <trkpt lat="43.14769" lon="5.78371">
        <ele>72.6448623221</ele>
        <time>2022-05-21T20:48:53.219Z</time>
      </trkpt>
      <trkpt lat="43.14729" lon="5.78409">
        <ele>73.61589552027</ele>
        <time>2022-05-21T20:48:58.841Z</time>
      </trkpt>
      <trkpt lat="43.14709" lon="5.78421">
        <ele>74.45410148953</ele>
        <time>2022-05-21T20:49:04.467Z</time>
      </trkpt>
      <trkpt lat="43.14705" lon="5.78422">
        <ele>75.22835808802</ele>
        <time>2022-05-21T20:49:10.093Z</time>
      </trkpt>
      <trkpt lat="43.14694" lon="5.78422">
        <ele>76.01171362824</ele>
        <time>2022-05-21T20:49:15.721Z</time>
      </trkpt>
      <trkpt lat="43.14692" lon="5.78417">
        <ele>76.77355604293</ele>
        <time>2022-05-21T20:49:21.350Z</time>
      </trkpt>
      <trkpt lat="43.14688" lon="5.78415">
        <ele>77.52245255583</ele>
        <time>2022-05-21T20:49:26.979Z</time>
      </trkpt>
      <trkpt lat="43.14684" lon="5.78416">
        <ele>78.25454493429</ele>
        <time>2022-05-21T20:49:32.609Z</time>
      </trkpt>
      <trkpt lat="43.1468" lon="5.78419">
        <ele>78.95884677462</ele>
        <time>2022-05-21T20:49:38.240Z</time>
      </trkpt>
      <trkpt lat="43.14678" lon="5.78427">
        <ele>79.66121048289</ele>
        <time>2022-05-21T20:49:43.872Z</time>
      </trkpt>
      <trkpt lat="43.14679" lon="5.78433">
        <ele>80.38276849655</ele>
        <time>2022-05-21T20:49:49.505Z</time>
      </trkpt>
      <trkpt lat="43.14678" lon="5.78453">
        <ele>81.10981156268</ele>
        <time>2022-05-21T20:49:55.140Z</time>
      </trkpt>
      <trkpt lat="43.1466" lon="5.78475">
        <ele>81.9201415752</ele>
        <time>2022-05-21T20:50:00.779Z</time>
      </trkpt>
      <trkpt lat="43.14566" lon="5.78542">
        <ele>82.39623670866</ele>
        <time>2022-05-21T20:50:06.435Z</time>
      </trkpt>
      <trkpt lat="43.1456" lon="5.78547">
        <ele>83.11532687834</ele>
        <time>2022-05-21T20:50:12.092Z</time>
      </trkpt>
      <trkpt lat="43.1456" lon="5.78547">
        <ele>83.81266844237</ele>
        <time>2022-05-21T20:50:17.749Z</time>
      </trkpt>
      <trkpt lat="43.14532" lon="5.78568">
        <ele>84.48846707683</ele>
        <time>2022-05-21T20:50:23.411Z</time>
      </trkpt>
      <trkpt lat="43.1451" lon="5.78588">
        <ele>85.16245592671</ele>
        <time>2022-05-21T20:50:29.077Z</time>
      </trkpt>
      <trkpt lat="43.14495" lon="5.78613">
        <ele>85.88894363075</ele>
        <time>2022-05-21T20:50:34.747Z</time>
      </trkpt>
      <trkpt lat="43.14484" lon="5.78632">
        <ele>86.64726093714</ele>
        <time>2022-05-21T20:50:40.420Z</time>
      </trkpt>
      <trkpt lat="43.14474" lon="5.78654">
        <ele>87.43819103146</ele>
        <time>2022-05-21T20:50:46.096Z</time>
      </trkpt>
      <trkpt lat="43.14466" lon="5.78681">
        <ele>88.17029238831</ele>
        <time>2022-05-21T20:50:51.775Z</time>
      </trkpt>
      <trkpt lat="43.14466" lon="5.78681">
        <ele>88.75852726015</ele>
        <time>2022-05-21T20:50:57.454Z</time>
      </trkpt>
      <trkpt lat="43.14457" lon="5.7873">
        <ele>89.53001614714</ele>
        <time>2022-05-21T20:51:03.139Z</time>
      </trkpt>
      <trkpt lat="43.14451" lon="5.78749">
        <ele>90.15190346912</ele>
        <time>2022-05-21T20:51:08.826Z</time>
      </trkpt>
      <trkpt lat="43.14417" lon="5.78814">
        <ele>90.72047029046</ele>
        <time>2022-05-21T20:51:14.523Z</time>
      </trkpt>
      <trkpt lat="43.14401" lon="5.78838">
        <ele>91.07330365592</ele>
        <time>2022-05-21T20:51:20.224Z</time>
      </trkpt>
      <trkpt lat="43.14401" lon="5.78838">
        <ele>91.30456754095</ele>
        <time>2022-05-21T20:51:25.925Z</time>
      </trkpt>
      <trkpt lat="43.144" lon="5.78839">
        <ele>91.43996690122</ele>
        <time>2022-05-21T20:51:31.626Z</time>
      </trkpt>
      <trkpt lat="43.14371" lon="5.78869">
        <ele>91.52674434048</ele>
        <time>2022-05-21T20:51:37.333Z</time>
      </trkpt>
      <trkpt lat="43.14333" lon="5.789">
        <ele>91.53978139116</ele>
        <time>2022-05-21T20:51:43.047Z</time>
      </trkpt>
      <trkpt lat="43.14314" lon="5.78923">
        <ele>91.33874609508</ele>
        <time>2022-05-21T20:51:48.765Z</time>
      </trkpt>
      <trkpt lat="43.14302" lon="5.78945">
        <ele>91.08895701517</ele>
        <time>2022-05-21T20:51:54.486Z</time>
      </trkpt>
      <trkpt lat="43.1426" lon="5.79029">
        <ele>90.92005168507</ele>
        <time>2022-05-21T20:52:00.219Z</time>
      </trkpt>
      <trkpt lat="43.14207" lon="5.79159">
        <ele>90.16659060044</ele>
        <time>2022-05-21T20:52:05.969Z</time>
      </trkpt>
      <trkpt lat="43.14189" lon="5.79202">
        <ele>89.44576372193</ele>
        <time>2022-05-21T20:52:11.725Z</time>
      </trkpt>
      <trkpt lat="43.14173" lon="5.79248">
        <ele>88.63010097209</ele>
        <time>2022-05-21T20:52:17.487Z</time>
      </trkpt>
      <trkpt lat="43.14163" lon="5.79287">
        <ele>87.83181915946</ele>
        <time>2022-05-21T20:52:23.254Z</time>
      </trkpt>
      <trkpt lat="43.14163" lon="5.79287">
        <ele>87.15322779867</ele>
        <time>2022-05-21T20:52:29.021Z</time>
      </trkpt>
      <trkpt lat="43.14162" lon="5.79292">
        <ele>86.44331666143</ele>
        <time>2022-05-21T20:52:34.789Z</time>
      </trkpt>
      <trkpt lat="43.14152" lon="5.79346">
        <ele>85.62360883374</ele>
        <time>2022-05-21T20:52:40.563Z</time>
      </trkpt>
      <trkpt lat="43.14136" lon="5.79419">
        <ele>84.72859166485</ele>
        <time>2022-05-21T20:52:46.346Z</time>
      </trkpt>
      <trkpt lat="43.14121" lon="5.79482">
        <ele>83.85471784584</ele>
        <time>2022-05-21T20:52:52.137Z</time>
      </trkpt>
      <trkpt lat="43.14121" lon="5.79482">
        <ele>83.18758948572</ele>
        <time>2022-05-21T20:52:57.928Z</time>
      </trkpt>
      <trkpt lat="43.14095" lon="5.79571">
        <ele>82.62706254033</ele>
        <time>2022-05-21T20:53:03.730Z</time>
      </trkpt>
      <trkpt lat="43.14053" lon="5.79694">
        <ele>81.94773533289</ele>
        <time>2022-05-21T20:53:09.548Z</time>
      </trkpt>
      <trkpt lat="43.14051" lon="5.79703">
        <ele>81.39273252299</ele>
        <time>2022-05-21T20:53:15.367Z</time>
      </trkpt>
      <trkpt lat="43.14049" lon="5.79704">
        <ele>80.88435643676</ele>
        <time>2022-05-21T20:53:21.186Z</time>
      </trkpt>
      <trkpt lat="43.14046" lon="5.79706">
        <ele>80.41650415134</ele>
        <time>2022-05-21T20:53:27.006Z</time>
      </trkpt>
      <trkpt lat="43.14046" lon="5.79712">
        <ele>79.99858517223</ele>
        <time>2022-05-21T20:53:32.827Z</time>
      </trkpt>
      <trkpt lat="43.14048" lon="5.79715">
        <ele>79.61413714486</ele>
        <time>2022-05-21T20:53:38.648Z</time>
      </trkpt>
      <trkpt lat="43.14041" lon="5.79728">
        <ele>79.26620371569</ele>
        <time>2022-05-21T20:53:44.471Z</time>
      </trkpt>
      <trkpt lat="43.14021" lon="5.79785">
        <ele>79.04638063317</ele>
        <time>2022-05-21T20:53:50.301Z</time>
      </trkpt>
      <trkpt lat="43.13997" lon="5.79861">
        <ele>78.74566426968</ele>
        <time>2022-05-21T20:53:56.141Z</time>
      </trkpt>
      <trkpt lat="43.13983" lon="5.79924">
        <ele>78.46429239334</ele>
        <time>2022-05-21T20:54:01.989Z</time>
      </trkpt>
      <trkpt lat="43.13976" lon="5.79952">
        <ele>78.17755518674</ele>
        <time>2022-05-21T20:54:07.840Z</time>
      </trkpt>
      <trkpt lat="43.13975" lon="5.79962">
        <ele>77.8827427019</ele>
        <time>2022-05-21T20:54:13.693Z</time>
      </trkpt>
      <trkpt lat="43.13968" lon="5.79963">
        <ele>77.51018849081</ele>
        <time>2022-05-21T20:54:19.547Z</time>
      </trkpt>
      <trkpt lat="43.13964" lon="5.7997">
        <ele>77.14308922788</ele>
        <time>2022-05-21T20:54:25.402Z</time>
      </trkpt>
      <trkpt lat="43.13963" lon="5.79977">
        <ele>76.76289310844</ele>
        <time>2022-05-21T20:54:31.257Z</time>
      </trkpt>
      <trkpt lat="43.13966" lon="5.79984">
        <ele>76.35410713351</ele>
        <time>2022-05-21T20:54:37.113Z</time>
      </trkpt>
      <trkpt lat="43.1396" lon="5.79993">
        <ele>75.86805424745</ele>
        <time>2022-05-21T20:54:42.971Z</time>
      </trkpt>
      <trkpt lat="43.13895" lon="5.8017">
        <ele>75.07641768208</ele>
        <time>2022-05-21T20:54:48.852Z</time>
      </trkpt>
      <trkpt lat="43.13895" lon="5.8017">
        <ele>74.51872236665</ele>
        <time>2022-05-21T20:54:54.733Z</time>
      </trkpt>
      <trkpt lat="43.13857" lon="5.80277">
        <ele>73.76580279771</ele>
        <time>2022-05-21T20:55:00.628Z</time>
      </trkpt>
      <trkpt lat="43.13851" lon="5.80306">
        <ele>73.22857469024</ele>
        <time>2022-05-21T20:55:06.526Z</time>
      </trkpt>
      <trkpt lat="43.13835" lon="5.80433">
        <ele>72.41934081067</ele>
        <time>2022-05-21T20:55:12.440Z</time>
      </trkpt>
      <trkpt lat="43.13832" lon="5.80447">
        <ele>71.70218060104</ele>
        <time>2022-05-21T20:55:18.355Z</time>
      </trkpt>
      <trkpt lat="43.13826" lon="5.80462">
        <ele>70.92473409321</ele>
        <time>2022-05-21T20:55:24.272Z</time>
      </trkpt>
      <trkpt lat="43.13789" lon="5.80522">
        <ele>70.00579218788</ele>
        <time>2022-05-21T20:55:30.199Z</time>
      </trkpt>
      <trkpt lat="43.1377" lon="5.80577">
        <ele>69.20544901308</ele>
        <time>2022-05-21T20:55:36.133Z</time>
      </trkpt>
      <trkpt lat="43.13729" lon="5.80649">
        <ele>68.30830593563</ele>
        <time>2022-05-21T20:55:42.077Z</time>
      </trkpt>
      <trkpt lat="43.13714" lon="5.80696">
        <ele>67.66128397617</ele>
        <time>2022-05-21T20:55:48.027Z</time>
      </trkpt>
      <trkpt lat="43.13714" lon="5.80696">
        <ele>66.8786276105</ele>
        <time>2022-05-21T20:55:53.977Z</time>
      </trkpt>
      <trkpt lat="43.13696" lon="5.80753">
        <ele>66.16667385641</ele>
        <time>2022-05-21T20:55:59.935Z</time>
      </trkpt>
      <trkpt lat="43.13691" lon="5.80781">
        <ele>65.35154120758</ele>
        <time>2022-05-21T20:56:05.896Z</time>
      </trkpt>
      <trkpt lat="43.13693" lon="5.80809">
        <ele>64.56715994754</ele>
        <time>2022-05-21T20:56:11.860Z</time>
      </trkpt>
      <trkpt lat="43.13717" lon="5.80874">
        <ele>63.80896176102</ele>
        <time>2022-05-21T20:56:17.833Z</time>
      </trkpt>
      <trkpt lat="43.13751" lon="5.80929">
        <ele>63.09104219292</ele>
        <time>2022-05-21T20:56:23.814Z</time>
      </trkpt>
      <trkpt lat="43.13777" lon="5.80992">
        <ele>61.94248329199</ele>
        <time>2022-05-21T20:56:29.804Z</time>
      </trkpt>
      <trkpt lat="43.13784" lon="5.81038">
        <ele>60.98873791382</ele>
        <time>2022-05-21T20:56:35.799Z</time>
      </trkpt>
      <trkpt lat="43.13779" lon="5.81152">
        <ele>59.92566187013</ele>
        <time>2022-05-21T20:56:41.808Z</time>
      </trkpt>
      <trkpt lat="43.1378" lon="5.81176">
        <ele>59.13259787536</ele>
        <time>2022-05-21T20:56:47.819Z</time>
      </trkpt>
      <trkpt lat="43.13777" lon="5.81192">
        <ele>58.4409855002</ele>
        <time>2022-05-21T20:56:53.832Z</time>
      </trkpt>
      <trkpt lat="43.13773" lon="5.81194">
        <ele>57.81849713185</ele>
        <time>2022-05-21T20:56:59.846Z</time>
      </trkpt>
      <trkpt lat="43.13772" lon="5.81198">
        <ele>57.23199170687</ele>
        <time>2022-05-21T20:57:05.861Z</time>
      </trkpt>
      <trkpt lat="43.13753" lon="5.81186">
        <ele>56.75254149266</ele>
        <time>2022-05-21T20:57:11.879Z</time>
      </trkpt>
      <trkpt lat="43.13728" lon="5.81185">
        <ele>56.29762881455</ele>
        <time>2022-05-21T20:57:17.901Z</time>
      </trkpt>
      <trkpt lat="43.13708" lon="5.812">
        <ele>55.86465719806</ele>
        <time>2022-05-21T20:57:23.927Z</time>
      </trkpt>
      <trkpt lat="43.13667" lon="5.81231">
        <ele>55.39465599188</ele>
        <time>2022-05-21T20:57:29.960Z</time>
      </trkpt>
      <trkpt lat="43.13648" lon="5.81238">
        <ele>54.96029265306</ele>
        <time>2022-05-21T20:57:35.996Z</time>
      </trkpt>
      <trkpt lat="43.13642" lon="5.8124">
        <ele>54.55695972514</ele>
        <time>2022-05-21T20:57:42.033Z</time>
      </trkpt>
      <trkpt lat="43.13598" lon="5.81254">
        <ele>54.13936132426</ele>
        <time>2022-05-21T20:57:48.077Z</time>
      </trkpt>
      <trkpt lat="43.13531" lon="5.8128">
        <ele>53.78775063694</ele>
        <time>2022-05-21T20:57:54.133Z</time>
      </trkpt>
      <trkpt lat="43.13535" lon="5.81297">
        <ele>53.51356449992</ele>
        <time>2022-05-21T20:58:00.191Z</time>
      </trkpt>
      <trkpt lat="43.13535" lon="5.81297">
        <ele>53.14375878765</ele>
        <time>2022-05-21T20:58:06.249Z</time>
      </trkpt>
      <trkpt lat="43.13531" lon="5.8128">
        <ele>52.67447481626</ele>
        <time>2022-05-21T20:58:12.309Z</time>
      </trkpt>
      <trkpt lat="43.13487" lon="5.8131">
        <ele>52.32770003074</ele>
        <time>2022-05-21T20:58:18.377Z</time>
      </trkpt>
      <trkpt lat="43.13478" lon="5.81315">
        <ele>51.91473619138</ele>
        <time>2022-05-21T20:58:24.446Z</time>
      </trkpt>
      <trkpt lat="43.13437" lon="5.81344">
        <ele>51.35645157478</ele>
        <time>2022-05-21T20:58:30.523Z</time>
      </trkpt>
      <trkpt lat="43.13392" lon="5.81367">
        <ele>50.82906855174</ele>
        <time>2022-05-21T20:58:36.607Z</time>
      </trkpt>
      <trkpt lat="43.13392" lon="5.81367">
        <ele>50.4044881093</ele>
        <time>2022-05-21T20:58:42.691Z</time>
      </trkpt>
      <trkpt lat="43.13357" lon="5.81382">
        <ele>49.85463828598</ele>
        <time>2022-05-21T20:58:48.781Z</time>
      </trkpt>
      <trkpt lat="43.13347" lon="5.81383">
        <ele>49.3817183324</ele>
        <time>2022-05-21T20:58:54.873Z</time>
      </trkpt>
      <trkpt lat="43.13347" lon="5.81383">
        <ele>48.9244233668</ele>
        <time>2022-05-21T20:59:00.965Z</time>
      </trkpt>
      <trkpt lat="43.13333" lon="5.81385">
        <ele>48.42606695799</ele>
        <time>2022-05-21T20:59:07.059Z</time>
      </trkpt>
      <trkpt lat="43.13327" lon="5.81381">
        <ele>47.90967660876</ele>
        <time>2022-05-21T20:59:13.154Z</time>
      </trkpt>
      <trkpt lat="43.13327" lon="5.81378">
        <ele>47.40927860918</ele>
        <time>2022-05-21T20:59:19.249Z</time>
      </trkpt>
      <trkpt lat="43.13327" lon="5.81378">
        <ele>46.89791247126</ele>
        <time>2022-05-21T20:59:25.344Z</time>
      </trkpt>
      <trkpt lat="43.13323" lon="5.81372">
        <ele>46.34029974608</ele>
        <time>2022-05-21T20:59:31.440Z</time>
      </trkpt>
      <trkpt lat="43.13318" lon="5.81372">
        <ele>45.77796944591</ele>
        <time>2022-05-21T20:59:37.537Z</time>
      </trkpt>
      <trkpt lat="43.13314" lon="5.81375">
        <ele>45.20378109918</ele>
        <time>2022-05-21T20:59:43.635Z</time>
      </trkpt>
      <trkpt lat="43.13313" lon="5.81383">
        <ele>44.63170946666</ele>
        <time>2022-05-21T20:59:49.734Z</time>
      </trkpt>
      <trkpt lat="43.13306" lon="5.81389">
        <ele>44.01643579983</ele>
        <time>2022-05-21T20:59:55.834Z</time>
      </trkpt>
      <trkpt lat="43.13298" lon="5.81391">
        <ele>43.36434935834</ele>
        <time>2022-05-21T21:00:01.935Z</time>
      </trkpt>
      <trkpt lat="43.13298" lon="5.81391">
        <ele>42.72290083789</ele>
        <time>2022-05-21T21:00:08.036Z</time>
      </trkpt>
      <trkpt lat="43.1329" lon="5.81395">
        <ele>42.04987731372</ele>
        <time>2022-05-21T21:00:14.139Z</time>
      </trkpt>
      <trkpt lat="43.13268" lon="5.81396">
        <ele>41.33144424065</ele>
        <time>2022-05-21T21:00:20.245Z</time>
      </trkpt>
      <trkpt lat="43.13259" lon="5.81398">
        <ele>40.62966187556</ele>
        <time>2022-05-21T21:00:26.353Z</time>
      </trkpt>
      <trkpt lat="43.13239" lon="5.81413">
        <ele>39.91726709362</ele>
        <time>2022-05-21T21:00:32.464Z</time>
      </trkpt>
      <trkpt lat="43.13212" lon="5.81425">
        <ele>39.12847935887</ele>
        <time>2022-05-21T21:00:38.580Z</time>
      </trkpt>
      <trkpt lat="43.13179" lon="5.81448">
        <ele>38.18078744301</ele>
        <time>2022-05-21T21:00:44.702Z</time>
      </trkpt>
      <trkpt lat="43.13165" lon="5.81461">
        <ele>37.37385439066</ele>
        <time>2022-05-21T21:00:50.827Z</time>
      </trkpt>
      <trkpt lat="43.13155" lon="5.81473">
        <ele>36.65293229813</ele>
        <time>2022-05-21T21:00:56.954Z</time>
      </trkpt>
      <trkpt lat="43.13119" lon="5.81518">
        <ele>35.93391364164</ele>
        <time>2022-05-21T21:01:03.089Z</time>
      </trkpt>
      <trkpt lat="43.13119" lon="5.81518">
        <ele>35.29287357062</ele>
        <time>2022-05-21T21:01:09.224Z</time>
      </trkpt>
      <trkpt lat="43.1309" lon="5.81546">
        <ele>34.62164547913</ele>
        <time>2022-05-21T21:01:15.364Z</time>
      </trkpt>
      <trkpt lat="43.1308" lon="5.81563">
        <ele>34.01433813778</ele>
        <time>2022-05-21T21:01:21.507Z</time>
      </trkpt>
      <trkpt lat="43.13045" lon="5.81636">
        <ele>33.41114100331</ele>
        <time>2022-05-21T21:01:27.660Z</time>
      </trkpt>
      <trkpt lat="43.13045" lon="5.81636">
        <ele>32.89466952118</ele>
        <time>2022-05-21T21:01:33.813Z</time>
      </trkpt>
      <trkpt lat="43.13031" lon="5.81662">
        <ele>32.37978839994</ele>
        <time>2022-05-21T21:01:39.970Z</time>
      </trkpt>
      <trkpt lat="43.13009" lon="5.81697">
        <ele>31.91964552512</ele>
        <time>2022-05-21T21:01:46.132Z</time>
      </trkpt>
      <trkpt lat="43.12991" lon="5.8172">
        <ele>31.53622420517</ele>
        <time>2022-05-21T21:01:52.298Z</time>
      </trkpt>
      <trkpt lat="43.12973" lon="5.81737">
        <ele>31.17667965236</ele>
        <time>2022-05-21T21:01:58.468Z</time>
      </trkpt>
      <trkpt lat="43.12969" lon="5.81739">
        <ele>30.8248148306</ele>
        <time>2022-05-21T21:02:04.638Z</time>
      </trkpt>
      <trkpt lat="43.12969" lon="5.81739">
        <ele>30.5022034207</ele>
        <time>2022-05-21T21:02:10.808Z</time>
      </trkpt>
      <trkpt lat="43.12919" lon="5.81776">
        <ele>30.19875653094</ele>
        <time>2022-05-21T21:02:16.987Z</time>
      </trkpt>
      <trkpt lat="43.12909" lon="5.81793">
        <ele>29.91023076638</ele>
        <time>2022-05-21T21:02:23.169Z</time>
      </trkpt>
      <trkpt lat="43.12887" lon="5.81846">
        <ele>29.66800398439</ele>
        <time>2022-05-21T21:02:29.358Z</time>
      </trkpt>
      <trkpt lat="43.12863" lon="5.81913">
        <ele>29.45500788408</ele>
        <time>2022-05-21T21:02:35.556Z</time>
      </trkpt>
      <trkpt lat="43.12863" lon="5.81913">
        <ele>29.2319578904</ele>
        <time>2022-05-21T21:02:41.754Z</time>
      </trkpt>
      <trkpt lat="43.12834" lon="5.82007">
        <ele>29.00707822874</ele>
        <time>2022-05-21T21:02:47.964Z</time>
      </trkpt>
      <trkpt lat="43.12834" lon="5.82007">
        <ele>28.80757422318</ele>
        <time>2022-05-21T21:02:54.174Z</time>
      </trkpt>
      <trkpt lat="43.12736" lon="5.82275">
        <ele>28.23647401211</ele>
        <time>2022-05-21T21:03:00.419Z</time>
      </trkpt>
      <trkpt lat="43.12736" lon="5.82275">
        <ele>28.0609091606</ele>
        <time>2022-05-21T21:03:06.664Z</time>
      </trkpt>
      <trkpt lat="43.12707" lon="5.82356">
        <ele>28.09140009572</ele>
        <time>2022-05-21T21:03:12.919Z</time>
      </trkpt>
      <trkpt lat="43.12676" lon="5.82431">
        <ele>27.89310648587</ele>
        <time>2022-05-21T21:03:19.184Z</time>
      </trkpt>
      <trkpt lat="43.12673" lon="5.82447">
        <ele>27.77662399543</ele>
        <time>2022-05-21T21:03:25.451Z</time>
      </trkpt>
      <trkpt lat="43.12675" lon="5.82463">
        <ele>27.63853606106</ele>
        <time>2022-05-21T21:03:31.720Z</time>
      </trkpt>
      <trkpt lat="43.12681" lon="5.82488">
        <ele>27.55899487506</ele>
        <time>2022-05-21T21:03:37.992Z</time>
      </trkpt>
      <trkpt lat="43.12679" lon="5.82501">
        <ele>27.38816260263</ele>
        <time>2022-05-21T21:03:44.266Z</time>
      </trkpt>
      <trkpt lat="43.12673" lon="5.8251">
        <ele>27.18830252344</ele>
        <time>2022-05-21T21:03:50.541Z</time>
      </trkpt>
      <trkpt lat="43.1267" lon="5.82512">
        <ele>26.99991660167</ele>
        <time>2022-05-21T21:03:56.817Z</time>
      </trkpt>
      <trkpt lat="43.12666" lon="5.82504">
        <ele>26.7835352227</ele>
        <time>2022-05-21T21:04:03.094Z</time>
      </trkpt>
      <trkpt lat="43.1266" lon="5.82499">
        <ele>26.54853742481</ele>
        <time>2022-05-21T21:04:09.372Z</time>
      </trkpt>
      <trkpt lat="43.12654" lon="5.82496">
        <ele>26.31754122682</ele>
        <time>2022-05-21T21:04:15.651Z</time>
      </trkpt>
      <trkpt lat="43.12649" lon="5.82497">
        <ele>26.08418824559</ele>
        <time>2022-05-21T21:04:21.931Z</time>
      </trkpt>
      <trkpt lat="43.12638" lon="5.82506">
        <ele>25.80999560617</ele>
        <time>2022-05-21T21:04:28.213Z</time>
      </trkpt>
      <trkpt lat="43.12634" lon="5.82519">
        <ele>25.57551016085</ele>
        <time>2022-05-21T21:04:34.497Z</time>
      </trkpt>
      <trkpt lat="43.12634" lon="5.82526">
        <ele>25.34660455748</ele>
        <time>2022-05-21T21:04:40.782Z</time>
      </trkpt>
      <trkpt lat="43.12636" lon="5.82534">
        <ele>25.12371796667</ele>
        <time>2022-05-21T21:04:47.068Z</time>
      </trkpt>
      <trkpt lat="43.12642" lon="5.82545">
        <ele>24.92216881859</ele>
        <time>2022-05-21T21:04:53.355Z</time>
      </trkpt>
      <trkpt lat="43.12652" lon="5.82549">
        <ele>24.73135826884</ele>
        <time>2022-05-21T21:04:59.644Z</time>
      </trkpt>
      <trkpt lat="43.1266" lon="5.8256">
        <ele>24.51267131783</ele>
        <time>2022-05-21T21:05:05.935Z</time>
      </trkpt>
      <trkpt lat="43.12664" lon="5.82563">
        <ele>24.25173121039</ele>
        <time>2022-05-21T21:05:12.226Z</time>
      </trkpt>
      <trkpt lat="43.12665" lon="5.8257">
        <ele>23.93951477202</ele>
        <time>2022-05-21T21:05:18.518Z</time>
      </trkpt>
      <trkpt lat="43.12664" lon="5.82584">
        <ele>23.58766899607</ele>
        <time>2022-05-21T21:05:24.812Z</time>
      </trkpt>
      <trkpt lat="43.12661" lon="5.82603">
        <ele>23.1665679403</ele>
        <time>2022-05-21T21:05:31.108Z</time>
      </trkpt>
      <trkpt lat="43.1265" lon="5.82631">
        <ele>22.63142328706</ele>
        <time>2022-05-21T21:05:37.408Z</time>
      </trkpt>
      <trkpt lat="43.12629" lon="5.82661">
        <ele>22.1196084193</ele>
        <time>2022-05-21T21:05:43.713Z</time>
      </trkpt>
      <trkpt lat="43.12611" lon="5.82698">
        <ele>21.67803495265</ele>
        <time>2022-05-21T21:05:50.023Z</time>
      </trkpt>
      <trkpt lat="43.12594" lon="5.82743">
        <ele>21.3034363441</ele>
        <time>2022-05-21T21:05:56.339Z</time>
      </trkpt>
      <trkpt lat="43.12584" lon="5.82779">
        <ele>21.00231851211</ele>
        <time>2022-05-21T21:06:02.659Z</time>
      </trkpt>
      <trkpt lat="43.1258" lon="5.82813">
        <ele>20.62173228407</ele>
        <time>2022-05-21T21:06:08.983Z</time>
      </trkpt>
      <trkpt lat="43.1258" lon="5.82813">
        <ele>20.30433791334</ele>
        <time>2022-05-21T21:06:15.307Z</time>
      </trkpt>
      <trkpt lat="43.12579" lon="5.82932">
        <ele>19.7665070846</ele>
        <time>2022-05-21T21:06:21.645Z</time>
      </trkpt>
      <trkpt lat="43.12579" lon="5.82932">
        <ele>19.50207563162</ele>
        <time>2022-05-21T21:06:27.983Z</time>
      </trkpt>
      <trkpt lat="43.12579" lon="5.82949">
        <ele>19.336679073</ele>
        <time>2022-05-21T21:06:34.323Z</time>
      </trkpt>
      <trkpt lat="43.12577" lon="5.83096">
        <ele>19.20702660944</ele>
        <time>2022-05-21T21:06:40.681Z</time>
      </trkpt>
      <trkpt lat="43.12574" lon="5.83122">
        <ele>19.07530877635</ele>
        <time>2022-05-21T21:06:47.042Z</time>
      </trkpt>
      <trkpt lat="43.12569" lon="5.83133">
        <ele>18.94670826046</ele>
        <time>2022-05-21T21:06:53.404Z</time>
      </trkpt>
      <trkpt lat="43.12569" lon="5.83139">
        <ele>18.84878765748</ele>
        <time>2022-05-21T21:06:59.767Z</time>
      </trkpt>
      <trkpt lat="43.12574" lon="5.8315">
        <ele>18.79785509402</ele>
        <time>2022-05-21T21:07:06.131Z</time>
      </trkpt>
      <trkpt lat="43.12575" lon="5.83184">
        <ele>18.83232747705</ele>
        <time>2022-05-21T21:07:12.499Z</time>
      </trkpt>
      <trkpt lat="43.1257" lon="5.83464">
        <ele>18.70274207199</ele>
        <time>2022-05-21T21:07:18.900Z</time>
      </trkpt>
      <trkpt lat="43.1257" lon="5.83464">
        <ele>18.69508330434</ele>
        <time>2022-05-21T21:07:25.301Z</time>
      </trkpt>
      <trkpt lat="43.12569" lon="5.83476">
        <ele>18.71097354406</ele>
        <time>2022-05-21T21:07:31.703Z</time>
      </trkpt>
      <trkpt lat="43.12566" lon="5.83519">
        <ele>18.70786253369</ele>
        <time>2022-05-21T21:07:38.110Z</time>
      </trkpt>
      <trkpt lat="43.12557" lon="5.83553">
        <ele>18.81974228887</ele>
        <time>2022-05-21T21:07:44.522Z</time>
      </trkpt>
      <trkpt lat="43.12551" lon="5.83561">
        <ele>18.92651399483</ele>
        <time>2022-05-21T21:07:50.935Z</time>
      </trkpt>
      <trkpt lat="43.12545" lon="5.83571">
        <ele>19.06001992127</ele>
        <time>2022-05-21T21:07:57.350Z</time>
      </trkpt>
      <trkpt lat="43.1254" lon="5.83573">
        <ele>19.1802337501</ele>
        <time>2022-05-21T21:08:03.765Z</time>
      </trkpt>
      <trkpt lat="43.12534" lon="5.83579">
        <ele>19.32814131679</ele>
        <time>2022-05-21T21:08:10.182Z</time>
      </trkpt>
      <trkpt lat="43.12531" lon="5.8359">
        <ele>19.50099246381</ele>
        <time>2022-05-21T21:08:16.600Z</time>
      </trkpt>
      <trkpt lat="43.12533" lon="5.83601">
        <ele>19.67446448582</ele>
        <time>2022-05-21T21:08:23.019Z</time>
      </trkpt>
      <trkpt lat="43.12539" lon="5.83609">
        <ele>19.85803629539</ele>
        <time>2022-05-21T21:08:29.440Z</time>
      </trkpt>
      <trkpt lat="43.12546" lon="5.8361">
        <ele>20.05682234017</ele>
        <time>2022-05-21T21:08:35.862Z</time>
      </trkpt>
      <trkpt lat="43.12551" lon="5.83621">
        <ele>20.26399542967</ele>
        <time>2022-05-21T21:08:42.285Z</time>
      </trkpt>
      <trkpt lat="43.12562" lon="5.83655">
        <ele>20.51048761845</ele>
        <time>2022-05-21T21:08:48.713Z</time>
      </trkpt>
      <trkpt lat="43.12567" lon="5.83678">
        <ele>20.76468629805</ele>
        <time>2022-05-21T21:08:55.143Z</time>
      </trkpt>
      <trkpt lat="43.1257" lon="5.83685">
        <ele>21.0388624637</ele>
        <time>2022-05-21T21:09:01.574Z</time>
      </trkpt>
      <trkpt lat="43.12574" lon="5.83706">
        <ele>21.33899725566</ele>
        <time>2022-05-21T21:09:08.008Z</time>
      </trkpt>
      <trkpt lat="43.12594" lon="5.83818">
        <ele>21.69301598348</ele>
        <time>2022-05-21T21:09:14.455Z</time>
      </trkpt>
      <trkpt lat="43.12594" lon="5.83818">
        <ele>22.03256523876</ele>
        <time>2022-05-21T21:09:20.902Z</time>
      </trkpt>
      <trkpt lat="43.12594" lon="5.83818">
        <ele>22.39550712925</ele>
        <time>2022-05-21T21:09:27.350Z</time>
      </trkpt>
      <trkpt lat="43.12599" lon="5.83834">
        <ele>22.79299921917</ele>
        <time>2022-05-21T21:09:33.800Z</time>
      </trkpt>
      <trkpt lat="43.12609" lon="5.83848">
        <ele>23.22335480718</ele>
        <time>2022-05-21T21:09:40.252Z</time>
      </trkpt>
      <trkpt lat="43.12628" lon="5.83864">
        <ele>23.69726019383</ele>
        <time>2022-05-21T21:09:46.707Z</time>
      </trkpt>
      <trkpt lat="43.12657" lon="5.83883">
        <ele>24.15488940548</ele>
        <time>2022-05-21T21:09:53.168Z</time>
      </trkpt>
      <trkpt lat="43.12676" lon="5.83899">
        <ele>24.60269346619</ele>
        <time>2022-05-21T21:09:59.632Z</time>
      </trkpt>
      <trkpt lat="43.12681" lon="5.83908">
        <ele>25.11819383577</ele>
        <time>2022-05-21T21:10:06.097Z</time>
      </trkpt>
      <trkpt lat="43.12685" lon="5.8392">
        <ele>25.66718677129</ele>
        <time>2022-05-21T21:10:12.564Z</time>
      </trkpt>
      <trkpt lat="43.1269" lon="5.83935">
        <ele>26.23749493033</ele>
        <time>2022-05-21T21:10:19.033Z</time>
      </trkpt>
      <trkpt lat="43.12692" lon="5.83953">
        <ele>26.80964260153</ele>
        <time>2022-05-21T21:10:25.504Z</time>
      </trkpt>
      <trkpt lat="43.12692" lon="5.83976">
        <ele>27.39250310482</ele>
        <time>2022-05-21T21:10:31.978Z</time>
      </trkpt>
      <trkpt lat="43.12692" lon="5.83976">
        <ele>27.98663942783</ele>
        <time>2022-05-21T21:10:38.452Z</time>
      </trkpt>
      <trkpt lat="43.12693" lon="5.84037">
        <ele>28.62765819815</ele>
        <time>2022-05-21T21:10:44.933Z</time>
      </trkpt>
      <trkpt lat="43.12695" lon="5.84055">
        <ele>29.22964085252</ele>
        <time>2022-05-21T21:10:51.416Z</time>
      </trkpt>
      <trkpt lat="43.12698" lon="5.84074">
        <ele>29.8435238105</ele>
        <time>2022-05-21T21:10:57.901Z</time>
      </trkpt>
      <trkpt lat="43.12707" lon="5.84098">
        <ele>30.46704004465</ele>
        <time>2022-05-21T21:11:04.389Z</time>
      </trkpt>
      <trkpt lat="43.12749" lon="5.84188">
        <ele>31.25559148523</ele>
        <time>2022-05-21T21:11:10.890Z</time>
      </trkpt>
      <trkpt lat="43.12759" lon="5.84212">
        <ele>31.89285852131</ele>
        <time>2022-05-21T21:11:17.394Z</time>
      </trkpt>
      <trkpt lat="43.12766" lon="5.84231">
        <ele>32.48045231401</ele>
        <time>2022-05-21T21:11:23.901Z</time>
      </trkpt>
      <trkpt lat="43.12773" lon="5.84254">
        <ele>32.97971332864</ele>
        <time>2022-05-21T21:11:30.411Z</time>
      </trkpt>
      <trkpt lat="43.12784" lon="5.84275">
        <ele>33.38398842119</ele>
        <time>2022-05-21T21:11:36.924Z</time>
      </trkpt>
      <trkpt lat="43.1281" lon="5.84317">
        <ele>33.84650129397</ele>
        <time>2022-05-21T21:11:43.443Z</time>
      </trkpt>
      <trkpt lat="43.12828" lon="5.8434">
        <ele>34.20325305241</ele>
        <time>2022-05-21T21:11:49.966Z</time>
      </trkpt>
      <trkpt lat="43.12828" lon="5.84344">
        <ele>34.33575118344</ele>
        <time>2022-05-21T21:11:56.489Z</time>
      </trkpt>
      <trkpt lat="43.12864" lon="5.84384">
        <ele>34.50901150817</ele>
        <time>2022-05-21T21:12:03.020Z</time>
      </trkpt>
      <trkpt lat="43.12871" lon="5.84394">
        <ele>34.49857238826</ele>
        <time>2022-05-21T21:12:09.553Z</time>
      </trkpt>
      <trkpt lat="43.12874" lon="5.84414">
        <ele>34.32303557825</ele>
        <time>2022-05-21T21:12:16.088Z</time>
      </trkpt>
      <trkpt lat="43.12867" lon="5.84422">
        <ele>34.08006853233</ele>
        <time>2022-05-21T21:12:22.624Z</time>
      </trkpt>
      <trkpt lat="43.12841" lon="5.84444">
        <ele>33.65685365119</ele>
        <time>2022-05-21T21:12:29.165Z</time>
      </trkpt>
      <trkpt lat="43.12833" lon="5.84452">
        <ele>33.43711591155</ele>
        <time>2022-05-21T21:12:35.708Z</time>
      </trkpt>
      <trkpt lat="43.12817" lon="5.84468">
        <ele>33.16923215874</ele>
        <time>2022-05-21T21:12:42.254Z</time>
      </trkpt>
      <trkpt lat="43.12743" lon="5.84534">
        <ele>32.8389159599</ele>
        <time>2022-05-21T21:12:48.814Z</time>
      </trkpt>
      <trkpt lat="43.12727" lon="5.84541">
        <ele>32.53006746049</ele>
        <time>2022-05-21T21:12:55.377Z</time>
      </trkpt>
      <trkpt lat="43.1272" lon="5.84542">
        <ele>32.20602251655</ele>
        <time>2022-05-21T21:13:01.941Z</time>
      </trkpt>
      <trkpt lat="43.12715" lon="5.84538">
        <ele>31.8735559877</ele>
        <time>2022-05-21T21:13:08.506Z</time>
      </trkpt>
      <trkpt lat="43.12711" lon="5.84536">
        <ele>31.54080900363</ele>
        <time>2022-05-21T21:13:15.072Z</time>
      </trkpt>
      <trkpt lat="43.12701" lon="5.84537">
        <ele>31.22949758724</ele>
        <time>2022-05-21T21:13:21.639Z</time>
      </trkpt>
      <trkpt lat="43.12696" lon="5.84542">
        <ele>30.9091586499</ele>
        <time>2022-05-21T21:13:28.207Z</time>
      </trkpt>
      <trkpt lat="43.12693" lon="5.84548">
        <ele>30.59877198918</ele>
        <time>2022-05-21T21:13:34.776Z</time>
      </trkpt>
      <trkpt lat="43.12691" lon="5.84556">
        <ele>30.30006298956</ele>
        <time>2022-05-21T21:13:41.346Z</time>
      </trkpt>
      <trkpt lat="43.12693" lon="5.84568">
        <ele>30.02351482614</ele>
        <time>2022-05-21T21:13:47.918Z</time>
      </trkpt>
      <trkpt lat="43.12693" lon="5.84568">
        <ele>29.79278841208</ele>
        <time>2022-05-21T21:13:54.490Z</time>
      </trkpt>
      <trkpt lat="43.12698" lon="5.84578">
        <ele>29.60458928604</ele>
        <time>2022-05-21T21:14:01.063Z</time>
      </trkpt>
      <trkpt lat="43.12703" lon="5.84581">
        <ele>29.4412428449</ele>
        <time>2022-05-21T21:14:07.637Z</time>
      </trkpt>
      <trkpt lat="43.12713" lon="5.84594">
        <ele>29.33028162369</ele>
        <time>2022-05-21T21:14:14.213Z</time>
      </trkpt>
      <trkpt lat="43.12719" lon="5.84609">
        <ele>29.27470413504</ele>
        <time>2022-05-21T21:14:20.791Z</time>
      </trkpt>
      <trkpt lat="43.12732" lon="5.8469">
        <ele>29.31189422973</ele>
        <time>2022-05-21T21:14:27.379Z</time>
      </trkpt>
      <trkpt lat="43.12734" lon="5.84693">
        <ele>29.32707069712</ele>
        <time>2022-05-21T21:14:33.967Z</time>
      </trkpt>
      <trkpt lat="43.12739" lon="5.84729">
        <ele>29.3242047335</ele>
        <time>2022-05-21T21:14:40.560Z</time>
      </trkpt>
      <trkpt lat="43.12741" lon="5.84744">
        <ele>29.4186050141</ele>
        <time>2022-05-21T21:14:47.154Z</time>
      </trkpt>
      <trkpt lat="43.12743" lon="5.84769">
        <ele>29.58814579767</ele>
        <time>2022-05-21T21:14:53.751Z</time>
      </trkpt>
      <trkpt lat="43.12743" lon="5.84775">
        <ele>29.83504445945</ele>
        <time>2022-05-21T21:15:00.349Z</time>
      </trkpt>
      <trkpt lat="43.12749" lon="5.8478">
        <ele>30.14439692491</ele>
        <time>2022-05-21T21:15:06.948Z</time>
      </trkpt>
      <trkpt lat="43.12747" lon="5.84805">
        <ele>30.50353983449</ele>
        <time>2022-05-21T21:15:13.550Z</time>
      </trkpt>
      <trkpt lat="43.12747" lon="5.84805">
        <ele>30.90316802075</ele>
        <time>2022-05-21T21:15:20.152Z</time>
      </trkpt>
      <trkpt lat="43.12747" lon="5.84813">
        <ele>31.35514759037</ele>
        <time>2022-05-21T21:15:26.755Z</time>
      </trkpt>
      <trkpt lat="43.12747" lon="5.84813">
        <ele>31.85700041018</ele>
        <time>2022-05-21T21:15:33.358Z</time>
      </trkpt>
      <trkpt lat="43.1274" lon="5.84875">
        <ele>32.45440478042</ele>
        <time>2022-05-21T21:15:39.968Z</time>
      </trkpt>
      <trkpt lat="43.1274" lon="5.84875">
        <ele>33.0438653222</ele>
        <time>2022-05-21T21:15:46.578Z</time>
      </trkpt>
      <trkpt lat="43.12735" lon="5.84924">
        <ele>33.70528306541</ele>
        <time>2022-05-21T21:15:53.194Z</time>
      </trkpt>
      <trkpt lat="43.12735" lon="5.84979">
        <ele>34.41041988847</ele>
        <time>2022-05-21T21:15:59.817Z</time>
      </trkpt>
      <trkpt lat="43.12735" lon="5.84989">
        <ele>35.10773719299</ele>
        <time>2022-05-21T21:16:06.441Z</time>
      </trkpt>
      <trkpt lat="43.12738" lon="5.85079">
        <ele>35.9823978432</ele>
        <time>2022-05-21T21:16:13.075Z</time>
      </trkpt>
      <trkpt lat="43.12742" lon="5.85117">
        <ele>36.84028333178</ele>
        <time>2022-05-21T21:16:19.714Z</time>
      </trkpt>
      <trkpt lat="43.12749" lon="5.85143">
        <ele>37.64671525611</ele>
        <time>2022-05-21T21:16:26.356Z</time>
      </trkpt>
      <trkpt lat="43.12756" lon="5.85155">
        <ele>38.40644957826</ele>
        <time>2022-05-21T21:16:33.000Z</time>
      </trkpt>
      <trkpt lat="43.1277" lon="5.85167">
        <ele>39.20700218403</ele>
        <time>2022-05-21T21:16:39.646Z</time>
      </trkpt>
      <trkpt lat="43.12776" lon="5.85169">
        <ele>39.91827524418</ele>
        <time>2022-05-21T21:16:46.294Z</time>
      </trkpt>
      <trkpt lat="43.12778" lon="5.8518">
        <ele>40.52110009424</ele>
        <time>2022-05-21T21:16:52.943Z</time>
      </trkpt>
      <trkpt lat="43.12778" lon="5.85188">
        <ele>41.07043455168</ele>
        <time>2022-05-21T21:16:59.593Z</time>
      </trkpt>
      <trkpt lat="43.12771" lon="5.85191">
        <ele>41.48082982214</ele>
        <time>2022-05-21T21:17:06.244Z</time>
      </trkpt>
      <trkpt lat="43.12759" lon="5.85204">
        <ele>41.82268476597</ele>
        <time>2022-05-21T21:17:12.897Z</time>
      </trkpt>
      <trkpt lat="43.12755" lon="5.85224">
        <ele>42.21724065916</ele>
        <time>2022-05-21T21:17:19.553Z</time>
      </trkpt>
      <trkpt lat="43.12756" lon="5.85238">
        <ele>42.65715978852</ele>
        <time>2022-05-21T21:17:26.210Z</time>
      </trkpt>
      <trkpt lat="43.12755" lon="5.85246">
        <ele>43.08094521048</ele>
        <time>2022-05-21T21:17:32.868Z</time>
      </trkpt>
      <trkpt lat="43.12752" lon="5.85254">
        <ele>43.47610492875</ele>
        <time>2022-05-21T21:17:39.527Z</time>
      </trkpt>
      <trkpt lat="43.12753" lon="5.85261">
        <ele>43.89795916273</ele>
        <time>2022-05-21T21:17:46.187Z</time>
      </trkpt>
      <trkpt lat="43.12759" lon="5.85321">
        <ele>44.42426648258</ele>
        <time>2022-05-21T21:17:52.854Z</time>
      </trkpt>
      <trkpt lat="43.1276" lon="5.85332">
        <ele>44.85693096305</ele>
        <time>2022-05-21T21:17:59.523Z</time>
      </trkpt>
      <trkpt lat="43.12769" lon="5.8541">
        <ele>45.26638289767</ele>
        <time>2022-05-21T21:18:06.201Z</time>
      </trkpt>
      <trkpt lat="43.12769" lon="5.8541">
        <ele>45.66694899522</ele>
        <time>2022-05-21T21:18:12.879Z</time>
      </trkpt>
      <trkpt lat="43.1277" lon="5.85424">
        <ele>46.04810765697</ele>
        <time>2022-05-21T21:18:19.559Z</time>
      </trkpt>
      <trkpt lat="43.12772" lon="5.85443">
        <ele>46.46279661426</ele>
        <time>2022-05-21T21:18:26.241Z</time>
      </trkpt>
      <trkpt lat="43.12773" lon="5.8548">
        <ele>46.86814559916</ele>
        <time>2022-05-21T21:18:32.927Z</time>
      </trkpt>
      <trkpt lat="43.12773" lon="5.85502">
        <ele>47.28297883715</ele>
        <time>2022-05-21T21:18:39.616Z</time>
      </trkpt>
      <trkpt lat="43.12767" lon="5.85581">
        <ele>47.62593558872</ele>
        <time>2022-05-21T21:18:46.314Z</time>
      </trkpt>
      <trkpt lat="43.12767" lon="5.85581">
        <ele>48.04874457455</ele>
        <time>2022-05-21T21:18:53.012Z</time>
      </trkpt>
      <trkpt lat="43.12758" lon="5.85676">
        <ele>48.68916714115</ele>
        <time>2022-05-21T21:18:59.721Z</time>
      </trkpt>
      <trkpt lat="43.12757" lon="5.85716">
        <ele>49.22323012246</ele>
        <time>2022-05-21T21:19:06.435Z</time>
      </trkpt>
      <trkpt lat="43.1276" lon="5.85732">
        <ele>49.66209812637</ele>
        <time>2022-05-21T21:19:13.151Z</time>
      </trkpt>
      <trkpt lat="43.12767" lon="5.85744">
        <ele>50.06139974872</ele>
        <time>2022-05-21T21:19:19.869Z</time>
      </trkpt>
      <trkpt lat="43.12767" lon="5.85744">
        <ele>50.4130708207</ele>
        <time>2022-05-21T21:19:26.587Z</time>
      </trkpt>
      <trkpt lat="43.12761" lon="5.8575">
        <ele>50.74932351009</ele>
        <time>2022-05-21T21:19:33.306Z</time>
      </trkpt>
      <trkpt lat="43.12759" lon="5.85758">
        <ele>51.05474801201</ele>
        <time>2022-05-21T21:19:40.026Z</time>
      </trkpt>
      <trkpt lat="43.1276" lon="5.85765">
        <ele>51.31176320194</ele>
        <time>2022-05-21T21:19:46.747Z</time>
      </trkpt>
      <trkpt lat="43.12764" lon="5.85771">
        <ele>51.52366980667</ele>
        <time>2022-05-21T21:19:53.468Z</time>
      </trkpt>
      <trkpt lat="43.12768" lon="5.85774">
        <ele>51.69146507451</ele>
        <time>2022-05-21T21:20:00.190Z</time>
      </trkpt>
      <trkpt lat="43.12764" lon="5.85801">
        <ele>51.83505164021</ele>
        <time>2022-05-21T21:20:06.915Z</time>
      </trkpt>
      <trkpt lat="43.12761" lon="5.85836">
        <ele>51.91739933984</ele>
        <time>2022-05-21T21:20:13.645Z</time>
      </trkpt>
      <trkpt lat="43.12762" lon="5.85918">
        <ele>51.96616268896</ele>
        <time>2022-05-21T21:20:20.384Z</time>
      </trkpt>
      <trkpt lat="43.12763" lon="5.85918">
        <ele>51.91511172632</ele>
        <time>2022-05-21T21:20:27.123Z</time>
      </trkpt>
      <trkpt lat="43.12762" lon="5.85923">
        <ele>51.81054075819</ele>
        <time>2022-05-21T21:20:33.863Z</time>
      </trkpt>
      <trkpt lat="43.12763" lon="5.85952">
        <ele>51.63540779656</ele>
        <time>2022-05-21T21:20:40.606Z</time>
      </trkpt>
      <trkpt lat="43.12763" lon="5.86027">
        <ele>51.37234560589</ele>
        <time>2022-05-21T21:20:47.358Z</time>
      </trkpt>
      <trkpt lat="43.12761" lon="5.86042">
        <ele>51.02759815064</ele>
        <time>2022-05-21T21:20:54.112Z</time>
      </trkpt>
      <trkpt lat="43.12761" lon="5.86044">
        <ele>50.66205186282</ele>
        <time>2022-05-21T21:21:00.866Z</time>
      </trkpt>
      <trkpt lat="43.1276" lon="5.86078">
        <ele>50.19447028244</ele>
        <time>2022-05-21T21:21:07.624Z</time>
      </trkpt>
      <trkpt lat="43.12758" lon="5.86097">
        <ele>49.70117874353</ele>
        <time>2022-05-21T21:21:14.384Z</time>
      </trkpt>
      <trkpt lat="43.12753" lon="5.8613">
        <ele>49.11099647991</ele>
        <time>2022-05-21T21:21:21.148Z</time>
      </trkpt>
      <trkpt lat="43.12744" lon="5.86164">
        <ele>48.49316996568</ele>
        <time>2022-05-21T21:21:27.916Z</time>
      </trkpt>
      <trkpt lat="43.12731" lon="5.86208">
        <ele>47.79592197698</ele>
        <time>2022-05-21T21:21:34.690Z</time>
      </trkpt>
      <trkpt lat="43.12703" lon="5.86298">
        <ele>47.00707369668</ele>
        <time>2022-05-21T21:21:41.475Z</time>
      </trkpt>
      <trkpt lat="43.12703" lon="5.86298">
        <ele>46.30943548964</ele>
        <time>2022-05-21T21:21:48.260Z</time>
      </trkpt>
      <trkpt lat="43.12688" lon="5.86345">
        <ele>45.56416606046</ele>
        <time>2022-05-21T21:21:55.051Z</time>
      </trkpt>
      <trkpt lat="43.12684" lon="5.8636">
        <ele>44.79030502468</ele>
        <time>2022-05-21T21:22:01.844Z</time>
      </trkpt>
      <trkpt lat="43.12671" lon="5.864">
        <ele>43.89905919019</ele>
        <time>2022-05-21T21:22:08.642Z</time>
      </trkpt>
      <trkpt lat="43.12666" lon="5.86427">
        <ele>43.05581627023</ele>
        <time>2022-05-21T21:22:15.444Z</time>
      </trkpt>
      <trkpt lat="43.12666" lon="5.86427">
        <ele>42.24302649485</ele>
        <time>2022-05-21T21:22:22.246Z</time>
      </trkpt>
      <trkpt lat="43.12662" lon="5.86465">
        <ele>41.37167129133</ele>
        <time>2022-05-21T21:22:29.052Z</time>
      </trkpt>
      <trkpt lat="43.12662" lon="5.86478">
        <ele>40.5375773616</ele>
        <time>2022-05-21T21:22:35.860Z</time>
      </trkpt>
      <trkpt lat="43.12663" lon="5.86578">
        <ele>39.6642683291</ele>
        <time>2022-05-21T21:22:42.679Z</time>
      </trkpt>
      <trkpt lat="43.12669" lon="5.86659">
        <ele>38.77719959778</ele>
        <time>2022-05-21T21:22:49.508Z</time>
      </trkpt>
      <trkpt lat="43.12669" lon="5.86659">
        <ele>37.93289306215</ele>
        <time>2022-05-21T21:22:56.337Z</time>
      </trkpt>
      <trkpt lat="43.12669" lon="5.8666">
        <ele>37.08941116954</ele>
        <time>2022-05-21T21:23:03.166Z</time>
      </trkpt>
      <trkpt lat="43.12669" lon="5.8666">
        <ele>36.2492179454</ele>
        <time>2022-05-21T21:23:09.995Z</time>
      </trkpt>
      <trkpt lat="43.12661" lon="5.86706">
        <ele>35.33621580402</ele>
        <time>2022-05-21T21:23:16.830Z</time>
      </trkpt>
      <trkpt lat="43.12656" lon="5.86718">
        <ele>34.46211689204</ele>
        <time>2022-05-21T21:23:23.666Z</time>
      </trkpt>
      <trkpt lat="43.12633" lon="5.86734">
        <ele>33.59807646086</ele>
        <time>2022-05-21T21:23:30.506Z</time>
      </trkpt>
      <trkpt lat="43.12594" lon="5.86733">
        <ele>32.74767438101</ele>
        <time>2022-05-21T21:23:37.353Z</time>
      </trkpt>
      <trkpt lat="43.12594" lon="5.86746">
        <ele>32.00108657451</ele>
        <time>2022-05-21T21:23:44.201Z</time>
      </trkpt>
      <trkpt lat="43.12653" lon="5.86747">
        <ele>31.30665919658</ele>
        <time>2022-05-21T21:23:51.059Z</time>
      </trkpt>
      <trkpt lat="43.12658" lon="5.86857">
        <ele>30.34834937533</ele>
        <time>2022-05-21T21:23:57.929Z</time>
      </trkpt>
      <trkpt lat="43.12664" lon="5.86983">
        <ele>29.60890608049</ele>
        <time>2022-05-21T21:24:04.814Z</time>
      </trkpt>
      <trkpt lat="43.12671" lon="5.86978">
        <ele>29.05418667575</ele>
        <time>2022-05-21T21:24:11.701Z</time>
      </trkpt>
      <trkpt lat="43.12681" lon="5.86983">
        <ele>28.50573578089</ele>
        <time>2022-05-21T21:24:18.589Z</time>
      </trkpt>
      <trkpt lat="43.12683" lon="5.87019">
        <ele>27.95663906312</ele>
        <time>2022-05-21T21:24:25.481Z</time>
      </trkpt>
      <trkpt lat="43.12686" lon="5.8708">
        <ele>27.55286533693</ele>
        <time>2022-05-21T21:24:32.381Z</time>
      </trkpt>
      <trkpt lat="43.12691" lon="5.8713">
        <ele>27.25484861168</ele>
        <time>2022-05-21T21:24:39.287Z</time>
      </trkpt>
      <trkpt lat="43.12698" lon="5.87201">
        <ele>26.91826787086</ele>
        <time>2022-05-21T21:24:46.201Z</time>
      </trkpt>
      <trkpt lat="43.12706" lon="5.87274">
        <ele>26.64900980654</ele>
        <time>2022-05-21T21:24:53.124Z</time>
      </trkpt>
      <trkpt lat="43.12716" lon="5.8736">
        <ele>26.36985720318</ele>
        <time>2022-05-21T21:25:00.057Z</time>
      </trkpt>
      <trkpt lat="43.12723" lon="5.87389">
        <ele>26.12467787993</ele>
        <time>2022-05-21T21:25:06.993Z</time>
      </trkpt>
      <trkpt lat="43.12723" lon="5.87389">
        <ele>25.92558346886</ele>
        <time>2022-05-21T21:25:13.929Z</time>
      </trkpt>
      <trkpt lat="43.12729" lon="5.87419">
        <ele>25.78195860567</ele>
        <time>2022-05-21T21:25:20.869Z</time>
      </trkpt>
      <trkpt lat="43.12744" lon="5.87462">
        <ele>25.6011103707</ele>
        <time>2022-05-21T21:25:27.815Z</time>
      </trkpt>
      <trkpt lat="43.12755" lon="5.87486">
        <ele>25.42764535669</ele>
        <time>2022-05-21T21:25:34.764Z</time>
      </trkpt>
      <trkpt lat="43.12755" lon="5.87486">
        <ele>25.32960303011</ele>
        <time>2022-05-21T21:25:41.713Z</time>
      </trkpt>
      <trkpt lat="43.12752" lon="5.87507">
        <ele>25.22185576767</ele>
        <time>2022-05-21T21:25:48.664Z</time>
      </trkpt>
      <trkpt lat="43.12752" lon="5.87526">
        <ele>25.17007153892</ele>
        <time>2022-05-21T21:25:55.618Z</time>
      </trkpt>
      <trkpt lat="43.12738" lon="5.87631">
        <ele>25.05328499674</ele>
        <time>2022-05-21T21:26:02.584Z</time>
      </trkpt>
      <trkpt lat="43.12729" lon="5.87664">
        <ele>25.08422801701</ele>
        <time>2022-05-21T21:26:09.554Z</time>
      </trkpt>
      <trkpt lat="43.12722" lon="5.87702">
        <ele>25.08825042454</ele>
        <time>2022-05-21T21:26:16.529Z</time>
      </trkpt>
      <trkpt lat="43.12717" lon="5.87713">
        <ele>25.04096240432</ele>
        <time>2022-05-21T21:26:23.505Z</time>
      </trkpt>
      <trkpt lat="43.12717" lon="5.87713">
        <ele>25.01563513041</ele>
        <time>2022-05-21T21:26:30.481Z</time>
      </trkpt>
      <trkpt lat="43.12716" lon="5.87714">
        <ele>24.99106703105</ele>
        <time>2022-05-21T21:26:37.458Z</time>
      </trkpt>
      <trkpt lat="43.12709" lon="5.87723">
        <ele>24.94313324901</ele>
        <time>2022-05-21T21:26:44.436Z</time>
      </trkpt>
      <trkpt lat="43.12702" lon="5.87726">
        <ele>24.87238005198</ele>
        <time>2022-05-21T21:26:51.415Z</time>
      </trkpt>
      <trkpt lat="43.12695" lon="5.87732">
        <ele>24.80771373431</ele>
        <time>2022-05-21T21:26:58.396Z</time>
      </trkpt>
      <trkpt lat="43.12695" lon="5.87732">
        <ele>24.79278069117</ele>
        <time>2022-05-21T21:27:05.377Z</time>
      </trkpt>
      <trkpt lat="43.12695" lon="5.87732">
        <ele>24.77718745668</ele>
        <time>2022-05-21T21:27:12.358Z</time>
      </trkpt>
      <trkpt lat="43.12695" lon="5.87732">
        <ele>24.79278069117</ele>
        <time>2022-05-21T21:27:19.339Z</time>
      </trkpt>
      <trkpt lat="43.12687" lon="5.87747">
        <ele>24.71889703464</ele>
        <time>2022-05-21T21:27:26.322Z</time>
      </trkpt>
      <trkpt lat="43.12687" lon="5.87747">
        <ele>24.69273059303</ele>
        <time>2022-05-21T21:27:33.305Z</time>
      </trkpt>
      <trkpt lat="43.12685" lon="5.8775">
        <ele>24.66603869436</ele>
        <time>2022-05-21T21:27:40.288Z</time>
      </trkpt>
      <trkpt lat="43.12684" lon="5.87759">
        <ele>24.65352284607</ele>
        <time>2022-05-21T21:27:47.272Z</time>
      </trkpt>
      <trkpt lat="43.12684" lon="5.87759">
        <ele>24.59567985954</ele>
        <time>2022-05-21T21:27:54.256Z</time>
      </trkpt>
      <trkpt lat="43.12684" lon="5.87759">
        <ele>24.65352284607</ele>
        <time>2022-05-21T21:28:01.240Z</time>
      </trkpt>
      <trkpt lat="43.12684" lon="5.87767">
        <ele>24.35314771611</ele>
        <time>2022-05-21T21:28:08.225Z</time>
      </trkpt>
      <trkpt lat="43.12678" lon="5.8778">
        <ele>24.1899486193</ele>
        <time>2022-05-21T21:28:15.212Z</time>
      </trkpt>
      <trkpt lat="43.12678" lon="5.8778">
        <ele>23.94737366962</ele>
        <time>2022-05-21T21:28:22.199Z</time>
      </trkpt>
      <trkpt lat="43.12673" lon="5.87788">
        <ele>23.79381804918</ele>
        <time>2022-05-21T21:28:29.187Z</time>
      </trkpt>
      <trkpt lat="43.12663" lon="5.87799">
        <ele>23.60516862695</ele>
        <time>2022-05-21T21:28:36.177Z</time>
      </trkpt>
      <trkpt lat="43.12663" lon="5.87799">
        <ele>23.4516429903</ele>
        <time>2022-05-21T21:28:43.167Z</time>
      </trkpt>
      <trkpt lat="43.12661" lon="5.87802">
        <ele>23.27652812095</ele>
        <time>2022-05-21T21:28:50.158Z</time>
      </trkpt>
      <trkpt lat="43.12642" lon="5.87813">
        <ele>23.05221623039</ele>
        <time>2022-05-21T21:28:57.152Z</time>
      </trkpt>
      <trkpt lat="43.12613" lon="5.87819">
        <ele>22.8652712802</ele>
        <time>2022-05-21T21:29:04.151Z</time>
      </trkpt>
      <trkpt lat="43.12613" lon="5.87819">
        <ele>22.69393853648</ele>
        <time>2022-05-21T21:29:11.150Z</time>
      </trkpt>
      <trkpt lat="43.1259" lon="5.87822">
        <ele>22.55499368963</ele>
        <time>2022-05-21T21:29:18.153Z</time>
      </trkpt>
      <trkpt lat="43.12581" lon="5.87823">
        <ele>22.37065689841</ele>
        <time>2022-05-21T21:29:25.157Z</time>
      </trkpt>
      <trkpt lat="43.12581" lon="5.87823">
        <ele>22.15407089391</ele>
        <time>2022-05-21T21:29:32.161Z</time>
      </trkpt>
      <trkpt lat="43.12549" lon="5.87828">
        <ele>21.89564481927</ele>
        <time>2022-05-21T21:29:39.170Z</time>
      </trkpt>
      <trkpt lat="43.12549" lon="5.87828">
        <ele>21.66648692046</ele>
        <time>2022-05-21T21:29:46.179Z</time>
      </trkpt>
      <trkpt lat="43.12528" lon="5.87829">
        <ele>21.38590444007</ele>
        <time>2022-05-21T21:29:53.192Z</time>
      </trkpt>
      <trkpt lat="43.12507" lon="5.8783">
        <ele>21.11227372808</ele>
        <time>2022-05-21T21:30:00.208Z</time>
      </trkpt>
      <trkpt lat="43.12507" lon="5.8783">
        <ele>20.88876890788</ele>
        <time>2022-05-21T21:30:07.224Z</time>
      </trkpt>
      <trkpt lat="43.12485" lon="5.87832">
        <ele>20.62811415217</ele>
        <time>2022-05-21T21:30:14.243Z</time>
      </trkpt>
      <trkpt lat="43.12485" lon="5.87832">
        <ele>20.41023002407</ele>
        <time>2022-05-21T21:30:21.262Z</time>
      </trkpt>
      <trkpt lat="43.12459" lon="5.8784">
        <ele>20.18502035212</ele>
        <time>2022-05-21T21:30:28.286Z</time>
      </trkpt>
      <trkpt lat="43.12457" lon="5.87842">
        <ele>19.96258298113</ele>
        <time>2022-05-21T21:30:35.310Z</time>
      </trkpt>
      <trkpt lat="43.12457" lon="5.87842">
        <ele>19.74445573792</ele>
        <time>2022-05-21T21:30:42.334Z</time>
      </trkpt>
      <trkpt lat="43.12434" lon="5.87861">
        <ele>19.51380726583</ele>
        <time>2022-05-21T21:30:49.362Z</time>
      </trkpt>
      <trkpt lat="43.12427" lon="5.87868">
        <ele>19.28611135946</ele>
        <time>2022-05-21T21:30:56.392Z</time>
      </trkpt>
      <trkpt lat="43.12427" lon="5.87868">
        <ele>19.07838901883</ele>
        <time>2022-05-21T21:31:03.422Z</time>
      </trkpt>
      <trkpt lat="43.12418" lon="5.87877">
        <ele>18.83362189205</ele>
        <time>2022-05-21T21:31:10.453Z</time>
      </trkpt>
      <trkpt lat="43.12406" lon="5.87892">
        <ele>18.65136997835</ele>
        <time>2022-05-21T21:31:17.487Z</time>
      </trkpt>
      <trkpt lat="43.12406" lon="5.87893">
        <ele>18.46549420537</ele>
        <time>2022-05-21T21:31:24.521Z</time>
      </trkpt>
      <trkpt lat="43.12406" lon="5.87892">
        <ele>18.28811882198</ele>
        <time>2022-05-21T21:31:31.555Z</time>
      </trkpt>
      <trkpt lat="43.12395" lon="5.87902">
        <ele>18.08695047324</ele>
        <time>2022-05-21T21:31:38.591Z</time>
      </trkpt>
      <trkpt lat="43.12394" lon="5.87902">
        <ele>17.93633626708</ele>
        <time>2022-05-21T21:31:45.627Z</time>
      </trkpt>
      <trkpt lat="43.12395" lon="5.87902">
        <ele>18.08695047324</ele>
        <time>2022-05-21T21:31:52.663Z</time>
      </trkpt>
      <trkpt lat="43.12394" lon="5.87902">
        <ele>17.93633626708</ele>
        <time>2022-05-21T21:31:59.699Z</time>
      </trkpt>
      <trkpt lat="43.1239" lon="5.87902">
        <ele>17.22421144186</ele>
        <time>2022-05-21T21:32:06.736Z</time>
      </trkpt>
      <trkpt lat="43.12381" lon="5.87909">
        <ele>17.13267884794</ele>
        <time>2022-05-21T21:32:13.775Z</time>
      </trkpt>
      <trkpt lat="43.1238" lon="5.8791">
        <ele>17.12890907032</ele>
        <time>2022-05-21T21:32:20.814Z</time>
      </trkpt>
      <trkpt lat="43.1238" lon="5.8791">
        <ele>17.15393509006</ele>
        <time>2022-05-21T21:32:27.853Z</time>
      </trkpt>
      <trkpt lat="43.12375" lon="5.87922">
        <ele>17.18730137392</ele>
        <time>2022-05-21T21:32:34.893Z</time>
      </trkpt>
      <trkpt lat="43.12375" lon="5.87926">
        <ele>17.2920577956</ele>
        <time>2022-05-21T21:32:41.934Z</time>
      </trkpt>
      <trkpt lat="43.12378" lon="5.87941">
        <ele>17.45447300135</ele>
        <time>2022-05-21T21:32:48.977Z</time>
      </trkpt>
      <trkpt lat="43.12382" lon="5.87947">
        <ele>17.59314553692</ele>
        <time>2022-05-21T21:32:56.021Z</time>
      </trkpt>
      <trkpt lat="43.12392" lon="5.87953">
        <ele>17.75435625632</ele>
        <time>2022-05-21T21:33:03.067Z</time>
      </trkpt>
      <trkpt lat="43.12403" lon="5.8795">
        <ele>17.88427204568</ele>
        <time>2022-05-21T21:33:10.114Z</time>
      </trkpt>
      <trkpt lat="43.12404" lon="5.87953">
        <ele>17.99234044934</ele>
        <time>2022-05-21T21:33:17.162Z</time>
      </trkpt>
      <trkpt lat="43.12411" lon="5.87954">
        <ele>18.10679626653</ele>
        <time>2022-05-21T21:33:24.211Z</time>
      </trkpt>
      <trkpt lat="43.12411" lon="5.87954">
        <ele>18.21137397236</ele>
        <time>2022-05-21T21:33:31.260Z</time>
      </trkpt>
      <trkpt lat="43.12411" lon="5.87954">
        <ele>18.10679626653</ele>
        <time>2022-05-21T21:33:38.309Z</time>
      </trkpt>
      <trkpt lat="43.1243" lon="5.8795">
        <ele>18.90493774676</ele>
        <time>2022-05-21T21:33:45.361Z</time>
      </trkpt>
      <trkpt lat="43.12455" lon="5.87949">
        <ele>18.86018865561</ele>
        <time>2022-05-21T21:33:52.417Z</time>
      </trkpt>
      <trkpt lat="43.12459" lon="5.87949">
        <ele>18.80115956822</ele>
        <time>2022-05-21T21:33:59.473Z</time>
      </trkpt>
      <trkpt lat="43.12466" lon="5.87949">
        <ele>18.74416437203</ele>
        <time>2022-05-21T21:34:06.531Z</time>
      </trkpt>
      <trkpt lat="43.12474" lon="5.87958">
        <ele>18.6757466374</ele>
        <time>2022-05-21T21:34:13.590Z</time>
      </trkpt>
      <trkpt lat="43.12476" lon="5.87966">
        <ele>18.62012510175</ele>
        <time>2022-05-21T21:34:20.650Z</time>
      </trkpt>
      <trkpt lat="43.12479" lon="5.87979">
        <ele>18.50830387282</ele>
        <time>2022-05-21T21:34:27.712Z</time>
      </trkpt>
      <trkpt lat="43.1248" lon="5.87995">
        <ele>18.32113091113</ele>
        <time>2022-05-21T21:34:34.776Z</time>
      </trkpt>
      <trkpt lat="43.12481" lon="5.87999">
        <ele>19.50923473393</ele>
        <time>2022-05-21T21:34:41.840Z</time>
      </trkpt>
    </trkseg>
  </trk>
</gpx>